Wetterdaten: Samstag, 02.05.2020
Datum Zeit Temp. 2m Temp +5 cm Feuchte A. Luftdruck Regen Wind Richtung Richtung Sonnenschein UV Solar Taupunkt Windchill Windben
02.05.2020 00:00 5,7 C 5,0 C 91 % 1006,3 hPa 0,0 l/m 11,3 km/h (2 Bft) SW 225 0 min 0,0 UV-I 0 W/m 4,3 C 2,0 C 17,7 km/h (3 Bft)
02.05.2020 00:01 5,7 C 5,0 C 91 % 1006,3 hPa 0,0 l/m 11,3 km/h (2 Bft) S-SW 202 0 min 0,0 UV-I 0 W/m 4,3 C 2,0 C 14,5 km/h (3 Bft)
02.05.2020 00:02 5,7 C 5,0 C 91 % 1006,3 hPa 0,0 l/m 8,0 km/h (2 Bft) SW 225 0 min 0,0 UV-I 0 W/m 4,3 C 4,3 C 11,3 km/h (2 Bft)
02.05.2020 00:03 5,7 C 5,0 C 91 % 1006,4 hPa 0,0 l/m 8,0 km/h (2 Bft) SW 225 0 min 0,0 UV-I 0 W/m 4,3 C 4,3 C 11,3 km/h (2 Bft)
02.05.2020 00:04 5,7 C 5,0 C 91 % 1006,4 hPa 0,0 l/m 6,4 km/h (2 Bft) SW 225 0 min 0,0 UV-I 0 W/m 4,3 C 5,7 C 12,9 km/h (3 Bft)
02.05.2020 00:05 5,7 C 5,0 C 91 % 1006,4 hPa 0,0 l/m 9,7 km/h (2 Bft) S-SW 202 0 min 0,0 UV-I 0 W/m 4,3 C 3,1 C 12,9 km/h (3 Bft)
02.05.2020 00:06 5,7 C 5,0 C 91 % 1006,3 hPa 0,0 l/m 8,0 km/h (2 Bft) SW 225 0 min 0,0 UV-I 0 W/m 4,3 C 4,3 C 11,3 km/h (2 Bft)
02.05.2020 00:07 5,7 C 5,0 C 91 % 1006,3 hPa 0,0 l/m 6,4 km/h (2 Bft) SW 225 0 min 0,0 UV-I 0 W/m 4,3 C 5,7 C 11,3 km/h (2 Bft)
02.05.2020 00:08 5,7 C 5,0 C 91 % 1006,3 hPa 0,0 l/m 8,0 km/h (2 Bft) S-SW 202 0 min 0,0 UV-I 0 W/m 4,3 C 4,3 C 11,3 km/h (2 Bft)
02.05.2020 00:09 5,7 C 5,0 C 91 % 1006,3 hPa 0,0 l/m 6,4 km/h (2 Bft) SW 225 0 min 0,0 UV-I 0 W/m 4,3 C 5,7 C 11,3 km/h (2 Bft)
02.05.2020 00:10 5,8 C 5,0 C 91 % 1006,4 hPa 0,0 l/m 8,0 km/h (2 Bft) S-SW 202 0 min 0,0 UV-I 0 W/m 4,4 C 4,4 C 11,3 km/h (2 Bft)
02.05.2020 00:11 5,8 C 5,0 C 92 % 1006,4 hPa 0,0 l/m 9,7 km/h (2 Bft) S-SW 202 0 min 0,0 UV-I 0 W/m 4,6 C 3,2 C 12,9 km/h (3 Bft)
02.05.2020 00:12 5,8 C 5,0 C 92 % 1006,4 hPa 0,0 l/m 9,7 km/h (2 Bft) SW 225 0 min 0,0 UV-I 0 W/m 4,6 C 3,2 C 14,5 km/h (3 Bft)
02.05.2020 00:13 5,8 C 5,0 C 92 % 1006,4 hPa 0,0 l/m 11,3 km/h (2 Bft) S-SW 202 0 min 0,0 UV-I 0 W/m 4,6 C 2,1 C 14,5 km/h (3 Bft)
02.05.2020 00:14 5,8 C 5,0 C 92 % 1006,4 hPa 0,0 l/m 6,4 km/h (2 Bft) SW 225 0 min 0,0 UV-I 0 W/m 4,6 C 5,8 C 9,7 km/h (2 Bft)
02.05.2020 00:15 5,8 C 5,0 C 92 % 1006,5 hPa 0,0 l/m 6,4 km/h (2 Bft) SW 225 0 min 0,0 UV-I 0 W/m 4,6 C 5,8 C 9,7 km/h (2 Bft)
02.05.2020 00:16 5,8 C 5,0 C 92 % 1006,5 hPa 0,0 l/m 8,0 km/h (2 Bft) SW 225 0 min 0,0 UV-I 0 W/m 4,6 C 4,4 C 11,3 km/h (2 Bft)
02.05.2020 00:17 5,8 C 5,0 C 92 % 1006,4 hPa 0,0 l/m 8,0 km/h (2 Bft) S-SW 202 0 min 0,0 UV-I 0 W/m 4,6 C 4,4 C 9,7 km/h (2 Bft)
02.05.2020 00:18 5,8 C 5,0 C 92 % 1006,4 hPa 0,0 l/m 6,4 km/h (2 Bft) SW 225 0 min 0,0 UV-I 0 W/m 4,6 C 5,8 C 8,0 km/h (2 Bft)
02.05.2020 00:19 5,8 C 5,0 C 92 % 1006,6 hPa 0,0 l/m 8,0 km/h (2 Bft) S-SW 202 0 min 0,0 UV-I 0 W/m 4,6 C 4,4 C 9,7 km/h (2 Bft)
02.05.2020 00:20 5,8 C 5,0 C 92 % 1006,5 hPa 0,0 l/m 8,0 km/h (2 Bft) SW 225 0 min 0,0 UV-I 0 W/m 4,6 C 4,4 C 11,3 km/h (2 Bft)
02.05.2020 00:21 5,8 C 5,6 C 92 % 1006,5 hPa 0,0 l/m 6,4 km/h (2 Bft) SW 225 0 min 0,0 UV-I 0 W/m 4,6 C 5,8 C 11,3 km/h (2 Bft)
02.05.2020 00:22 5,9 C 5,6 C 92 % 1006,5 hPa 0,0 l/m 8,0 km/h (2 Bft) SW 225 0 min 0,0 UV-I 0 W/m 4,7 C 4,5 C 14,5 km/h (3 Bft)
02.05.2020 00:23 5,8 C 5,6 C 92 % 1006,6 hPa 0,0 l/m 6,4 km/h (2 Bft) SW 225 0 min 0,0 UV-I 0 W/m 4,6 C 5,8 C 12,9 km/h (3 Bft)
02.05.2020 00:24 5,9 C 5,6 C 92 % 1006,6 hPa 0,0 l/m 8,0 km/h (2 Bft) SW 225 0 min 0,0 UV-I 0 W/m 4,7 C 4,5 C 14,5 km/h (3 Bft)
02.05.2020 00:25 5,9 C 5,6 C 92 % 1006,6 hPa 0,0 l/m 8,0 km/h (2 Bft) SW 225 0 min 0,0 UV-I 0 W/m 4,7 C 4,5 C 9,7 km/h (2 Bft)
02.05.2020 00:26 5,9 C 5,6 C 92 % 1006,6 hPa 0,0 l/m 8,0 km/h (2 Bft) SW 225 0 min 0,0 UV-I 0 W/m 4,7 C 4,5 C 12,9 km/h (3 Bft)
02.05.2020 00:27 5,9 C 5,6 C 92 % 1006,6 hPa 0,0 l/m 11,3 km/h (2 Bft) SW 225 0 min 0,0 UV-I 0 W/m 4,7 C 2,2 C 16,1 km/h (3 Bft)
02.05.2020 00:28 5,9 C 5,6 C 92 % 1006,6 hPa 0,0 l/m 9,7 km/h (2 Bft) S-SW 202 0 min 0,0 UV-I 0 W/m 4,7 C 3,3 C 17,7 km/h (3 Bft)
02.05.2020 00:29 6,0 C 5,6 C 92 % 1006,6 hPa 0,0 l/m 11,3 km/h (2 Bft) SW 225 0 min 0,0 UV-I 0 W/m 4,8 C 2,3 C 17,7 km/h (3 Bft)
02.05.2020 00:30 6,0 C 5,6 C 92 % 1006,6 hPa 0,0 l/m 12,9 km/h (3 Bft) SW 225 0 min 0,0 UV-I 0 W/m 4,8 C 1,4 C 19,3 km/h (3 Bft)
02.05.2020 00:31 6,0 C 5,6 C 92 % 1006,7 hPa 0,0 l/m 11,3 km/h (2 Bft) W-SW 247 0 min 0,0 UV-I 0 W/m 4,8 C 2,3 C 19,3 km/h (3 Bft)
02.05.2020 00:32 6,1 C 5,6 C 92 % 1006,6 hPa 0,0 l/m 9,7 km/h (2 Bft) SW 225 0 min 0,0 UV-I 0 W/m 4,9 C 3,5 C 14,5 km/h (3 Bft)
02.05.2020 00:33 6,0 C 5,6 C 92 % 1006,7 hPa 0,0 l/m 9,7 km/h (2 Bft) S-SW 202 0 min 0,0 UV-I 0 W/m 4,8 C 3,4 C 12,9 km/h (3 Bft)
02.05.2020 00:34 6,1 C 5,6 C 92 % 1006,7 hPa 0,0 l/m 11,3 km/h (2 Bft) S-SW 202 0 min 0,0 UV-I 0 W/m 4,9 C 2,4 C 17,7 km/h (3 Bft)
02.05.2020 00:35 6,0 C 5,6 C 92 % 1006,6 hPa 0,0 l/m 9,7 km/h (2 Bft) SW 225 0 min 0,0 UV-I 0 W/m 4,8 C 3,4 C 17,7 km/h (3 Bft)
02.05.2020 00:36 6,1 C 5,6 C 92 % 1006,6 hPa 0,0 l/m 9,7 km/h (2 Bft) S-SW 202 0 min 0,0 UV-I 0 W/m 4,9 C 3,5 C 14,5 km/h (3 Bft)
02.05.2020 00:37 6,1 C 5,6 C 92 % 1006,6 hPa 0,0 l/m 9,7 km/h (2 Bft) S-SW 202 0 min 0,0 UV-I 0 W/m 4,9 C 3,5 C 12,9 km/h (3 Bft)
02.05.2020 00:38 6,1 C 5,6 C 92 % 1006,7 hPa 0,0 l/m 11,3 km/h (2 Bft) SW 225 0 min 0,0 UV-I 0 W/m 4,9 C 2,4 C 16,1 km/h (3 Bft)
02.05.2020 00:39 6,1 C 5,6 C 92 % 1006,6 hPa 0,0 l/m 11,3 km/h (2 Bft) S-SW 202 0 min 0,0 UV-I 0 W/m 4,9 C 2,4 C 17,7 km/h (3 Bft)
02.05.2020 00:40 6,1 C 5,6 C 92 % 1006,7 hPa 0,0 l/m 11,3 km/h (2 Bft) S-SW 202 0 min 0,0 UV-I 0 W/m 4,9 C 2,4 C 20,9 km/h (4 Bft)
02.05.2020 00:41 6,1 C 5,6 C 92 % 1006,6 hPa 0,0 l/m 11,3 km/h (2 Bft) SW 225 0 min 0,0 UV-I 0 W/m 4,9 C 2,4 C 17,7 km/h (3 Bft)
02.05.2020 00:42 6,1 C 5,6 C 92 % 1006,7 hPa 0,0 l/m 9,7 km/h (2 Bft) SW 225 0 min 0,0 UV-I 0 W/m 4,9 C 3,5 C 16,1 km/h (3 Bft)
02.05.2020 00:43 6,1 C 5,6 C 92 % 1006,6 hPa 0,0 l/m 9,7 km/h (2 Bft) S-SW 202 0 min 0,0 UV-I 0 W/m 4,9 C 3,5 C 16,1 km/h (3 Bft)
02.05.2020 00:44 6,1 C 5,6 C 92 % 1006,7 hPa 0,0 l/m 8,0 km/h (2 Bft) SW 225 0 min 0,0 UV-I 0 W/m 4,9 C 4,8 C 11,3 km/h (2 Bft)
02.05.2020 00:45 6,1 C 5,6 C 92 % 1006,7 hPa 0,0 l/m 6,4 km/h (2 Bft) SW 225 0 min 0,0 UV-I 0 W/m 4,9 C 6,1 C 12,9 km/h (3 Bft)
02.05.2020 00:46 6,1 C 5,6 C 92 % 1006,7 hPa 0,0 l/m 12,9 km/h (3 Bft) SW 225 0 min 0,0 UV-I 0 W/m 4,9 C 1,5 C 22,5 km/h (4 Bft)
02.05.2020 00:47 6,1 C 5,6 C 92 % 1006,7 hPa 0,0 l/m 8,0 km/h (2 Bft) S-SW 202 0 min 0,0 UV-I 0 W/m 4,9 C 4,8 C 22,5 km/h (4 Bft)
02.05.2020 00:48 6,2 C 5,6 C 91 % 1006,6 hPa 0,0 l/m 14,5 km/h (3 Bft) SW 225 0 min 0,0 UV-I 0 W/m 4,8 C 0,8 C 25,7 km/h (4 Bft)
02.05.2020 00:49 6,2 C 5,6 C 91 % 1006,7 hPa 0,0 l/m 12,9 km/h (3 Bft) SW 225 0 min 0,0 UV-I 0 W/m 4,8 C 1,6 C 25,7 km/h (4 Bft)
02.05.2020 00:50 6,2 C 5,6 C 92 % 1006,7 hPa 0,0 l/m 11,3 km/h (2 Bft) SW 225 0 min 0,0 UV-I 0 W/m 5,0 C 2,6 C 17,7 km/h (3 Bft)
02.05.2020 00:51 6,2 C 5,6 C 92 % 1006,7 hPa 0,0 l/m 9,7 km/h (2 Bft) S-SW 202 0 min 0,0 UV-I 0 W/m 5,0 C 3,6 C 12,9 km/h (3 Bft)
02.05.2020 00:52 6,2 C 5,6 C 91 % 1006,8 hPa 0,0 l/m 11,3 km/h (2 Bft) S-SW 202 0 min 0,0 UV-I 0 W/m 4,8 C 2,6 C 16,1 km/h (3 Bft)
02.05.2020 00:53 6,2 C 5,6 C 91 % 1006,8 hPa 0,0 l/m 9,7 km/h (2 Bft) SW 225 0 min 0,0 UV-I 0 W/m 4,8 C 3,6 C 12,9 km/h (3 Bft)
02.05.2020 00:54 6,2 C 5,6 C 91 % 1006,7 hPa 0,0 l/m 9,7 km/h (2 Bft) S-SW 202 0 min 0,0 UV-I 0 W/m 4,8 C 3,6 C 16,1 km/h (3 Bft)
02.05.2020 00:55 6,2 C 5,6 C 91 % 1006,7 hPa 0,0 l/m 12,9 km/h (3 Bft) S-SW 202 0 min 0,0 UV-I 0 W/m 4,8 C 1,6 C 22,5 km/h (4 Bft)
02.05.2020 00:56 6,2 C 5,6 C 91 % 1006,7 hPa 0,0 l/m 12,9 km/h (3 Bft) SW 225 0 min 0,0 UV-I 0 W/m 4,8 C 1,6 C 19,3 km/h (3 Bft)
02.05.2020 00:57 6,2 C 5,6 C 91 % 1006,8 hPa 0,0 l/m 11,3 km/h (2 Bft) SW 225 0 min 0,0 UV-I 0 W/m 4,8 C 2,6 C 16,1 km/h (3 Bft)
02.05.2020 00:58 6,2 C 5,6 C 91 % 1006,8 hPa 0,0 l/m 11,3 km/h (2 Bft) SW 225 0 min 0,0 UV-I 0 W/m 4,8 C 2,6 C 17,7 km/h (3 Bft)
02.05.2020 00:59 6,2 C 5,6 C 91 % 1006,9 hPa 0,0 l/m 9,7 km/h (2 Bft) S-SW 202 0 min 0,0 UV-I 0 W/m 4,8 C 3,6 C 12,9 km/h (3 Bft)
02.05.2020 01:00 6,2 C 5,6 C 91 % 1006,8 hPa 0,0 l/m 11,3 km/h (2 Bft) SW 225 0 min 0,0 UV-I 0 W/m 4,8 C 2,6 C 14,5 km/h (3 Bft)
02.05.2020 01:01 6,2 C 5,6 C 91 % 1006,8 hPa 0,0 l/m 11,3 km/h (2 Bft) SW 225 0 min 0,0 UV-I 0 W/m 4,8 C 2,6 C 16,1 km/h (3 Bft)
02.05.2020 01:02 6,2 C 5,6 C 91 % 1006,9 hPa 0,0 l/m 9,7 km/h (2 Bft) SW 225 0 min 0,0 UV-I 0 W/m 4,8 C 3,6 C 12,9 km/h (3 Bft)
02.05.2020 01:03 6,2 C 5,6 C 91 % 1006,8 hPa 0,0 l/m 11,3 km/h (2 Bft) SW 225 0 min 0,0 UV-I 0 W/m 4,8 C 2,6 C 14,5 km/h (3 Bft)
02.05.2020 01:04 6,2 C 5,6 C 91 % 1006,9 hPa 0,0 l/m 8,0 km/h (2 Bft) SW 225 0 min 0,0 UV-I 0 W/m 4,8 C 4,9 C 12,9 km/h (3 Bft)
02.05.2020 01:05 6,2 C 5,6 C 91 % 1006,9 hPa 0,0 l/m 11,3 km/h (2 Bft) SW 225 0 min 0,0 UV-I 0 W/m 4,8 C 2,6 C 14,5 km/h (3 Bft)
02.05.2020 01:06 6,2 C 5,6 C 91 % 1006,9 hPa 0,0 l/m 12,9 km/h (3 Bft) SW 225 0 min 0,0 UV-I 0 W/m 4,8 C 1,6 C 17,7 km/h (3 Bft)
02.05.2020 01:07 6,2 C 5,6 C 91 % 1007,0 hPa 0,0 l/m 12,9 km/h (3 Bft) SW 225 0 min 0,0 UV-I 0 W/m 4,8 C 1,6 C 17,7 km/h (3 Bft)
02.05.2020 01:08 6,2 C 5,6 C 91 % 1006,9 hPa 0,0 l/m 14,5 km/h (3 Bft) SW 225 0 min 0,0 UV-I 0 W/m 4,8 C 0,8 C 17,7 km/h (3 Bft)
02.05.2020 01:09 6,2 C 5,6 C 91 % 1006,9 hPa 0,0 l/m 14,5 km/h (3 Bft) S-SW 202 0 min 0,0 UV-I 0 W/m 4,8 C 0,8 C 20,9 km/h (4 Bft)
02.05.2020 01:10 6,2 C 5,6 C 91 % 1007,0 hPa 0,0 l/m 14,5 km/h (3 Bft) SW 225 0 min 0,0 UV-I 0 W/m 4,8 C 0,8 C 22,5 km/h (4 Bft)
02.05.2020 01:11 6,2 C 5,6 C 91 % 1007,0 hPa 0,0 l/m 19,3 km/h (3 Bft) SW 225 0 min 0,0 UV-I 0 W/m 4,8 C -1,4 C 27,4 km/h (4 Bft)
02.05.2020 01:12 6,2 C 5,6 C 91 % 1006,9 hPa 0,0 l/m 12,9 km/h (3 Bft) S-SW 202 0 min 0,0 UV-I 0 W/m 4,8 C 1,6 C 27,4 km/h (4 Bft)
02.05.2020 01:13 6,3 C 5,6 C 91 % 1006,9 hPa 0,0 l/m 12,9 km/h (3 Bft) SW 225 0 min 0,0 UV-I 0 W/m 4,9 C 1,7 C 20,9 km/h (4 Bft)
02.05.2020 01:14 6,3 C 5,6 C 91 % 1007,0 hPa 0,0 l/m 12,9 km/h (3 Bft) SW 225 0 min 0,0 UV-I 0 W/m 4,9 C 1,7 C 16,1 km/h (3 Bft)
02.05.2020 01:15 6,3 C 5,6 C 91 % 1007,0 hPa 0,0 l/m 9,7 km/h (2 Bft) S-SW 202 0 min 0,0 UV-I 0 W/m 4,9 C 3,7 C 14,5 km/h (3 Bft)
02.05.2020 01:16 6,3 C 5,6 C 91 % 1007,0 hPa 0,0 l/m 11,3 km/h (2 Bft) S-SW 202 0 min 0,0 UV-I 0 W/m 4,9 C 2,7 C 14,5 km/h (3 Bft)
02.05.2020 01:17 6,3 C 5,6 C 91 % 1007,0 hPa 0,0 l/m 11,3 km/h (2 Bft) SW 225 0 min 0,0 UV-I 0 W/m 4,9 C 2,7 C 16,1 km/h (3 Bft)
02.05.2020 01:18 6,3 C 5,6 C 91 % 1007,0 hPa 0,0 l/m 14,5 km/h (3 Bft) S-SW 202 0 min 0,0 UV-I 0 W/m 4,9 C 0,9 C 20,9 km/h (4 Bft)
02.05.2020 01:19 6,3 C 5,6 C 91 % 1006,9 hPa 0,0 l/m 11,3 km/h (2 Bft) S-SW 202 0 min 0,0 UV-I 0 W/m 4,9 C 2,7 C 12,9 km/h (3 Bft)
02.05.2020 01:20 6,3 C 5,6 C 91 % 1006,9 hPa 0,0 l/m 9,7 km/h (2 Bft) S-SW 202 0 min 0,0 UV-I 0 W/m 4,9 C 3,7 C 14,5 km/h (3 Bft)
02.05.2020 01:21 6,3 C 5,6 C 91 % 1006,9 hPa 0,0 l/m 12,9 km/h (3 Bft) S-SW 202 0 min 0,0 UV-I 0 W/m 4,9 C 1,7 C 17,7 km/h (3 Bft)
02.05.2020 01:22 6,3 C 5,6 C 91 % 1006,9 hPa 0,0 l/m 17,7 km/h (3 Bft) SW 225 0 min 0,0 UV-I 0 W/m 4,9 C -0,6 C 22,5 km/h (4 Bft)
02.05.2020 01:23 6,3 C 5,6 C 91 % 1006,9 hPa 0,0 l/m 14,5 km/h (3 Bft) S-SW 202 0 min 0,0 UV-I 0 W/m 4,9 C 0,9 C 17,7 km/h (3 Bft)
02.05.2020 01:24 6,3 C 5,6 C 91 % 1007,0 hPa 0,0 l/m 12,9 km/h (3 Bft) S-SW 202 0 min 0,0 UV-I 0 W/m 4,9 C 1,7 C 16,1 km/h (3 Bft)
02.05.2020 01:25 6,3 C 5,6 C 91 % 1006,9 hPa 0,0 l/m 12,9 km/h (3 Bft) S-SW 202 0 min 0,0 UV-I 0 W/m 4,9 C 1,7 C 19,3 km/h (3 Bft)
02.05.2020 01:26 6,3 C 5,6 C 91 % 1006,9 hPa 0,0 l/m 12,9 km/h (3 Bft) SW 225 0 min 0,0 UV-I 0 W/m 4,9 C 1,7 C 19,3 km/h (3 Bft)
02.05.2020 01:27 6,3 C 5,6 C 91 % 1006,9 hPa 0,0 l/m 16,1 km/h (3 Bft) SW 225 0 min 0,0 UV-I 0 W/m 4,9 C 0,1 C 20,9 km/h (4 Bft)
02.05.2020 01:28 6,3 C 5,6 C 91 % 1006,9 hPa 0,0 l/m 11,3 km/h (2 Bft) SW 225 0 min 0,0 UV-I 0 W/m 4,9 C 2,7 C 16,1 km/h (3 Bft)
02.05.2020 01:29 6,3 C 5,6 C 91 % 1006,9 hPa 0,0 l/m 9,7 km/h (2 Bft) SW 225 0 min 0,0 UV-I 0 W/m 4,9 C 3,7 C 12,9 km/h (3 Bft)
02.05.2020 01:30 6,3 C 5,6 C 91 % 1007,0 hPa 0,0 l/m 11,3 km/h (2 Bft) SW 225 0 min 0,0 UV-I 0 W/m 4,9 C 2,7 C 14,5 km/h (3 Bft)
02.05.2020 01:31 6,3 C 5,6 C 91 % 1007,0 hPa 0,0 l/m 12,9 km/h (3 Bft) SW 225 0 min 0,0 UV-I 0 W/m 4,9 C 1,7 C 25,7 km/h (4 Bft)
02.05.2020 01:32 6,3 C 5,6 C 91 % 1006,9 hPa 0,0 l/m 9,7 km/h (2 Bft) SW 225 0 min 0,0 UV-I 0 W/m 4,9 C 3,7 C 17,7 km/h (3 Bft)
02.05.2020 01:33 6,3 C 5,6 C 91 % 1007,0 hPa 0,2 l/m 8,0 km/h (2 Bft) S-SW 202 0 min 0,0 UV-I 0 W/m 4,9 C 5,0 C 12,9 km/h (3 Bft)
02.05.2020 01:34 6,3 C 5,6 C 91 % 1007,1 hPa 0,0 l/m 6,4 km/h (2 Bft) W-SW 247 0 min 0,0 UV-I 0 W/m 4,9 C 6,3 C 12,9 km/h (3 Bft)
02.05.2020 01:35 6,3 C 5,6 C 91 % 1007,0 hPa 0,0 l/m 9,7 km/h (2 Bft) S-SW 202 0 min 0,0 UV-I 0 W/m 4,9 C 3,7 C 16,1 km/h (3 Bft)
02.05.2020 01:36 6,3 C 5,6 C 91 % 1007,0 hPa 0,0 l/m 9,7 km/h (2 Bft) SW 225 0 min 0,0 UV-I 0 W/m 4,9 C 3,7 C 19,3 km/h (3 Bft)
02.05.2020 01:37 6,3 C 5,6 C 91 % 1006,9 hPa 0,0 l/m 11,3 km/h (2 Bft) SW 225 0 min 0,0 UV-I 0 W/m 4,9 C 2,7 C 16,1 km/h (3 Bft)
02.05.2020 01:38 6,3 C 5,6 C 91 % 1007,0 hPa 0,0 l/m 11,3 km/h (2 Bft) SW 225 0 min 0,0 UV-I 0 W/m 4,9 C 2,7 C 17,7 km/h (3 Bft)
02.05.2020 01:39 6,3 C 5,6 C 91 % 1007,0 hPa 0,0 l/m 11,3 km/h (2 Bft) SW 225 0 min 0,0 UV-I 0 W/m 4,9 C 2,7 C 16,1 km/h (3 Bft)
02.05.2020 01:40 6,3 C 5,6 C 91 % 1006,9 hPa 0,0 l/m 8,0 km/h (2 Bft) SW 225 0 min 0,0 UV-I 0 W/m 4,9 C 5,0 C 17,7 km/h (3 Bft)
02.05.2020 01:41 6,3 C 5,6 C 91 % 1007,0 hPa 0,0 l/m 14,5 km/h (3 Bft) SW 225 0 min 0,0 UV-I 0 W/m 4,9 C 0,9 C 19,3 km/h (3 Bft)
02.05.2020 01:42 6,3 C 5,6 C 91 % 1007,0 hPa 0,2 l/m 9,7 km/h (2 Bft) SW 225 0 min 0,0 UV-I 0 W/m 4,9 C 3,7 C 14,5 km/h (3 Bft)
02.05.2020 01:43 6,3 C 5,6 C 91 % 1007,0 hPa 0,0 l/m 11,3 km/h (2 Bft) S-SW 202 0 min 0,0 UV-I 0 W/m 4,9 C 2,7 C 14,5 km/h (3 Bft)
02.05.2020 01:44 6,3 C 5,6 C 91 % 1007,0 hPa 0,0 l/m 8,0 km/h (2 Bft) SW 225 0 min 0,0 UV-I 0 W/m 4,9 C 5,0 C 12,9 km/h (3 Bft)
02.05.2020 01:45 6,3 C 5,6 C 91 % 1007,0 hPa 0,0 l/m 8,0 km/h (2 Bft) SW 225 0 min 0,0 UV-I 0 W/m 4,9 C 5,0 C 12,9 km/h (3 Bft)
02.05.2020 01:46 6,3 C 5,6 C 91 % 1007,0 hPa 0,0 l/m 8,0 km/h (2 Bft) SW 225 0 min 0,0 UV-I 0 W/m 4,9 C 5,0 C 14,5 km/h (3 Bft)
02.05.2020 01:47 6,3 C 5,6 C 91 % 1007,1 hPa 0,2 l/m 11,3 km/h (2 Bft) SW 225 0 min 0,0 UV-I 0 W/m 4,9 C 2,7 C 25,7 km/h (4 Bft)
02.05.2020 01:48 6,3 C 5,6 C 91 % 1007,1 hPa 0,2 l/m 14,5 km/h (3 Bft) W-SW 247 0 min 0,0 UV-I 0 W/m 4,9 C 0,9 C 24,1 km/h (4 Bft)
02.05.2020 01:49 6,3 C 5,6 C 91 % 1007,1 hPa 0,2 l/m 14,5 km/h (3 Bft) SW 225 0 min 0,0 UV-I 0 W/m 4,9 C 0,9 C 20,9 km/h (4 Bft)
02.05.2020 01:50 6,2 C 5,6 C 91 % 1007,1 hPa 0,2 l/m 19,3 km/h (3 Bft) SW 225 0 min 0,0 UV-I 0 W/m 4,8 C -1,4 C 25,7 km/h (4 Bft)
02.05.2020 01:51 6,2 C 5,0 C 91 % 1007,2 hPa 0,4 l/m 19,3 km/h (3 Bft) W-SW 247 0 min 0,0 UV-I 0 W/m 4,8 C -1,4 C 29,0 km/h (5 Bft)
02.05.2020 01:52 6,1 C 5,0 C 91 % 1007,2 hPa 0,4 l/m 14,5 km/h (3 Bft) W 270 0 min 0,0 UV-I 0 W/m 4,7 C 0,7 C 29,0 km/h (5 Bft)
02.05.2020 01:53 6,1 C 4,4 C 90 % 1007,1 hPa 0,2 l/m 9,7 km/h (2 Bft) W-SW 247 0 min 0,0 UV-I 0 W/m 4,6 C 3,5 C 14,5 km/h (3 Bft)
02.05.2020 01:54 6,1 C 5,0 C 91 % 1007,1 hPa 0,0 l/m 11,3 km/h (2 Bft) W-SW 247 0 min 0,0 UV-I 0 W/m 4,7 C 2,4 C 16,1 km/h (3 Bft)
02.05.2020 01:55 5,9 C 5,0 C 91 % 1007,3 hPa 0,2 l/m 14,5 km/h (3 Bft) W-SW 247 0 min 0,0 UV-I 0 W/m 4,5 C 0,4 C 17,7 km/h (3 Bft)
02.05.2020 01:56 5,9 C 5,0 C 91 % 1007,2 hPa 0,2 l/m 12,9 km/h (3 Bft) W-SW 247 0 min 0,0 UV-I 0 W/m 4,5 C 1,3 C 17,7 km/h (3 Bft)
02.05.2020 01:57 5,9 C 5,0 C 91 % 1007,3 hPa 0,0 l/m 8,0 km/h (2 Bft) W 270 0 min 0,0 UV-I 0 W/m 4,5 C 4,5 C 16,1 km/h (3 Bft)
02.05.2020 01:58 5,9 C 5,0 C 91 % 1007,3 hPa 0,0 l/m 8,0 km/h (2 Bft) W-SW 247 0 min 0,0 UV-I 0 W/m 4,5 C 4,5 C 16,1 km/h (3 Bft)
02.05.2020 01:59 5,9 C 5,0 C 91 % 1007,2 hPa 0,2 l/m 11,3 km/h (2 Bft) W-SW 247 0 min 0,0 UV-I 0 W/m 4,5 C 2,2 C 16,1 km/h (3 Bft)
02.05.2020 02:00 5,9 C 5,0 C 91 % 1007,3 hPa 0,0 l/m 9,7 km/h (2 Bft) SW 225 0 min 0,0 UV-I 0 W/m 4,5 C 3,3 C 14,5 km/h (3 Bft)
02.05.2020 02:01 5,9 C 5,0 C 91 % 1007,3 hPa 0,0 l/m 9,7 km/h (2 Bft) SW 225 0 min 0,0 UV-I 0 W/m 4,5 C 3,3 C 14,5 km/h (3 Bft)
02.05.2020 02:02 5,9 C 5,0 C 92 % 1007,2 hPa 0,0 l/m 9,7 km/h (2 Bft) S-SW 202 0 min 0,0 UV-I 0 W/m 4,7 C 3,3 C 16,1 km/h (3 Bft)
02.05.2020 02:03 5,9 C 5,0 C 92 % 1007,2 hPa 0,0 l/m 6,4 km/h (2 Bft) W-SW 247 0 min 0,0 UV-I 0 W/m 4,7 C 5,9 C 9,7 km/h (2 Bft)
02.05.2020 02:04 6,0 C 5,0 C 92 % 1007,2 hPa 0,0 l/m 9,7 km/h (2 Bft) SW 225 0 min 0,0 UV-I 0 W/m 4,8 C 3,4 C 17,7 km/h (3 Bft)
02.05.2020 02:05 6,0 C 5,0 C 92 % 1007,3 hPa 0,0 l/m 8,0 km/h (2 Bft) W-SW 247 0 min 0,0 UV-I 0 W/m 4,8 C 4,7 C 20,9 km/h (4 Bft)
02.05.2020 02:06 6,0 C 5,0 C 92 % 1007,3 hPa 0,0 l/m 11,3 km/h (2 Bft) SW 225 0 min 0,0 UV-I 0 W/m 4,8 C 2,3 C 19,3 km/h (3 Bft)
02.05.2020 02:07 6,0 C 5,0 C 92 % 1007,2 hPa 0,0 l/m 11,3 km/h (2 Bft) W-SW 247 0 min 0,0 UV-I 0 W/m 4,8 C 2,3 C 16,1 km/h (3 Bft)
02.05.2020 02:08 6,1 C 5,0 C 92 % 1007,2 hPa 0,0 l/m 8,0 km/h (2 Bft) SW 225 0 min 0,0 UV-I 0 W/m 4,9 C 4,8 C 17,7 km/h (3 Bft)
02.05.2020 02:09 6,1 C 5,6 C 92 % 1007,1 hPa 0,0 l/m 16,1 km/h (3 Bft) W-SW 247 0 min 0,0 UV-I 0 W/m 4,9 C -0,1 C 24,1 km/h (4 Bft)
02.05.2020 02:10 6,1 C 5,6 C 92 % 1007,2 hPa 0,0 l/m 16,1 km/h (3 Bft) SW 225 0 min 0,0 UV-I 0 W/m 4,9 C -0,1 C 22,5 km/h (4 Bft)
02.05.2020 02:11 6,1 C 5,6 C 92 % 1007,1 hPa 0,0 l/m 12,9 km/h (3 Bft) W-SW 247 0 min 0,0 UV-I 0 W/m 4,9 C 1,5 C 19,3 km/h (3 Bft)
02.05.2020 02:12 6,1 C 5,6 C 92 % 1007,1 hPa 0,0 l/m 16,1 km/h (3 Bft) W-SW 247 0 min 0,0 UV-I 0 W/m 4,9 C -0,1 C 29,0 km/h (5 Bft)
02.05.2020 02:13 6,1 C 5,6 C 92 % 1007,2 hPa 0,0 l/m 17,7 km/h (3 Bft) W-SW 247 0 min 0,0 UV-I 0 W/m 4,9 C -0,8 C 24,1 km/h (4 Bft)
02.05.2020 02:14 6,1 C 5,6 C 91 % 1007,2 hPa 0,0 l/m 14,5 km/h (3 Bft) W-SW 247 0 min 0,0 UV-I 0 W/m 4,7 C 0,7 C 17,7 km/h (3 Bft)
02.05.2020 02:15 6,1 C 5,6 C 91 % 1007,2 hPa 0,0 l/m 12,9 km/h (3 Bft) SW 225 0 min 0,0 UV-I 0 W/m 4,7 C 1,5 C 20,9 km/h (4 Bft)
02.05.2020 02:16 6,1 C 5,6 C 92 % 1007,1 hPa 0,0 l/m 9,7 km/h (2 Bft) SW 225 0 min 0,0 UV-I 0 W/m 4,9 C 3,5 C 17,7 km/h (3 Bft)
02.05.2020 02:17 6,1 C 5,6 C 91 % 1007,2 hPa 0,0 l/m 14,5 km/h (3 Bft) W-SW 247 0 min 0,0 UV-I 0 W/m 4,7 C 0,7 C 22,5 km/h (4 Bft)
02.05.2020 02:18 6,2 C 5,6 C 91 % 1007,1 hPa 0,0 l/m 12,9 km/h (3 Bft) W-SW 247 0 min 0,0 UV-I 0 W/m 4,8 C 1,6 C 19,3 km/h (3 Bft)
02.05.2020 02:19 6,2 C 5,6 C 91 % 1007,2 hPa 0,0 l/m 11,3 km/h (2 Bft) W-SW 247 0 min 0,0 UV-I 0 W/m 4,8 C 2,6 C 16,1 km/h (3 Bft)
02.05.2020 02:20 6,2 C 5,6 C 91 % 1007,1 hPa 0,0 l/m 11,3 km/h (2 Bft) SW 225 0 min 0,0 UV-I 0 W/m 4,8 C 2,6 C 17,7 km/h (3 Bft)
02.05.2020 02:21 6,2 C 5,6 C 91 % 1007,1 hPa 0,0 l/m 6,4 km/h (2 Bft) S-SW 202 0 min 0,0 UV-I 0 W/m 4,8 C 6,2 C 11,3 km/h (2 Bft)
02.05.2020 02:22 6,2 C 5,6 C 91 % 1007,2 hPa 0,0 l/m 8,0 km/h (2 Bft) SW 225 0 min 0,0 UV-I 0 W/m 4,8 C 4,9 C 11,3 km/h (2 Bft)
02.05.2020 02:23 6,2 C 5,6 C 92 % 1007,1 hPa 0,0 l/m 9,7 km/h (2 Bft) SW 225 0 min 0,0 UV-I 0 W/m 5,0 C 3,6 C 14,5 km/h (3 Bft)
02.05.2020 02:24 6,2 C 5,6 C 92 % 1007,2 hPa 0,0 l/m 6,4 km/h (2 Bft) S-SW 202 0 min 0,0 UV-I 0 W/m 5,0 C 6,2 C 11,3 km/h (2 Bft)
02.05.2020 02:25 6,1 C 5,6 C 92 % 1007,1 hPa 0,0 l/m 11,3 km/h (2 Bft) SW 225 0 min 0,0 UV-I 0 W/m 4,9 C 2,4 C 16,1 km/h (3 Bft)
02.05.2020 02:26 6,1 C 5,6 C 91 % 1007,2 hPa 0,0 l/m 8,0 km/h (2 Bft) SW 225 0 min 0,0 UV-I 0 W/m 4,7 C 4,8 C 14,5 km/h (3 Bft)
02.05.2020 02:27 6,1 C 5,6 C 92 % 1007,2 hPa 0,0 l/m 6,4 km/h (2 Bft) W-SW 247 0 min 0,0 UV-I 0 W/m 4,9 C 6,1 C 11,3 km/h (2 Bft)
02.05.2020 02:28 6,1 C 5,6 C 92 % 1007,2 hPa 0,0 l/m 9,7 km/h (2 Bft) W-SW 247 0 min 0,0 UV-I 0 W/m 4,9 C 3,5 C 14,5 km/h (3 Bft)
02.05.2020 02:29 6,1 C 5,6 C 92 % 1007,2 hPa 0,0 l/m 9,7 km/h (2 Bft) W 270 0 min 0,0 UV-I 0 W/m 4,9 C 3,5 C 14,5 km/h (3 Bft)
02.05.2020 02:30 6,1 C 5,6 C 92 % 1007,1 hPa 0,0 l/m 11,3 km/h (2 Bft) W-SW 247 0 min 0,0 UV-I 0 W/m 4,9 C 2,4 C 17,7 km/h (3 Bft)
02.05.2020 02:31 6,1 C 5,6 C 92 % 1007,2 hPa 0,0 l/m 12,9 km/h (3 Bft) SW 225 0 min 0,0 UV-I 0 W/m 4,9 C 1,5 C 19,3 km/h (3 Bft)
02.05.2020 02:32 6,1 C 5,6 C 92 % 1007,1 hPa 0,0 l/m 8,0 km/h (2 Bft) W-SW 247 0 min 0,0 UV-I 0 W/m 4,9 C 4,8 C 12,9 km/h (3 Bft)
02.05.2020 02:33 6,1 C 5,6 C 92 % 1007,2 hPa 0,0 l/m 9,7 km/h (2 Bft) SW 225 0 min 0,0 UV-I 0 W/m 4,9 C 3,5 C 12,9 km/h (3 Bft)
02.05.2020 02:34 6,2 C 5,6 C 92 % 1007,2 hPa 0,0 l/m 11,3 km/h (2 Bft) W-SW 247 0 min 0,0 UV-I 0 W/m 5,0 C 2,6 C 19,3 km/h (3 Bft)
02.05.2020 02:35 6,1 C 5,6 C 92 % 1007,1 hPa 0,0 l/m 12,9 km/h (3 Bft) SW 225 0 min 0,0 UV-I 0 W/m 4,9 C 1,5 C 17,7 km/h (3 Bft)
02.05.2020 02:36 6,1 C 5,6 C 92 % 1007,2 hPa 0,0 l/m 9,7 km/h (2 Bft) W-SW 247 0 min 0,0 UV-I 0 W/m 4,9 C 3,5 C 12,9 km/h (3 Bft)
02.05.2020 02:37 6,2 C 5,6 C 92 % 1007,1 hPa 0,0 l/m 8,0 km/h (2 Bft) W-SW 247 0 min 0,0 UV-I 0 W/m 5,0 C 4,9 C 12,9 km/h (3 Bft)
02.05.2020 02:38 6,2 C 5,6 C 92 % 1007,2 hPa 0,0 l/m 11,3 km/h (2 Bft) SW 225 0 min 0,0 UV-I 0 W/m 5,0 C 2,6 C 19,3 km/h (3 Bft)
02.05.2020 02:39 6,2 C 5,6 C 92 % 1007,2 hPa 0,0 l/m 11,3 km/h (2 Bft) S-SW 202 0 min 0,0 UV-I 0 W/m 5,0 C 2,6 C 20,9 km/h (4 Bft)
02.05.2020 02:40 6,2 C 5,6 C 92 % 1007,3 hPa 0,0 l/m 14,5 km/h (3 Bft) SW 225 0 min 0,0 UV-I 0 W/m 5,0 C 0,8 C 20,9 km/h (4 Bft)
02.05.2020 02:41 6,2 C 5,6 C 92 % 1007,2 hPa 0,0 l/m 16,1 km/h (3 Bft) SW 225 0 min 0,0 UV-I 0 W/m 5,0 C 0,0 C 22,5 km/h (4 Bft)
02.05.2020 02:42 6,2 C 5,6 C 92 % 1007,1 hPa 0,0 l/m 12,9 km/h (3 Bft) SW 225 0 min 0,0 UV-I 0 W/m 5,0 C 1,6 C 16,1 km/h (3 Bft)
02.05.2020 02:43 6,2 C 5,6 C 91 % 1007,2 hPa 0,0 l/m 12,9 km/h (3 Bft) SW 225 0 min 0,0 UV-I 0 W/m 4,8 C 1,6 C 17,7 km/h (3 Bft)
02.05.2020 02:44 6,2 C 5,6 C 91 % 1007,3 hPa 0,0 l/m 11,3 km/h (2 Bft) SW 225 0 min 0,0 UV-I 0 W/m 4,8 C 2,6 C 16,1 km/h (3 Bft)
02.05.2020 02:45 6,2 C 5,6 C 91 % 1007,3 hPa 0,0 l/m 12,9 km/h (3 Bft) W-SW 247 0 min 0,0 UV-I 0 W/m 4,8 C 1,6 C 22,5 km/h (4 Bft)
02.05.2020 02:46 6,2 C 5,6 C 91 % 1007,3 hPa 0,0 l/m 11,3 km/h (2 Bft) SW 225 0 min 0,0 UV-I 0 W/m 4,8 C 2,6 C 17,7 km/h (3 Bft)
02.05.2020 02:47 6,2 C 5,6 C 91 % 1007,2 hPa 0,0 l/m 11,3 km/h (2 Bft) SW 225 0 min 0,0 UV-I 0 W/m 4,8 C 2,6 C 17,7 km/h (3 Bft)
02.05.2020 02:48 6,2 C 5,6 C 91 % 1007,2 hPa 0,0 l/m 8,0 km/h (2 Bft) SW 225 0 min 0,0 UV-I 0 W/m 4,8 C 4,9 C 14,5 km/h (3 Bft)
02.05.2020 02:49 6,2 C 5,6 C 91 % 1007,3 hPa 0,0 l/m 9,7 km/h (2 Bft) S-SW 202 0 min 0,0 UV-I 0 W/m 4,8 C 3,6 C 14,5 km/h (3 Bft)
02.05.2020 02:50 6,2 C 5,6 C 91 % 1007,3 hPa 0,0 l/m 9,7 km/h (2 Bft) SW 225 0 min 0,0 UV-I 0 W/m 4,8 C 3,6 C 14,5 km/h (3 Bft)
02.05.2020 02:51 6,2 C 5,6 C 91 % 1007,2 hPa 0,0 l/m 14,5 km/h (3 Bft) SW 225 0 min 0,0 UV-I 0 W/m 4,8 C 0,8 C 24,1 km/h (4 Bft)
02.05.2020 02:52 6,2 C 5,6 C 91 % 1007,2 hPa 0,0 l/m 9,7 km/h (2 Bft) SW 225 0 min 0,0 UV-I 0 W/m 4,8 C 3,6 C 17,7 km/h (3 Bft)
02.05.2020 02:53 6,2 C 5,6 C 91 % 1007,2 hPa 0,0 l/m 9,7 km/h (2 Bft) W-SW 247 0 min 0,0 UV-I 0 W/m 4,8 C 3,6 C 20,9 km/h (4 Bft)
02.05.2020 02:54 6,2 C 5,6 C 91 % 1007,2 hPa 0,0 l/m 9,7 km/h (2 Bft) S-SW 202 0 min 0,0 UV-I 0 W/m 4,8 C 3,6 C 14,5 km/h (3 Bft)
02.05.2020 02:55 6,2 C 5,6 C 91 % 1007,3 hPa 0,0 l/m 6,4 km/h (2 Bft) SW 225 0 min 0,0 UV-I 0 W/m 4,8 C 6,2 C 12,9 km/h (3 Bft)
02.05.2020 02:56 6,2 C 5,6 C 91 % 1007,2 hPa 0,0 l/m 12,9 km/h (3 Bft) SW 225 0 min 0,0 UV-I 0 W/m 4,8 C 1,6 C 16,1 km/h (3 Bft)
02.05.2020 02:57 6,2 C 5,6 C 91 % 1007,2 hPa 0,0 l/m 11,3 km/h (2 Bft) SW 225 0 min 0,0 UV-I 0 W/m 4,8 C 2,6 C 17,7 km/h (3 Bft)
02.05.2020 02:58 6,2 C 5,6 C 91 % 1007,2 hPa 0,0 l/m 12,9 km/h (3 Bft) SW 225 0 min 0,0 UV-I 0 W/m 4,8 C 1,6 C 19,3 km/h (3 Bft)
02.05.2020 02:59 6,2 C 5,6 C 91 % 1007,2 hPa 0,0 l/m 9,7 km/h (2 Bft) SW 225 0 min 0,0 UV-I 0 W/m 4,8 C 3,6 C 16,1 km/h (3 Bft)
02.05.2020 03:00 6,2 C 5,6 C 91 % 1007,2 hPa 0,0 l/m 8,0 km/h (2 Bft) SW 225 0 min 0,0 UV-I 0 W/m 4,8 C 4,9 C 12,9 km/h (3 Bft)
02.05.2020 03:01 6,1 C 5,6 C 91 % 1007,2 hPa 0,0 l/m 9,7 km/h (2 Bft) SW 225 0 min 0,0 UV-I 0 W/m 4,7 C 3,5 C 12,9 km/h (3 Bft)
02.05.2020 03:02 6,2 C 5,6 C 91 % 1007,2 hPa 0,0 l/m 9,7 km/h (2 Bft) SW 225 0 min 0,0 UV-I 0 W/m 4,8 C 3,6 C 17,7 km/h (3 Bft)
02.05.2020 03:03 6,2 C 5,6 C 91 % 1007,3 hPa 0,0 l/m 14,5 km/h (3 Bft) SW 225 0 min 0,0 UV-I 0 W/m 4,8 C 0,8 C 19,3 km/h (3 Bft)
02.05.2020 03:04 6,2 C 5,6 C 91 % 1007,2 hPa 0,0 l/m 9,7 km/h (2 Bft) W-SW 247 0 min 0,0 UV-I 0 W/m 4,8 C 3,6 C 16,1 km/h (3 Bft)
02.05.2020 03:05 6,2 C 5,6 C 91 % 1007,3 hPa 0,0 l/m 8,0 km/h (2 Bft) SW 225 0 min 0,0 UV-I 0 W/m 4,8 C 4,9 C 11,3 km/h (2 Bft)
02.05.2020 03:06 6,2 C 5,6 C 91 % 1007,2 hPa 0,0 l/m 11,3 km/h (2 Bft) SW 225 0 min 0,0 UV-I 0 W/m 4,8 C 2,6 C 24,1 km/h (4 Bft)
02.05.2020 03:07 6,1 C 5,6 C 91 % 1007,3 hPa 0,0 l/m 12,9 km/h (3 Bft) S-SW 202 0 min 0,0 UV-I 0 W/m 4,7 C 1,5 C 20,9 km/h (4 Bft)
02.05.2020 03:08 6,1 C 5,6 C 91 % 1007,3 hPa 0,0 l/m 11,3 km/h (2 Bft) S-SW 202 0 min 0,0 UV-I 0 W/m 4,7 C 2,4 C 20,9 km/h (4 Bft)
02.05.2020 03:09 6,1 C 5,6 C 91 % 1007,3 hPa 0,0 l/m 8,0 km/h (2 Bft) SW 225 0 min 0,0 UV-I 0 W/m 4,7 C 4,8 C 14,5 km/h (3 Bft)
02.05.2020 03:10 6,2 C 5,6 C 91 % 1007,1 hPa 0,0 l/m 6,4 km/h (2 Bft) SW 225 0 min 0,0 UV-I 0 W/m 4,8 C 6,2 C 9,7 km/h (2 Bft)
02.05.2020 03:11 6,1 C 5,6 C 91 % 1007,3 hPa 0,0 l/m 9,7 km/h (2 Bft) S-SW 202 0 min 0,0 UV-I 0 W/m 4,7 C 3,5 C 17,7 km/h (3 Bft)
02.05.2020 03:12 6,1 C 5,6 C 91 % 1007,1 hPa 0,0 l/m 12,9 km/h (3 Bft) SW 225 0 min 0,0 UV-I 0 W/m 4,7 C 1,5 C 19,3 km/h (3 Bft)
02.05.2020 03:13 6,1 C 5,6 C 91 % 1007,2 hPa 0,0 l/m 11,3 km/h (2 Bft) W 270 0 min 0,0 UV-I 0 W/m 4,7 C 2,4 C 16,1 km/h (3 Bft)
02.05.2020 03:14 6,1 C 5,6 C 91 % 1007,3 hPa 0,0 l/m 8,0 km/h (2 Bft) SW 225 0 min 0,0 UV-I 0 W/m 4,7 C 4,8 C 12,9 km/h (3 Bft)
02.05.2020 03:15 6,1 C 5,6 C 91 % 1007,2 hPa 0,0 l/m 8,0 km/h (2 Bft) S-SW 202 0 min 0,0 UV-I 0 W/m 4,7 C 4,8 C 9,7 km/h (2 Bft)
02.05.2020 03:16 6,2 C 5,6 C 91 % 1007,3 hPa 0,0 l/m 9,7 km/h (2 Bft) SW 225 0 min 0,0 UV-I 0 W/m 4,8 C 3,6 C 19,3 km/h (3 Bft)
02.05.2020 03:17 6,2 C 5,6 C 91 % 1007,3 hPa 0,0 l/m 12,9 km/h (3 Bft) SW 225 0 min 0,0 UV-I 0 W/m 4,8 C 1,6 C 19,3 km/h (3 Bft)
02.05.2020 03:18 6,1 C 5,6 C 91 % 1007,4 hPa 0,0 l/m 8,0 km/h (2 Bft) W-SW 247 0 min 0,0 UV-I 0 W/m 4,7 C 4,8 C 12,9 km/h (3 Bft)
02.05.2020 03:19 6,1 C 5,6 C 91 % 1007,3 hPa 0,0 l/m 6,4 km/h (2 Bft) SW 225 0 min 0,0 UV-I 0 W/m 4,7 C 6,1 C 9,7 km/h (2 Bft)
02.05.2020 03:20 6,1 C 5,6 C 91 % 1007,4 hPa 0,0 l/m 8,0 km/h (2 Bft) SW 225 0 min 0,0 UV-I 0 W/m 4,7 C 4,8 C 11,3 km/h (2 Bft)
02.05.2020 03:21 6,1 C 5,6 C 91 % 1007,4 hPa 0,0 l/m 6,4 km/h (2 Bft) W-SW 247 0 min 0,0 UV-I 0 W/m 4,7 C 6,1 C 9,7 km/h (2 Bft)
02.05.2020 03:22 6,1 C 5,6 C 91 % 1007,4 hPa 0,0 l/m 6,4 km/h (2 Bft) SW 225 0 min 0,0 UV-I 0 W/m 4,7 C 6,1 C 9,7 km/h (2 Bft)
02.05.2020 03:23 6,1 C 5,6 C 91 % 1007,5 hPa 0,0 l/m 9,7 km/h (2 Bft) SW 225 0 min 0,0 UV-I 0 W/m 4,7 C 3,5 C 14,5 km/h (3 Bft)
02.05.2020 03:24 6,1 C 5,6 C 91 % 1007,5 hPa 0,0 l/m 11,3 km/h (2 Bft) SW 225 0 min 0,0 UV-I 0 W/m 4,7 C 2,4 C 17,7 km/h (3 Bft)
02.05.2020 03:25 6,1 C 5,6 C 91 % 1007,4 hPa 0,0 l/m 16,1 km/h (3 Bft) S-SW 202 0 min 0,0 UV-I 0 W/m 4,7 C -0,1 C 24,1 km/h (4 Bft)
02.05.2020 03:26 6,1 C 5,6 C 91 % 1007,4 hPa 0,0 l/m 9,7 km/h (2 Bft) W-SW 247 0 min 0,0 UV-I 0 W/m 4,7 C 3,5 C 14,5 km/h (3 Bft)
02.05.2020 03:27 6,1 C 5,6 C 91 % 1007,5 hPa 0,0 l/m 11,3 km/h (2 Bft) S-SW 202 0 min 0,0 UV-I 0 W/m 4,7 C 2,4 C 17,7 km/h (3 Bft)
02.05.2020 03:28 6,1 C 5,6 C 91 % 1007,5 hPa 0,0 l/m 8,0 km/h (2 Bft) SW 225 0 min 0,0 UV-I 0 W/m 4,7 C 4,8 C 14,5 km/h (3 Bft)
02.05.2020 03:29 6,1 C 5,6 C 91 % 1007,6 hPa 0,0 l/m 11,3 km/h (2 Bft) S-SW 202 0 min 0,0 UV-I 0 W/m 4,7 C 2,4 C 19,3 km/h (3 Bft)
02.05.2020 03:30 6,1 C 5,6 C 91 % 1007,6 hPa 0,0 l/m 12,9 km/h (3 Bft) SW 225 0 min 0,0 UV-I 0 W/m 4,7 C 1,5 C 16,1 km/h (3 Bft)
02.05.2020 03:31 6,1 C 5,6 C 91 % 1007,6 hPa 0,0 l/m 8,0 km/h (2 Bft) SW 225 0 min 0,0 UV-I 0 W/m 4,7 C 4,8 C 16,1 km/h (3 Bft)
02.05.2020 03:32 6,1 C 5,6 C 91 % 1007,6 hPa 0,0 l/m 8,0 km/h (2 Bft) W-SW 247 0 min 0,0 UV-I 0 W/m 4,7 C 4,8 C 12,9 km/h (3 Bft)
02.05.2020 03:33 6,1 C 5,6 C 91 % 1007,5 hPa 0,0 l/m 9,7 km/h (2 Bft) W-SW 247 0 min 0,0 UV-I 0 W/m 4,7 C 3,5 C 12,9 km/h (3 Bft)
02.05.2020 03:34 6,0 C 5,6 C 91 % 1007,5 hPa 0,0 l/m 6,4 km/h (2 Bft) SW 225 0 min 0,0 UV-I 0 W/m 4,6 C 6,0 C 14,5 km/h (3 Bft)
02.05.2020 03:35 6,1 C 5,6 C 91 % 1007,5 hPa 0,0 l/m 9,7 km/h (2 Bft) S-SW 202 0 min 0,0 UV-I 0 W/m 4,7 C 3,5 C 16,1 km/h (3 Bft)
02.05.2020 03:36 6,0 C 5,6 C 91 % 1007,6 hPa 0,0 l/m 11,3 km/h (2 Bft) W-SW 247 0 min 0,0 UV-I 0 W/m 4,6 C 2,3 C 16,1 km/h (3 Bft)
02.05.2020 03:37 6,0 C 5,6 C 91 % 1007,5 hPa 0,0 l/m 11,3 km/h (2 Bft) SW 225 0 min 0,0 UV-I 0 W/m 4,6 C 2,3 C 17,7 km/h (3 Bft)
02.05.2020 03:38 6,0 C 5,6 C 91 % 1007,5 hPa 0,0 l/m 9,7 km/h (2 Bft) SW 225 0 min 0,0 UV-I 0 W/m 4,6 C 3,4 C 19,3 km/h (3 Bft)
02.05.2020 03:39 5,9 C 5,6 C 91 % 1007,5 hPa 0,0 l/m 6,4 km/h (2 Bft) SW 225 0 min 0,0 UV-I 0 W/m 4,5 C 5,9 C 11,3 km/h (2 Bft)
02.05.2020 03:40 5,9 C 5,0 C 91 % 1007,5 hPa 0,0 l/m 9,7 km/h (2 Bft) S-SW 202 0 min 0,0 UV-I 0 W/m 4,5 C 3,3 C 16,1 km/h (3 Bft)
02.05.2020 03:41 6,0 C 5,0 C 91 % 1007,6 hPa 0,0 l/m 11,3 km/h (2 Bft) W-SW 247 0 min 0,0 UV-I 0 W/m 4,6 C 2,3 C 17,7 km/h (3 Bft)
02.05.2020 03:42 5,9 C 5,0 C 91 % 1007,6 hPa 0,0 l/m 9,7 km/h (2 Bft) SW 225 0 min 0,0 UV-I 0 W/m 4,5 C 3,3 C 16,1 km/h (3 Bft)
02.05.2020 03:43 5,9 C 5,0 C 91 % 1007,6 hPa 0,0 l/m 12,9 km/h (3 Bft) SW 225 0 min 0,0 UV-I 0 W/m 4,5 C 1,3 C 19,3 km/h (3 Bft)
02.05.2020 03:44 5,9 C 5,0 C 90 % 1007,6 hPa 0,0 l/m 11,3 km/h (2 Bft) W-SW 247 0 min 0,0 UV-I 0 W/m 4,4 C 2,2 C 19,3 km/h (3 Bft)
02.05.2020 03:45 5,9 C 5,0 C 90 % 1007,7 hPa 0,0 l/m 11,3 km/h (2 Bft) W-SW 247 0 min 0,0 UV-I 0 W/m 4,4 C 2,2 C 17,7 km/h (3 Bft)
02.05.2020 03:46 5,9 C 5,0 C 90 % 1007,6 hPa 0,0 l/m 8,0 km/h (2 Bft) SW 225 0 min 0,0 UV-I 0 W/m 4,4 C 4,5 C 16,1 km/h (3 Bft)
02.05.2020 03:47 5,9 C 5,0 C 90 % 1007,6 hPa 0,0 l/m 6,4 km/h (2 Bft) SW 225 0 min 0,0 UV-I 0 W/m 4,4 C 5,9 C 9,7 km/h (2 Bft)
02.05.2020 03:48 5,9 C 5,0 C 90 % 1007,7 hPa 0,0 l/m 11,3 km/h (2 Bft) SW 225 0 min 0,0 UV-I 0 W/m 4,4 C 2,2 C 20,9 km/h (4 Bft)
02.05.2020 03:49 5,9 C 5,0 C 90 % 1007,6 hPa 0,0 l/m 11,3 km/h (2 Bft) SW 225 0 min 0,0 UV-I 0 W/m 4,4 C 2,2 C 19,3 km/h (3 Bft)
02.05.2020 03:50 5,9 C 5,0 C 90 % 1007,7 hPa 0,0 l/m 16,1 km/h (3 Bft) SW 225 0 min 0,0 UV-I 0 W/m 4,4 C -0,4 C 20,9 km/h (4 Bft)
02.05.2020 03:51 5,9 C 5,0 C 90 % 1007,6 hPa 0,0 l/m 9,7 km/h (2 Bft) SW 225 0 min 0,0 UV-I 0 W/m 4,4 C 3,3 C 24,1 km/h (4 Bft)
02.05.2020 03:52 5,9 C 5,0 C 90 % 1007,6 hPa 0,0 l/m 11,3 km/h (2 Bft) SW 225 0 min 0,0 UV-I 0 W/m 4,4 C 2,2 C 20,9 km/h (4 Bft)
02.05.2020 03:53 5,8 C 5,0 C 90 % 1007,6 hPa 0,0 l/m 17,7 km/h (3 Bft) SW 225 0 min 0,0 UV-I 0 W/m 4,3 C -1,2 C 25,7 km/h (4 Bft)
02.05.2020 03:54 5,9 C 5,0 C 90 % 1007,7 hPa 0,0 l/m 12,9 km/h (3 Bft) SW 225 0 min 0,0 UV-I 0 W/m 4,4 C 1,3 C 19,3 km/h (3 Bft)
02.05.2020 03:55 5,9 C 5,0 C 90 % 1007,6 hPa 0,0 l/m 6,4 km/h (2 Bft) SW 225 0 min 0,0 UV-I 0 W/m 4,4 C 5,9 C 9,7 km/h (2 Bft)
02.05.2020 03:56 5,9 C 5,0 C 90 % 1008,2 hPa 0,0 l/m 14,5 km/h (3 Bft) SW 225 0 min 0,0 UV-I 0 W/m 4,4 C 0,4 C 25,7 km/h (4 Bft)
02.05.2020 03:57 5,9 C 5,0 C 90 % 1007,7 hPa 0,0 l/m 9,7 km/h (2 Bft) W-SW 247 0 min 0,0 UV-I 0 W/m 4,4 C 3,3 C 17,7 km/h (3 Bft)
02.05.2020 03:58 5,9 C 5,0 C 90 % 1007,7 hPa 0,0 l/m 11,3 km/h (2 Bft) W-SW 247 0 min 0,0 UV-I 0 W/m 4,4 C 2,2 C 19,3 km/h (3 Bft)
02.05.2020 03:59 5,9 C 5,0 C 90 % 1007,7 hPa 0,0 l/m 6,4 km/h (2 Bft) SW 225 0 min 0,0 UV-I 0 W/m 4,4 C 5,9 C 9,7 km/h (2 Bft)
02.05.2020 04:00 5,8 C 5,0 C 90 % 1007,7 hPa 0,0 l/m 9,7 km/h (2 Bft) S-SW 202 0 min 0,0 UV-I 0 W/m 4,3 C 3,2 C 14,5 km/h (3 Bft)
02.05.2020 04:01 5,8 C 5,0 C 90 % 1007,7 hPa 0,0 l/m 9,7 km/h (2 Bft) SW 225 0 min 0,0 UV-I 0 W/m 4,3 C 3,2 C 16,1 km/h (3 Bft)
02.05.2020 04:02 5,8 C 5,0 C 90 % 1007,7 hPa 0,0 l/m 11,3 km/h (2 Bft) SW 225 0 min 0,0 UV-I 0 W/m 4,3 C 2,1 C 16,1 km/h (3 Bft)
02.05.2020 04:03 5,8 C 5,0 C 90 % 1007,7 hPa 0,0 l/m 12,9 km/h (3 Bft) SW 225 0 min 0,0 UV-I 0 W/m 4,3 C 1,2 C 20,9 km/h (4 Bft)
02.05.2020 04:04 5,8 C 5,0 C 90 % 1007,8 hPa 0,0 l/m 9,7 km/h (2 Bft) W-SW 247 0 min 0,0 UV-I 0 W/m 4,3 C 3,2 C 14,5 km/h (3 Bft)
02.05.2020 04:05 5,8 C 5,0 C 90 % 1007,8 hPa 0,0 l/m 11,3 km/h (2 Bft) W-SW 247 0 min 0,0 UV-I 0 W/m 4,3 C 2,1 C 16,1 km/h (3 Bft)
02.05.2020 04:06 5,8 C 5,0 C 90 % 1007,8 hPa 0,0 l/m 8,0 km/h (2 Bft) SW 225 0 min 0,0 UV-I 0 W/m 4,3 C 4,4 C 14,5 km/h (3 Bft)
02.05.2020 04:07 5,8 C 5,0 C 90 % 1007,8 hPa 0,0 l/m 11,3 km/h (2 Bft) SW 225 0 min 0,0 UV-I 0 W/m 4,3 C 2,1 C 16,1 km/h (3 Bft)
02.05.2020 04:08 5,8 C 5,0 C 90 % 1007,9 hPa 0,0 l/m 11,3 km/h (2 Bft) W-SW 247 0 min 0,0 UV-I 0 W/m 4,3 C 2,1 C 19,3 km/h (3 Bft)
02.05.2020 04:09 5,8 C 5,0 C 90 % 1007,9 hPa 0,0 l/m 11,3 km/h (2 Bft) SW 225 0 min 0,0 UV-I 0 W/m 4,3 C 2,1 C 16,1 km/h (3 Bft)
02.05.2020 04:10 5,8 C 5,0 C 90 % 1008,0 hPa 0,0 l/m 12,9 km/h (3 Bft) SW 225 0 min 0,0 UV-I 0 W/m 4,3 C 1,2 C 19,3 km/h (3 Bft)
02.05.2020 04:11 5,8 C 5,0 C 90 % 1007,9 hPa 0,0 l/m 8,0 km/h (2 Bft) SW 225 0 min 0,0 UV-I 0 W/m 4,3 C 4,4 C 11,3 km/h (2 Bft)
02.05.2020 04:12 5,8 C 5,0 C 90 % 1007,8 hPa 0,0 l/m 6,4 km/h (2 Bft) SW 225 0 min 0,0 UV-I 0 W/m 4,3 C 5,8 C 16,1 km/h (3 Bft)
02.05.2020 04:13 5,8 C 5,0 C 90 % 1007,9 hPa 0,0 l/m 8,0 km/h (2 Bft) SW 225 0 min 0,0 UV-I 0 W/m 4,3 C 4,4 C 12,9 km/h (3 Bft)
02.05.2020 04:14 5,8 C 5,0 C 90 % 1007,9 hPa 0,0 l/m 14,5 km/h (3 Bft) SW 225 0 min 0,0 UV-I 0 W/m 4,3 C 0,3 C 22,5 km/h (4 Bft)
02.05.2020 04:15 5,7 C 5,0 C 90 % 1007,9 hPa 0,0 l/m 6,4 km/h (2 Bft) SW 225 0 min 0,0 UV-I 0 W/m 4,2 C 5,7 C 11,3 km/h (2 Bft)
02.05.2020 04:16 5,8 C 5,0 C 90 % 1007,9 hPa 0,0 l/m 6,4 km/h (2 Bft) SW 225 0 min 0,0 UV-I 0 W/m 4,3 C 5,8 C 12,9 km/h (3 Bft)
02.05.2020 04:17 5,8 C 5,0 C 90 % 1008,0 hPa 0,0 l/m 11,3 km/h (2 Bft) SW 225 0 min 0,0 UV-I 0 W/m 4,3 C 2,1 C 19,3 km/h (3 Bft)
02.05.2020 04:18 5,7 C 5,0 C 90 % 1008,0 hPa 0,0 l/m 12,9 km/h (3 Bft) W-SW 247 0 min 0,0 UV-I 0 W/m 4,2 C 1,0 C 19,3 km/h (3 Bft)
02.05.2020 04:19 5,7 C 5,0 C 90 % 1007,9 hPa 0,0 l/m 8,0 km/h (2 Bft) SW 225 0 min 0,0 UV-I 0 W/m 4,2 C 4,3 C 12,9 km/h (3 Bft)
02.05.2020 04:20 5,7 C 5,0 C 90 % 1007,9 hPa 0,0 l/m 14,5 km/h (3 Bft) SW 225 0 min 0,0 UV-I 0 W/m 4,2 C 0,2 C 19,3 km/h (3 Bft)
02.05.2020 04:21 5,7 C 5,0 C 90 % 1007,9 hPa 0,0 l/m 12,9 km/h (3 Bft) SW 225 0 min 0,0 UV-I 0 W/m 4,2 C 1,0 C 19,3 km/h (3 Bft)
02.05.2020 04:22 5,8 C 5,0 C 90 % 1008,0 hPa 0,0 l/m 8,0 km/h (2 Bft) SW 225 0 min 0,0 UV-I 0 W/m 4,3 C 4,4 C 16,1 km/h (3 Bft)
02.05.2020 04:23 5,7 C 5,0 C 90 % 1007,9 hPa 0,0 l/m 12,9 km/h (3 Bft) SW 225 0 min 0,0 UV-I 0 W/m 4,2 C 1,0 C 20,9 km/h (4 Bft)
02.05.2020 04:24 5,7 C 5,0 C 90 % 1007,9 hPa 0,0 l/m 9,7 km/h (2 Bft) W-SW 247 0 min 0,0 UV-I 0 W/m 4,2 C 3,1 C 14,5 km/h (3 Bft)
02.05.2020 04:25 5,7 C 5,0 C 90 % 1008,0 hPa 0,0 l/m 11,3 km/h (2 Bft) SW 225 0 min 0,0 UV-I 0 W/m 4,2 C 2,0 C 16,1 km/h (3 Bft)
02.05.2020 04:26 5,7 C 5,0 C 90 % 1008,0 hPa 0,0 l/m 11,3 km/h (2 Bft) SW 225 0 min 0,0 UV-I 0 W/m 4,2 C 2,0 C 14,5 km/h (3 Bft)
02.05.2020 04:27 5,7 C 5,0 C 90 % 1008,0 hPa 0,0 l/m 8,0 km/h (2 Bft) SW 225 0 min 0,0 UV-I 0 W/m 4,2 C 4,3 C 19,3 km/h (3 Bft)
02.05.2020 04:28 5,7 C 5,0 C 90 % 1008,0 hPa 0,0 l/m 11,3 km/h (2 Bft) SW 225 0 min 0,0 UV-I 0 W/m 4,2 C 2,0 C 20,9 km/h (4 Bft)
02.05.2020 04:29 5,7 C 5,0 C 90 % 1008,0 hPa 0,0 l/m 11,3 km/h (2 Bft) SW 225 0 min 0,0 UV-I 0 W/m 4,2 C 2,0 C 19,3 km/h (3 Bft)
02.05.2020 04:30 5,7 C 5,0 C 90 % 1008,0 hPa 0,0 l/m 11,3 km/h (2 Bft) SW 225 0 min 0,0 UV-I 0 W/m 4,2 C 2,0 C 17,7 km/h (3 Bft)
02.05.2020 04:31 5,7 C 5,0 C 90 % 1008,0 hPa 0,0 l/m 16,1 km/h (3 Bft) SW 225 0 min 0,0 UV-I 0 W/m 4,2 C -0,6 C 24,1 km/h (4 Bft)
02.05.2020 04:32 5,7 C 5,0 C 90 % 1008,0 hPa 0,0 l/m 11,3 km/h (2 Bft) SW 225 0 min 0,0 UV-I 0 W/m 4,2 C 2,0 C 16,1 km/h (3 Bft)
02.05.2020 04:33 5,7 C 5,0 C 90 % 1008,0 hPa 0,0 l/m 8,0 km/h (2 Bft) SW 225 0 min 0,0 UV-I 0 W/m 4,2 C 4,3 C 16,1 km/h (3 Bft)
02.05.2020 04:34 5,7 C 5,0 C 90 % 1008,0 hPa 0,0 l/m 11,3 km/h (2 Bft) S-SW 202 0 min 0,0 UV-I 0 W/m 4,2 C 2,0 C 17,7 km/h (3 Bft)
02.05.2020 04:35 5,7 C 5,0 C 90 % 1008,0 hPa 0,0 l/m 11,3 km/h (2 Bft) SW 225 0 min 0,0 UV-I 0 W/m 4,2 C 2,0 C 16,1 km/h (3 Bft)
02.05.2020 04:36 5,7 C 5,0 C 90 % 1008,0 hPa 0,0 l/m 9,7 km/h (2 Bft) S-SW 202 0 min 0,0 UV-I 0 W/m 4,2 C 3,1 C 12,9 km/h (3 Bft)
02.05.2020 04:37 5,7 C 5,0 C 90 % 1008,0 hPa 0,0 l/m 11,3 km/h (2 Bft) S-SW 202 0 min 0,0 UV-I 0 W/m 4,2 C 2,0 C 14,5 km/h (3 Bft)
02.05.2020 04:38 5,7 C 5,0 C 90 % 1008,0 hPa 0,0 l/m 8,0 km/h (2 Bft) SW 225 0 min 0,0 UV-I 0 W/m 4,2 C 4,3 C 11,3 km/h (2 Bft)
02.05.2020 04:39 5,7 C 5,0 C 90 % 1008,1 hPa 0,0 l/m 6,4 km/h (2 Bft) S-SW 202 0 min 0,0 UV-I 0 W/m 4,2 C 5,7 C 11,3 km/h (2 Bft)
02.05.2020 04:40 5,7 C 5,0 C 90 % 1008,1 hPa 0,0 l/m 8,0 km/h (2 Bft) S-SW 202 0 min 0,0 UV-I 0 W/m 4,2 C 4,3 C 12,9 km/h (3 Bft)
02.05.2020 04:41 5,7 C 5,0 C 90 % 1008,2 hPa 0,0 l/m 8,0 km/h (2 Bft) SW 225 0 min 0,0 UV-I 0 W/m 4,2 C 4,3 C 11,3 km/h (2 Bft)
02.05.2020 04:42 5,7 C 5,0 C 90 % 1008,2 hPa 0,0 l/m 14,5 km/h (3 Bft) S-SW 202 0 min 0,0 UV-I 0 W/m 4,2 C 0,2 C 25,7 km/h (4 Bft)
02.05.2020 04:43 5,7 C 5,0 C 90 % 1008,1 hPa 0,0 l/m 14,5 km/h (3 Bft) SW 225 0 min 0,0 UV-I 0 W/m 4,2 C 0,2 C 17,7 km/h (3 Bft)
02.05.2020 04:44 5,7 C 5,0 C 90 % 1008,0 hPa 0,0 l/m 6,4 km/h (2 Bft) SW 225 0 min 0,0 UV-I 0 W/m 4,2 C 5,7 C 9,7 km/h (2 Bft)
02.05.2020 04:45 5,7 C 5,0 C 90 % 1008,1 hPa 0,0 l/m 6,4 km/h (2 Bft) SW 225 0 min 0,0 UV-I 0 W/m 4,2 C 5,7 C 11,3 km/h (2 Bft)
02.05.2020 04:46 5,7 C 5,0 C 90 % 1008,1 hPa 0,0 l/m 8,0 km/h (2 Bft) S-SW 202 0 min 0,0 UV-I 0 W/m 4,2 C 4,3 C 12,9 km/h (3 Bft)
02.05.2020 04:47 5,7 C 5,0 C 90 % 1008,1 hPa 0,0 l/m 8,0 km/h (2 Bft) SW 225 0 min 0,0 UV-I 0 W/m 4,2 C 4,3 C 12,9 km/h (3 Bft)
02.05.2020 04:48 5,7 C 5,0 C 90 % 1008,1 hPa 0,0 l/m 8,0 km/h (2 Bft) SW 225 0 min 0,0 UV-I 0 W/m 4,2 C 4,3 C 14,5 km/h (3 Bft)
02.05.2020 04:49 5,7 C 5,0 C 90 % 1008,1 hPa 0,0 l/m 8,0 km/h (2 Bft) SW 225 0 min 0,0 UV-I 0 W/m 4,2 C 4,3 C 16,1 km/h (3 Bft)
02.05.2020 04:50 5,7 C 5,0 C 90 % 1008,2 hPa 0,0 l/m 12,9 km/h (3 Bft) SW 225 0 min 0,0 UV-I 0 W/m 4,2 C 1,0 C 19,3 km/h (3 Bft)
02.05.2020 04:51 5,7 C 5,0 C 90 % 1008,1 hPa 0,0 l/m 11,3 km/h (2 Bft) SW 225 0 min 0,0 UV-I 0 W/m 4,2 C 2,0 C 17,7 km/h (3 Bft)
02.05.2020 04:52 5,7 C 5,0 C 90 % 1008,2 hPa 0,0 l/m 8,0 km/h (2 Bft) S-SW 202 0 min 0,0 UV-I 0 W/m 4,2 C 4,3 C 11,3 km/h (2 Bft)
02.05.2020 04:53 5,7 C 5,0 C 90 % 1008,2 hPa 0,0 l/m 8,0 km/h (2 Bft) S-SW 202 0 min 0,0 UV-I 0 W/m 4,2 C 4,3 C 12,9 km/h (3 Bft)
02.05.2020 04:54 5,7 C 5,0 C 90 % 1008,2 hPa 0,0 l/m 11,3 km/h (2 Bft) S-SW 202 0 min 0,0 UV-I 0 W/m 4,2 C 2,0 C 17,7 km/h (3 Bft)
02.05.2020 04:55 5,7 C 5,0 C 90 % 1008,4 hPa 0,0 l/m 12,9 km/h (3 Bft) SW 225 0 min 0,0 UV-I 0 W/m 4,2 C 1,0 C 20,9 km/h (4 Bft)
02.05.2020 04:56 5,7 C 5,0 C 90 % 1008,2 hPa 0,0 l/m 12,9 km/h (3 Bft) SW 225 0 min 0,0 UV-I 0 W/m 4,2 C 1,0 C 17,7 km/h (3 Bft)
02.05.2020 04:57 5,7 C 5,0 C 90 % 1008,2 hPa 0,0 l/m 14,5 km/h (3 Bft) SW 225 0 min 0,0 UV-I 0 W/m 4,2 C 0,2 C 17,7 km/h (3 Bft)
02.05.2020 04:58 5,7 C 5,0 C 90 % 1008,2 hPa 0,0 l/m 12,9 km/h (3 Bft) S-SW 202 0 min 0,0 UV-I 0 W/m 4,2 C 1,0 C 17,7 km/h (3 Bft)
02.05.2020 04:59 5,7 C 5,0 C 90 % 1008,2 hPa 0,0 l/m 14,5 km/h (3 Bft) SW 225 0 min 0,0 UV-I 0 W/m 4,2 C 0,2 C 20,9 km/h (4 Bft)
02.05.2020 05:00 5,7 C 5,0 C 90 % 1008,2 hPa 0,0 l/m 16,1 km/h (3 Bft) SW 225 0 min 0,0 UV-I 0 W/m 4,2 C -0,6 C 20,9 km/h (4 Bft)
02.05.2020 05:01 5,7 C 5,0 C 90 % 1008,3 hPa 0,0 l/m 12,9 km/h (3 Bft) SW 225 0 min 0,0 UV-I 0 W/m 4,2 C 1,0 C 17,7 km/h (3 Bft)
02.05.2020 05:02 5,7 C 5,0 C 90 % 1008,3 hPa 0,0 l/m 12,9 km/h (3 Bft) SW 225 0 min 0,0 UV-I 0 W/m 4,2 C 1,0 C 19,3 km/h (3 Bft)
02.05.2020 05:03 5,7 C 5,0 C 90 % 1008,3 hPa 0,0 l/m 12,9 km/h (3 Bft) SW 225 0 min 0,0 UV-I 0 W/m 4,2 C 1,0 C 19,3 km/h (3 Bft)
02.05.2020 05:04 5,7 C 5,0 C 90 % 1008,1 hPa 0,0 l/m 11,3 km/h (2 Bft) SW 225 0 min 0,0 UV-I 0 W/m 4,2 C 2,0 C 19,3 km/h (3 Bft)
02.05.2020 05:05 5,6 C 5,0 C 90 % 1008,1 hPa 0,0 l/m 11,3 km/h (2 Bft) S-SW 202 0 min 0,0 UV-I 0 W/m 4,1 C 1,9 C 17,7 km/h (3 Bft)
02.05.2020 05:06 5,7 C 5,0 C 90 % 1008,2 hPa 0,0 l/m 12,9 km/h (3 Bft) SW 225 0 min 0,0 UV-I 0 W/m 4,2 C 1,0 C 19,3 km/h (3 Bft)
02.05.2020 05:07 5,7 C 5,0 C 90 % 1008,2 hPa 0,0 l/m 12,9 km/h (3 Bft) SW 225 0 min 0,0 UV-I 0 W/m 4,2 C 1,0 C 22,5 km/h (4 Bft)
02.05.2020 05:08 5,7 C 5,0 C 90 % 1008,2 hPa 0,0 l/m 16,1 km/h (3 Bft) SW 225 0 min 0,0 UV-I 0 W/m 4,2 C -0,6 C 22,5 km/h (4 Bft)
02.05.2020 05:09 5,7 C 5,0 C 90 % 1008,2 hPa 0,0 l/m 12,9 km/h (3 Bft) SW 225 0 min 0,0 UV-I 0 W/m 4,2 C 1,0 C 20,9 km/h (4 Bft)
02.05.2020 05:10 5,7 C 5,0 C 90 % 1008,2 hPa 0,0 l/m 8,0 km/h (2 Bft) S-SW 202 0 min 0,0 UV-I 0 W/m 4,2 C 4,3 C 14,5 km/h (3 Bft)
02.05.2020 05:11 5,7 C 5,0 C 90 % 1008,2 hPa 0,0 l/m 9,7 km/h (2 Bft) SW 225 0 min 0,0 UV-I 0 W/m 4,2 C 3,1 C 16,1 km/h (3 Bft)
02.05.2020 05:12 5,6 C 5,0 C 90 % 1008,2 hPa 0,0 l/m 11,3 km/h (2 Bft) SW 225 0 min 0,0 UV-I 0 W/m 4,1 C 1,9 C 22,5 km/h (4 Bft)
02.05.2020 05:13 5,6 C 5,0 C 90 % 1008,2 hPa 0,0 l/m 6,4 km/h (2 Bft) SW 225 0 min 0,0 UV-I 0 W/m 4,1 C 5,6 C 11,3 km/h (2 Bft)
02.05.2020 05:14 5,6 C 5,0 C 90 % 1008,3 hPa 0,0 l/m 11,3 km/h (2 Bft) S-SW 202 0 min 0,0 UV-I 0 W/m 4,1 C 1,9 C 16,1 km/h (3 Bft)
02.05.2020 05:15 5,6 C 5,0 C 90 % 1008,3 hPa 0,0 l/m 11,3 km/h (2 Bft) SW 225 0 min 0,0 UV-I 0 W/m 4,1 C 1,9 C 16,1 km/h (3 Bft)
02.05.2020 05:16 5,6 C 5,0 C 90 % 1008,3 hPa 0,0 l/m 8,0 km/h (2 Bft) SW 225 0 min 0,0 UV-I 0 W/m 4,1 C 4,2 C 12,9 km/h (3 Bft)
02.05.2020 05:17 5,6 C 5,0 C 90 % 1008,3 hPa 0,0 l/m 8,0 km/h (2 Bft) SW 225 0 min 0,0 UV-I 0 W/m 4,1 C 4,2 C 12,9 km/h (3 Bft)
02.05.2020 05:18 5,6 C 5,0 C 90 % 1008,3 hPa 0,0 l/m 14,5 km/h (3 Bft) SW 225 0 min 0,0 UV-I 0 W/m 4,1 C 0,1 C 17,7 km/h (3 Bft)
02.05.2020 05:19 5,6 C 5,0 C 90 % 1008,4 hPa 0,0 l/m 14,5 km/h (3 Bft) S-SW 202 0 min 0,0 UV-I 0 W/m 4,1 C 0,1 C 19,3 km/h (3 Bft)
02.05.2020 05:20 5,6 C 5,0 C 90 % 1008,4 hPa 0,0 l/m 8,0 km/h (2 Bft) SW 225 0 min 0,0 UV-I 0 W/m 4,1 C 4,2 C 14,5 km/h (3 Bft)
02.05.2020 05:21 5,6 C 5,0 C 90 % 1008,3 hPa 0,0 l/m 11,3 km/h (2 Bft) SW 225 0 min 0,0 UV-I 0 W/m 4,1 C 1,9 C 16,1 km/h (3 Bft)
02.05.2020 05:22 5,6 C 5,0 C 90 % 1008,3 hPa 0,0 l/m 11,3 km/h (2 Bft) SW 225 0 min 0,0 UV-I 0 W/m 4,1 C 1,9 C 14,5 km/h (3 Bft)
02.05.2020 05:23 5,6 C 5,0 C 90 % 1008,4 hPa 0,0 l/m 9,7 km/h (2 Bft) SW 225 0 min 0,0 UV-I 0 W/m 4,1 C 2,9 C 12,9 km/h (3 Bft)
02.05.2020 05:24 5,6 C 5,0 C 90 % 1008,3 hPa 0,0 l/m 6,4 km/h (2 Bft) SW 225 0 min 0,0 UV-I 0 W/m 4,1 C 5,6 C 11,3 km/h (2 Bft)
02.05.2020 05:25 5,6 C 5,0 C 90 % 1008,3 hPa 0,0 l/m 6,4 km/h (2 Bft) SW 225 0 min 0,0 UV-I 0 W/m 4,1 C 5,6 C 9,7 km/h (2 Bft)
02.05.2020 05:26 5,7 C 5,0 C 90 % 1008,3 hPa 0,0 l/m 12,9 km/h (3 Bft) SW 225 0 min 0,0 UV-I 0 W/m 4,2 C 1,0 C 24,1 km/h (4 Bft)
02.05.2020 05:27 5,6 C 5,0 C 90 % 1008,4 hPa 0,0 l/m 14,5 km/h (3 Bft) SW 225 0 min 0,0 UV-I 0 W/m 4,1 C 0,1 C 24,1 km/h (4 Bft)
02.05.2020 05:28 5,6 C 5,0 C 90 % 1008,4 hPa 0,0 l/m 12,9 km/h (3 Bft) S-SW 202 0 min 0,0 UV-I 0 W/m 4,1 C 0,9 C 17,7 km/h (3 Bft)
02.05.2020 05:29 5,6 C 5,0 C 89 % 1008,3 hPa 0,0 l/m 11,3 km/h (2 Bft) S-SW 202 0 min 0,0 UV-I 0 W/m 3,9 C 1,9 C 16,1 km/h (3 Bft)
02.05.2020 05:30 5,6 C 5,0 C 90 % 1008,3 hPa 0,0 l/m 11,3 km/h (2 Bft) S-SW 202 0 min 0,0 UV-I 0 W/m 4,1 C 1,9 C 19,3 km/h (3 Bft)
02.05.2020 05:31 5,6 C 5,0 C 89 % 1008,4 hPa 0,0 l/m 9,7 km/h (2 Bft) S-SW 202 0 min 0,0 UV-I 0 W/m 3,9 C 2,9 C 17,7 km/h (3 Bft)
02.05.2020 05:32 5,6 C 5,0 C 89 % 1008,3 hPa 0,0 l/m 11,3 km/h (2 Bft) S-SW 202 0 min 0,0 UV-I 0 W/m 3,9 C 1,9 C 16,1 km/h (3 Bft)
02.05.2020 05:33 5,6 C 5,0 C 89 % 1008,3 hPa 0,0 l/m 14,5 km/h (3 Bft) S-SW 202 0 min 0,0 UV-I 0 W/m 3,9 C 0,1 C 24,1 km/h (4 Bft)
02.05.2020 05:34 5,6 C 5,0 C 89 % 1008,3 hPa 0,0 l/m 9,7 km/h (2 Bft) S-SW 202 0 min 0,0 UV-I 0 W/m 3,9 C 2,9 C 14,5 km/h (3 Bft)
02.05.2020 05:35 5,6 C 5,0 C 89 % 1008,4 hPa 0,0 l/m 9,7 km/h (2 Bft) W-SW 247 0 min 0,0 UV-I 0 W/m 3,9 C 2,9 C 14,5 km/h (3 Bft)
02.05.2020 05:36 5,6 C 5,0 C 89 % 1008,3 hPa 0,0 l/m 6,4 km/h (2 Bft) SW 225 0 min 0,0 UV-I 0 W/m 3,9 C 5,6 C 8,0 km/h (2 Bft)
02.05.2020 05:37 5,6 C 5,0 C 89 % 1008,3 hPa 0,0 l/m 6,4 km/h (2 Bft) SW 225 0 min 0,0 UV-I 0 W/m 3,9 C 5,6 C 11,3 km/h (2 Bft)
02.05.2020 05:38 5,6 C 5,0 C 89 % 1008,3 hPa 0,0 l/m 6,4 km/h (2 Bft) SW 225 0 min 0,0 UV-I 0 W/m 3,9 C 5,6 C 9,7 km/h (2 Bft)
02.05.2020 05:39 5,6 C 5,0 C 89 % 1008,3 hPa 0,0 l/m 4,8 km/h (1 Bft) W-SW 247 0 min 0,0 UV-I 0 W/m 3,9 C 5,6 C 12,9 km/h (3 Bft)
02.05.2020 05:40 5,5 C 5,0 C 89 % 1008,3 hPa 0,0 l/m 8,0 km/h (2 Bft) SW 225 0 min 0,0 UV-I 0 W/m 3,8 C 4,1 C 12,9 km/h (3 Bft)
02.05.2020 05:41 5,5 C 5,0 C 89 % 1008,3 hPa 0,0 l/m 9,7 km/h (2 Bft) SW 225 0 min 0,0 UV-I 0 W/m 3,8 C 2,8 C 16,1 km/h (3 Bft)
02.05.2020 05:42 5,5 C 5,0 C 89 % 1008,4 hPa 0,0 l/m 9,7 km/h (2 Bft) SW 225 0 min 0,0 UV-I 0 W/m 3,8 C 2,8 C 16,1 km/h (3 Bft)
02.05.2020 05:43 5,6 C 5,0 C 89 % 1008,4 hPa 0,0 l/m 8,0 km/h (2 Bft) W-SW 247 0 min 0,0 UV-I 0 W/m 3,9 C 4,2 C 14,5 km/h (3 Bft)
02.05.2020 05:44 5,5 C 5,0 C 89 % 1008,4 hPa 0,0 l/m 6,4 km/h (2 Bft) SW 225 0 min 0,0 UV-I 0 W/m 3,8 C 5,5 C 9,7 km/h (2 Bft)
02.05.2020 05:45 5,5 C 5,0 C 89 % 1008,3 hPa 0,0 l/m 9,7 km/h (2 Bft) S-SW 202 0 min 0,0 UV-I 0 W/m 3,8 C 2,8 C 14,5 km/h (3 Bft)
02.05.2020 05:46 5,5 C 5,0 C 89 % 1008,3 hPa 0,0 l/m 11,3 km/h (2 Bft) S-SW 202 0 min 0,0 UV-I 0 W/m 3,8 C 1,8 C 17,7 km/h (3 Bft)
02.05.2020 05:47 5,5 C 5,0 C 89 % 1008,4 hPa 0,0 l/m 14,5 km/h (3 Bft) S-SW 202 0 min 0,0 UV-I 0 W/m 3,8 C -0,1 C 20,9 km/h (4 Bft)
02.05.2020 05:48 5,5 C 5,0 C 89 % 1008,4 hPa 0,0 l/m 9,7 km/h (2 Bft) W-SW 247 0 min 0,0 UV-I 0 W/m 3,8 C 2,8 C 11,3 km/h (2 Bft)
02.05.2020 05:49 5,5 C 5,0 C 89 % 1008,4 hPa 0,0 l/m 8,0 km/h (2 Bft) SW 225 0 min 0,0 UV-I 0 W/m 3,8 C 4,1 C 12,9 km/h (3 Bft)
02.05.2020 05:50 5,6 C 5,0 C 89 % 1008,4 hPa 0,0 l/m 11,3 km/h (2 Bft) W-SW 247 0 min 0,0 UV-I 0 W/m 3,9 C 1,9 C 19,3 km/h (3 Bft)
02.05.2020 05:51 5,6 C 5,0 C 89 % 1008,4 hPa 0,0 l/m 9,7 km/h (2 Bft) S-SW 202 0 min 0,0 UV-I 0 W/m 3,9 C 2,9 C 12,9 km/h (3 Bft)
02.05.2020 05:52 5,6 C 5,0 C 89 % 1008,4 hPa 0,0 l/m 11,3 km/h (2 Bft) S-SW 202 0 min 0,0 UV-I 0 W/m 3,9 C 1,9 C 14,5 km/h (3 Bft)
02.05.2020 05:53 5,6 C 5,0 C 89 % 1008,3 hPa 0,0 l/m 9,7 km/h (2 Bft) S-SW 202 0 min 0,0 UV-I 0 W/m 3,9 C 2,9 C 12,9 km/h (3 Bft)
02.05.2020 05:54 5,6 C 5,0 C 89 % 1008,4 hPa 0,0 l/m 11,3 km/h (2 Bft) SW 225 0 min 0,0 UV-I 0 W/m 3,9 C 1,9 C 16,1 km/h (3 Bft)
02.05.2020 05:55 5,6 C 5,0 C 89 % 1008,3 hPa 0,0 l/m 8,0 km/h (2 Bft) S-SW 202 0 min 0,0 UV-I 0 W/m 3,9 C 4,2 C 12,9 km/h (3 Bft)
02.05.2020 05:56 5,6 C 5,0 C 89 % 1008,3 hPa 0,0 l/m 9,7 km/h (2 Bft) SW 225 0 min 0,0 UV-I 0 W/m 3,9 C 2,9 C 12,9 km/h (3 Bft)
02.05.2020 05:57 5,6 C 5,0 C 89 % 1008,3 hPa 0,0 l/m 9,7 km/h (2 Bft) SW 225 0 min 0,0 UV-I 0 W/m 3,9 C 2,9 C 12,9 km/h (3 Bft)
02.05.2020 05:58 5,6 C 5,0 C 90 % 1008,4 hPa 0,0 l/m 6,4 km/h (2 Bft) S-SW 202 0 min 0,0 UV-I 0 W/m 4,1 C 5,6 C 9,7 km/h (2 Bft)
02.05.2020 05:59 5,6 C 5,0 C 90 % 1008,5 hPa 0,0 l/m 8,0 km/h (2 Bft) S-SW 202 0 min 0,0 UV-I 0 W/m 4,1 C 4,2 C 11,3 km/h (2 Bft)
02.05.2020 06:00 5,5 C 5,0 C 90 % 1008,5 hPa 0,0 l/m 6,4 km/h (2 Bft) SW 225 0 min 0,0 UV-I 0 W/m 4,0 C 5,5 C 9,7 km/h (2 Bft)
02.05.2020 06:01 5,6 C 5,0 C 90 % 1008,5 hPa 0,0 l/m 4,8 km/h (1 Bft) SW 225 0 min 0,0 UV-I 0 W/m 4,1 C 5,6 C 8,0 km/h (2 Bft)
02.05.2020 06:02 5,6 C 5,0 C 90 % 1008,5 hPa 0,0 l/m 8,0 km/h (2 Bft) S-SW 202 0 min 0,0 UV-I 0 W/m 4,1 C 4,2 C 9,7 km/h (2 Bft)
02.05.2020 06:03 5,6 C 5,0 C 90 % 1008,6 hPa 0,0 l/m 6,4 km/h (2 Bft) SW 225 0 min 0,0 UV-I 0 W/m 4,1 C 5,6 C 8,0 km/h (2 Bft)
02.05.2020 06:04 5,6 C 5,0 C 90 % 1008,5 hPa 0,0 l/m 8,0 km/h (2 Bft) SW 225 0 min 0,0 UV-I 0 W/m 4,1 C 4,2 C 11,3 km/h (2 Bft)
02.05.2020 06:05 5,6 C 5,0 C 90 % 1008,4 hPa 0,0 l/m 9,7 km/h (2 Bft) S-SW 202 0 min 0,0 UV-I 0 W/m 4,1 C 2,9 C 12,9 km/h (3 Bft)
02.05.2020 06:06 5,6 C 5,0 C 90 % 1008,4 hPa 0,0 l/m 9,7 km/h (2 Bft) SW 225 0 min 0,0 UV-I 0 W/m 4,1 C 2,9 C 12,9 km/h (3 Bft)
02.05.2020 06:07 5,5 C 5,0 C 90 % 1008,4 hPa 0,0 l/m 12,9 km/h (3 Bft) SW 225 0 min 0,0 UV-I 0 W/m 4,0 C 0,8 C 20,9 km/h (4 Bft)
02.05.2020 06:08 5,6 C 5,0 C 90 % 1008,4 hPa 0,0 l/m 9,7 km/h (2 Bft) SW 225 0 min 0,0 UV-I 0 W/m 4,1 C 2,9 C 16,1 km/h (3 Bft)
02.05.2020 06:09 5,6 C 5,0 C 90 % 1008,5 hPa 0,0 l/m 12,9 km/h (3 Bft) SW 225 0 min 0,0 UV-I 0 W/m 4,1 C 0,9 C 19,3 km/h (3 Bft)
02.05.2020 06:10 5,6 C 5,0 C 90 % 1008,5 hPa 0,0 l/m 12,9 km/h (3 Bft) S-SW 202 0 min 0,0 UV-I 0 W/m 4,1 C 0,9 C 17,7 km/h (3 Bft)
02.05.2020 06:11 5,6 C 5,0 C 90 % 1008,5 hPa 0,0 l/m 16,1 km/h (3 Bft) S-SW 202 0 min 0,0 UV-I 0 W/m 4,1 C -0,7 C 25,7 km/h (4 Bft)
02.05.2020 06:12 5,6 C 5,0 C 90 % 1008,5 hPa 0,0 l/m 14,5 km/h (3 Bft) S-SW 202 0 min 0,0 UV-I 0 W/m 4,1 C 0,1 C 20,9 km/h (4 Bft)
02.05.2020 06:13 5,6 C 5,0 C 90 % 1008,4 hPa 0,0 l/m 12,9 km/h (3 Bft) SW 225 0 min 0,0 UV-I 0 W/m 4,1 C 0,9 C 17,7 km/h (3 Bft)
02.05.2020 06:14 5,6 C 5,0 C 90 % 1008,5 hPa 0,0 l/m 14,5 km/h (3 Bft) S-SW 202 0 min 0,0 UV-I 0 W/m 4,1 C 0,1 C 19,3 km/h (3 Bft)
02.05.2020 06:15 5,6 C 5,0 C 90 % 1008,6 hPa 0,0 l/m 17,7 km/h (3 Bft) S-SW 202 0 min 0,0 UV-I 0 W/m 4,1 C -1,5 C 24,1 km/h (4 Bft)
02.05.2020 06:16 5,6 C 5,0 C 90 % 1008,6 hPa 0,0 l/m 17,7 km/h (3 Bft) S-SW 202 0 min 0,0 UV-I 0 W/m 4,1 C -1,5 C 24,1 km/h (4 Bft)
02.05.2020 06:17 5,6 C 5,0 C 90 % 1008,5 hPa 0,0 l/m 11,3 km/h (2 Bft) SW 225 0 min 0,0 UV-I 0 W/m 4,1 C 1,9 C 17,7 km/h (3 Bft)
02.05.2020 06:18 5,6 C 5,0 C 90 % 1008,5 hPa 0,0 l/m 8,0 km/h (2 Bft) SW 225 0 min 0,0 UV-I 0 W/m 4,1 C 4,2 C 16,1 km/h (3 Bft)
02.05.2020 06:19 5,6 C 5,0 C 90 % 1008,5 hPa 0,0 l/m 11,3 km/h (2 Bft) SW 225 0 min 0,0 UV-I 0 W/m 4,1 C 1,9 C 19,3 km/h (3 Bft)
02.05.2020 06:20 5,6 C 5,0 C 90 % 1008,4 hPa 0,0 l/m 12,9 km/h (3 Bft) SW 225 0 min 0,0 UV-I 0 W/m 4,1 C 0,9 C 19,3 km/h (3 Bft)
02.05.2020 06:21 5,6 C 5,0 C 90 % 1008,5 hPa 0,0 l/m 11,3 km/h (2 Bft) S-SW 202 0 min 0,0 UV-I 0 W/m 4,1 C 1,9 C 14,5 km/h (3 Bft)
02.05.2020 06:22 5,6 C 5,0 C 90 % 1008,5 hPa 0,0 l/m 11,3 km/h (2 Bft) S-SW 202 0 min 0,0 UV-I 0 W/m 4,1 C 1,9 C 14,5 km/h (3 Bft)
02.05.2020 06:23 5,6 C 5,0 C 90 % 1008,4 hPa 0,0 l/m 11,3 km/h (2 Bft) SW 225 0 min 0,0 UV-I 0 W/m 4,1 C 1,9 C 14,5 km/h (3 Bft)
02.05.2020 06:24 5,6 C 5,0 C 90 % 1008,5 hPa 0,0 l/m 12,9 km/h (3 Bft) SW 225 0 min 0,0 UV-I 0 W/m 4,1 C 0,9 C 20,9 km/h (4 Bft)
02.05.2020 06:25 5,6 C 5,0 C 90 % 1008,4 hPa 0,0 l/m 8,0 km/h (2 Bft) S-SW 202 0 min 0,0 UV-I 0 W/m 4,1 C 4,2 C 11,3 km/h (2 Bft)
02.05.2020 06:26 5,6 C 5,0 C 89 % 1008,5 hPa 0,0 l/m 8,0 km/h (2 Bft) S-SW 202 0 min 0,0 UV-I 0 W/m 3,9 C 4,2 C 12,9 km/h (3 Bft)
02.05.2020 06:27 5,6 C 5,0 C 90 % 1008,6 hPa 0,0 l/m 8,0 km/h (2 Bft) SW 225 0 min 0,0 UV-I 0 W/m 4,1 C 4,2 C 12,9 km/h (3 Bft)
02.05.2020 06:28 5,6 C 5,0 C 90 % 1008,6 hPa 0,0 l/m 12,9 km/h (3 Bft) SW 225 0 min 0,0 UV-I 0 W/m 4,1 C 0,9 C 17,7 km/h (3 Bft)
02.05.2020 06:29 5,6 C 5,0 C 90 % 1008,6 hPa 0,0 l/m 12,9 km/h (3 Bft) S-SW 202 0 min 0,0 UV-I 7 W/m 4,1 C 0,9 C 19,3 km/h (3 Bft)
02.05.2020 06:30 5,6 C 5,0 C 89 % 1008,6 hPa 0,0 l/m 8,0 km/h (2 Bft) S-SW 202 0 min 0,0 UV-I 14 W/m 3,9 C 4,2 C 16,1 km/h (3 Bft)
02.05.2020 06:31 5,6 C 5,0 C 90 % 1008,6 hPa 0,0 l/m 9,7 km/h (2 Bft) S-SW 202 0 min 0,0 UV-I 21 W/m 4,1 C 2,9 C 14,5 km/h (3 Bft)
02.05.2020 06:32 5,6 C 5,0 C 90 % 1008,6 hPa 0,0 l/m 14,5 km/h (3 Bft) S-SW 202 0 min 0,0 UV-I 23 W/m 4,1 C 0,1 C 25,7 km/h (4 Bft)
02.05.2020 06:33 5,6 C 5,0 C 90 % 1008,6 hPa 0,0 l/m 12,9 km/h (3 Bft) S-SW 202 0 min 0,0 UV-I 23 W/m 4,1 C 0,9 C 20,9 km/h (4 Bft)
02.05.2020 06:34 5,6 C 5,0 C 90 % 1008,6 hPa 0,0 l/m 9,7 km/h (2 Bft) S-SW 202 0 min 0,0 UV-I 25 W/m 4,1 C 2,9 C 16,1 km/h (3 Bft)
02.05.2020 06:35 5,6 C 5,0 C 90 % 1008,6 hPa 0,0 l/m 8,0 km/h (2 Bft) SW 225 0 min 0,0 UV-I 21 W/m 4,1 C 4,2 C 12,9 km/h (3 Bft)
02.05.2020 06:36 5,6 C 5,0 C 90 % 1008,5 hPa 0,0 l/m 9,7 km/h (2 Bft) SW 225 0 min 0,0 UV-I 13 W/m 4,1 C 2,9 C 20,9 km/h (4 Bft)
02.05.2020 06:37 5,6 C 5,0 C 90 % 1008,6 hPa 0,0 l/m 12,9 km/h (3 Bft) S-SW 202 0 min 0,0 UV-I 9 W/m 4,1 C 0,9 C 19,3 km/h (3 Bft)
02.05.2020 06:38 5,6 C 5,0 C 90 % 1008,6 hPa 0,0 l/m 16,1 km/h (3 Bft) SW 225 0 min 0,0 UV-I 9 W/m 4,1 C -0,7 C 19,3 km/h (3 Bft)
02.05.2020 06:39 5,6 C 5,0 C 89 % 1008,6 hPa 0,0 l/m 11,3 km/h (2 Bft) S-SW 202 0 min 0,0 UV-I 9 W/m 3,9 C 1,9 C 16,1 km/h (3 Bft)
02.05.2020 06:40 5,6 C 5,0 C 90 % 1008,5 hPa 0,0 l/m 8,0 km/h (2 Bft) S-SW 202 0 min 0,0 UV-I 9 W/m 4,1 C 4,2 C 14,5 km/h (3 Bft)
02.05.2020 06:41 5,6 C 5,0 C 90 % 1008,6 hPa 0,0 l/m 11,3 km/h (2 Bft) S-SW 202 0 min 0,0 UV-I 11 W/m 4,1 C 1,9 C 16,1 km/h (3 Bft)
02.05.2020 06:42 5,6 C 5,0 C 89 % 1008,6 hPa 0,0 l/m 14,5 km/h (3 Bft) S-SW 202 0 min 0,0 UV-I 11 W/m 3,9 C 0,1 C 25,7 km/h (4 Bft)
02.05.2020 06:43 5,6 C 5,0 C 89 % 1008,6 hPa 0,0 l/m 11,3 km/h (2 Bft) S-SW 202 0 min 0,0 UV-I 11 W/m 3,9 C 1,9 C 25,7 km/h (4 Bft)
02.05.2020 06:44 5,6 C 5,0 C 89 % 1008,6 hPa 0,0 l/m 6,4 km/h (2 Bft) W-SW 247 0 min 0,0 UV-I 9 W/m 3,9 C 5,6 C 14,5 km/h (3 Bft)
02.05.2020 06:45 5,6 C 5,0 C 89 % 1008,7 hPa 0,0 l/m 12,9 km/h (3 Bft) SW 225 0 min 0,0 UV-I 7 W/m 3,9 C 0,9 C 17,7 km/h (3 Bft)
02.05.2020 06:46 5,6 C 5,0 C 89 % 1008,7 hPa 0,0 l/m 9,7 km/h (2 Bft) S-SW 202 0 min 0,0 UV-I 5 W/m 3,9 C 2,9 C 16,1 km/h (3 Bft)
02.05.2020 06:47 5,6 C 5,0 C 89 % 1008,7 hPa 0,0 l/m 9,7 km/h (2 Bft) S-SW 202 0 min 0,0 UV-I 7 W/m 3,9 C 2,9 C 16,1 km/h (3 Bft)
02.05.2020 06:48 5,6 C 5,0 C 90 % 1008,7 hPa 0,0 l/m 11,3 km/h (2 Bft) S-SW 202 0 min 0,0 UV-I 7 W/m 4,1 C 1,9 C 14,5 km/h (3 Bft)
02.05.2020 06:49 5,6 C 5,0 C 89 % 1008,7 hPa 0,0 l/m 16,1 km/h (3 Bft) SW 225 0 min 0,0 UV-I 7 W/m 3,9 C -0,7 C 19,3 km/h (3 Bft)
02.05.2020 06:50 5,6 C 5,0 C 90 % 1008,7 hPa 0,0 l/m 12,9 km/h (3 Bft) S-SW 202 0 min 0,0 UV-I 7 W/m 4,1 C 0,9 C 16,1 km/h (3 Bft)
02.05.2020 06:51 5,6 C 5,0 C 90 % 1008,8 hPa 0,0 l/m 9,7 km/h (2 Bft) SW 225 0 min 0,0 UV-I 9 W/m 4,1 C 2,9 C 14,5 km/h (3 Bft)
02.05.2020 06:52 5,5 C 5,0 C 90 % 1008,8 hPa 0,0 l/m 11,3 km/h (2 Bft) SW 225 0 min 0,0 UV-I 12 W/m 4,0 C 1,8 C 12,9 km/h (3 Bft)
02.05.2020 06:53 5,6 C 5,0 C 90 % 1008,8 hPa 0,0 l/m 11,3 km/h (2 Bft) S-SW 202 0 min 0,0 UV-I 22 W/m 4,1 C 1,9 C 17,7 km/h (3 Bft)
02.05.2020 06:54 5,6 C 5,0 C 90 % 1008,8 hPa 0,0 l/m 9,7 km/h (2 Bft) SW 225 0 min 0,0 UV-I 33 W/m 4,1 C 2,9 C 14,5 km/h (3 Bft)
02.05.2020 06:55 5,6 C 5,0 C 90 % 1008,7 hPa 0,0 l/m 9,7 km/h (2 Bft) S-SW 202 0 min 0,0 UV-I 33 W/m 4,1 C 2,9 C 14,5 km/h (3 Bft)
02.05.2020 06:56 5,6 C 5,0 C 90 % 1008,9 hPa 0,0 l/m 9,7 km/h (2 Bft) SW 225 0 min 0,0 UV-I 37 W/m 4,1 C 2,9 C 12,9 km/h (3 Bft)
02.05.2020 06:57 5,6 C 5,0 C 90 % 1008,8 hPa 0,0 l/m 8,0 km/h (2 Bft) SW 225 0 min 0,0 UV-I 37 W/m 4,1 C 4,2 C 11,3 km/h (2 Bft)
02.05.2020 06:58 5,6 C 5,0 C 90 % 1008,9 hPa 0,0 l/m 8,0 km/h (2 Bft) SW 225 0 min 0,0 UV-I 35 W/m 4,1 C 4,2 C 12,9 km/h (3 Bft)
02.05.2020 06:59 5,6 C 5,0 C 90 % 1008,8 hPa 0,0 l/m 11,3 km/h (2 Bft) SW 225 0 min 0,0 UV-I 23 W/m 4,1 C 1,9 C 14,5 km/h (3 Bft)
02.05.2020 07:00 5,6 C 5,0 C 90 % 1008,8 hPa 0,0 l/m 11,3 km/h (2 Bft) SW 225 0 min 0,0 UV-I 18 W/m 4,1 C 1,9 C 16,1 km/h (3 Bft)
02.05.2020 07:01 5,6 C 5,0 C 90 % 1008,8 hPa 0,0 l/m 11,3 km/h (2 Bft) SW 225 0 min 0,0 UV-I 18 W/m 4,1 C 1,9 C 16,1 km/h (3 Bft)
02.05.2020 07:02 5,6 C 5,0 C 90 % 1008,9 hPa 0,0 l/m 9,7 km/h (2 Bft) SW 225 0 min 0,0 UV-I 19 W/m 4,1 C 2,9 C 16,1 km/h (3 Bft)
02.05.2020 07:03 5,6 C 5,0 C 90 % 1008,9 hPa 0,0 l/m 6,4 km/h (2 Bft) S-SW 202 0 min 0,0 UV-I 23 W/m 4,1 C 5,6 C 11,3 km/h (2 Bft)
02.05.2020 07:04 5,6 C 5,0 C 90 % 1008,9 hPa 0,0 l/m 11,3 km/h (2 Bft) S-SW 202 0 min 0,0 UV-I 28 W/m 4,1 C 1,9 C 19,3 km/h (3 Bft)
02.05.2020 07:05 5,6 C 5,0 C 90 % 1009,0 hPa 0,0 l/m 11,3 km/h (2 Bft) SW 225 0 min 0,0 UV-I 26 W/m 4,1 C 1,9 C 17,7 km/h (3 Bft)
02.05.2020 07:06 5,6 C 5,0 C 89 % 1009,0 hPa 0,0 l/m 8,0 km/h (2 Bft) SW 225 0 min 0,0 UV-I 25 W/m 3,9 C 4,2 C 11,3 km/h (2 Bft)
02.05.2020 07:07 5,6 C 5,0 C 90 % 1009,0 hPa 0,0 l/m 8,0 km/h (2 Bft) SW 225 0 min 0,0 UV-I 23 W/m 4,1 C 4,2 C 11,3 km/h (2 Bft)
02.05.2020 07:08 5,6 C 5,0 C 90 % 1009,0 hPa 0,0 l/m 4,8 km/h (1 Bft) SW 225 0 min 0,0 UV-I 25 W/m 4,1 C 5,6 C 8,0 km/h (2 Bft)
02.05.2020 07:09 5,6 C 5,0 C 90 % 1009,0 hPa 0,0 l/m 8,0 km/h (2 Bft) S-SW 202 0 min 0,0 UV-I 26 W/m 4,1 C 4,2 C 9,7 km/h (2 Bft)
02.05.2020 07:10 5,6 C 5,0 C 90 % 1009,0 hPa 0,0 l/m 9,7 km/h (2 Bft) SW 225 0 min 0,0 UV-I 26 W/m 4,1 C 2,9 C 17,7 km/h (3 Bft)
02.05.2020 07:11 5,6 C 5,0 C 90 % 1009,0 hPa 0,0 l/m 11,3 km/h (2 Bft) S-SW 202 0 min 0,0 UV-I 22 W/m 4,1 C 1,9 C 14,5 km/h (3 Bft)
02.05.2020 07:12 5,6 C 5,0 C 90 % 1009,0 hPa 0,0 l/m 9,7 km/h (2 Bft) S-SW 202 0 min 0,0 UV-I 26 W/m 4,1 C 2,9 C 12,9 km/h (3 Bft)
02.05.2020 07:13 5,6 C 5,0 C 90 % 1009,0 hPa 0,0 l/m 8,0 km/h (2 Bft) S-SW 202 0 min 0,0 UV-I 33 W/m 4,1 C 4,2 C 12,9 km/h (3 Bft)
02.05.2020 07:14 5,6 C 5,0 C 90 % 1009,0 hPa 0,0 l/m 8,0 km/h (2 Bft) SW 225 0 min 0,0 UV-I 44 W/m 4,1 C 4,2 C 14,5 km/h (3 Bft)
02.05.2020 07:15 5,6 C 5,6 C 90 % 1009,0 hPa 0,0 l/m 6,4 km/h (2 Bft) SW 225 0 min 0,0 UV-I 49 W/m 4,1 C 5,6 C 9,7 km/h (2 Bft)
02.05.2020 07:16 5,6 C 5,6 C 90 % 1009,0 hPa 0,0 l/m 9,7 km/h (2 Bft) S-SW 202 0 min 0,0 UV-I 44 W/m 4,1 C 2,9 C 12,9 km/h (3 Bft)
02.05.2020 07:17 5,6 C 5,6 C 90 % 1009,1 hPa 0,0 l/m 8,0 km/h (2 Bft) SW 225 0 min 0,0 UV-I 32 W/m 4,1 C 4,2 C 11,3 km/h (2 Bft)
02.05.2020 07:18 5,6 C 5,6 C 90 % 1009,1 hPa 0,0 l/m 11,3 km/h (2 Bft) SW 225 0 min 0,0 UV-I 21 W/m 4,1 C 1,9 C 14,5 km/h (3 Bft)
02.05.2020 07:19 5,6 C 5,0 C 90 % 1009,0 hPa 0,0 l/m 8,0 km/h (2 Bft) S-SW 202 0 min 0,0 UV-I 18 W/m 4,1 C 4,2 C 12,9 km/h (3 Bft)
02.05.2020 07:20 5,6 C 5,0 C 90 % 1009,1 hPa 0,0 l/m 8,0 km/h (2 Bft) S 180 0 min 0,0 UV-I 23 W/m 4,1 C 4,2 C 14,5 km/h (3 Bft)
02.05.2020 07:21 5,6 C 5,0 C 90 % 1009,1 hPa 0,0 l/m 9,7 km/h (2 Bft) SW 225 0 min 0,0 UV-I 32 W/m 4,1 C 2,9 C 14,5 km/h (3 Bft)
02.05.2020 07:22 5,6 C 5,0 C 90 % 1009,1 hPa 0,0 l/m 8,0 km/h (2 Bft) SW 225 0 min 0,0 UV-I 31 W/m 4,1 C 4,2 C 14,5 km/h (3 Bft)
02.05.2020 07:23 5,6 C 5,6 C 90 % 1009,1 hPa 0,0 l/m 6,4 km/h (2 Bft) W-SW 247 0 min 0,0 UV-I 25 W/m 4,1 C 5,6 C 9,7 km/h (2 Bft)
02.05.2020 07:24 5,6 C 5,6 C 90 % 1009,1 hPa 0,0 l/m 4,8 km/h (1 Bft) SW 225 0 min 0,0 UV-I 23 W/m 4,1 C 5,6 C 8,0 km/h (2 Bft)
02.05.2020 07:25 5,6 C 5,6 C 90 % 1009,2 hPa 0,0 l/m 4,8 km/h (1 Bft) S-SW 202 0 min 0,0 UV-I 21 W/m 4,1 C 5,6 C 8,0 km/h (2 Bft)
02.05.2020 07:26 5,6 C 5,6 C 90 % 1009,1 hPa 0,0 l/m 11,3 km/h (2 Bft) SW 225 0 min 0,0 UV-I 21 W/m 4,1 C 1,9 C 19,3 km/h (3 Bft)
02.05.2020 07:27 5,6 C 5,0 C 90 % 1009,1 hPa 0,0 l/m 9,7 km/h (2 Bft) SW 225 0 min 0,0 UV-I 23 W/m 4,1 C 2,9 C 17,7 km/h (3 Bft)
02.05.2020 07:28 5,6 C 5,0 C 90 % 1009,2 hPa 0,0 l/m 6,4 km/h (2 Bft) SW 225 0 min 0,0 UV-I 33 W/m 4,1 C 5,6 C 11,3 km/h (2 Bft)
02.05.2020 07:29 5,6 C 5,6 C 90 % 1009,2 hPa 0,0 l/m 12,9 km/h (3 Bft) SW 225 0 min 0,0 UV-I 30 W/m 4,1 C 0,9 C 16,1 km/h (3 Bft)
02.05.2020 07:30 5,6 C 5,0 C 90 % 1009,2 hPa 0,0 l/m 8,0 km/h (2 Bft) SW 225 0 min 0,0 UV-I 35 W/m 4,1 C 4,2 C 17,7 km/h (3 Bft)
02.05.2020 07:31 5,6 C 5,6 C 90 % 1009,2 hPa 0,0 l/m 9,7 km/h (2 Bft) SW 225 0 min 0,0 UV-I 44 W/m 4,1 C 2,9 C 11,3 km/h (2 Bft)
02.05.2020 07:32 5,6 C 5,6 C 90 % 1009,2 hPa 0,0 l/m 12,9 km/h (3 Bft) SW 225 0 min 0,0 UV-I 44 W/m 4,1 C 0,9 C 22,5 km/h (4 Bft)
02.05.2020 07:33 5,6 C 5,6 C 89 % 1009,1 hPa 0,0 l/m 11,3 km/h (2 Bft) SW 225 0 min 0,0 UV-I 53 W/m 3,9 C 1,9 C 16,1 km/h (3 Bft)
02.05.2020 07:34 5,6 C 5,6 C 89 % 1009,1 hPa 0,0 l/m 9,7 km/h (2 Bft) SW 225 0 min 0,0 UV-I 46 W/m 3,9 C 2,9 C 12,9 km/h (3 Bft)
02.05.2020 07:35 5,6 C 5,6 C 89 % 1009,2 hPa 0,0 l/m 11,3 km/h (2 Bft) W-SW 247 0 min 0,0 UV-I 51 W/m 3,9 C 1,9 C 16,1 km/h (3 Bft)
02.05.2020 07:36 5,6 C 5,6 C 89 % 1009,1 hPa 0,0 l/m 11,3 km/h (2 Bft) W-SW 247 0 min 0,0 UV-I 58 W/m 3,9 C 1,9 C 19,3 km/h (3 Bft)
02.05.2020 07:37 5,6 C 5,6 C 89 % 1009,2 hPa 0,0 l/m 9,7 km/h (2 Bft) SW 225 0 min 0,0 UV-I 51 W/m 3,9 C 2,9 C 16,1 km/h (3 Bft)
02.05.2020 07:38 5,6 C 5,6 C 89 % 1009,1 hPa 0,0 l/m 11,3 km/h (2 Bft) SW 225 0 min 0,0 UV-I 60 W/m 3,9 C 1,9 C 16,1 km/h (3 Bft)
02.05.2020 07:39 5,6 C 5,6 C 89 % 1009,1 hPa 0,0 l/m 14,5 km/h (3 Bft) W-SW 247 0 min 0,0 UV-I 63 W/m 3,9 C 0,1 C 19,3 km/h (3 Bft)
02.05.2020 07:40 5,6 C 5,6 C 88 % 1009,1 hPa 0,0 l/m 11,3 km/h (2 Bft) W-SW 247 0 min 0,0 UV-I 71 W/m 3,8 C 1,9 C 16,1 km/h (3 Bft)
02.05.2020 07:41 5,7 C 5,6 C 88 % 1009,2 hPa 0,0 l/m 11,3 km/h (2 Bft) SW 225 0 min 0,0 UV-I 91 W/m 3,9 C 2,0 C 17,7 km/h (3 Bft)
02.05.2020 07:42 5,7 C 5,6 C 88 % 1009,1 hPa 0,0 l/m 9,7 km/h (2 Bft) SW 225 0 min 0,0 UV-I 91 W/m 3,9 C 3,1 C 14,5 km/h (3 Bft)
02.05.2020 07:43 5,7 C 5,6 C 88 % 1009,1 hPa 0,0 l/m 11,3 km/h (2 Bft) S-SW 202 0 min 0,0 UV-I 88 W/m 3,9 C 2,0 C 14,5 km/h (3 Bft)
02.05.2020 07:44 5,7 C 5,6 C 88 % 1009,1 hPa 0,0 l/m 6,4 km/h (2 Bft) SW 225 0 min 0,0 UV-I 70 W/m 3,9 C 5,7 C 11,3 km/h (2 Bft)
02.05.2020 07:45 5,7 C 5,6 C 89 % 1009,1 hPa 0,0 l/m 6,4 km/h (2 Bft) SW 225 0 min 0,0 UV-I 60 W/m 4,0 C 5,7 C 8,0 km/h (2 Bft)
02.05.2020 07:46 5,8 C 5,6 C 88 % 1009,2 hPa 0,0 l/m 8,0 km/h (2 Bft) SW 225 0 min 0,0 UV-I 60 W/m 4,0 C 4,4 C 14,5 km/h (3 Bft)
02.05.2020 07:47 5,8 C 5,6 C 88 % 1009,2 hPa 0,0 l/m 9,7 km/h (2 Bft) SW 225 0 min 0,0 UV-I 70 W/m 4,0 C 3,2 C 16,1 km/h (3 Bft)
02.05.2020 07:48 5,8 C 5,6 C 88 % 1009,2 hPa 0,0 l/m 8,0 km/h (2 Bft) SW 225 0 min 0,0 UV-I 74 W/m 4,0 C 4,4 C 12,9 km/h (3 Bft)
02.05.2020 07:49 5,8 C 5,6 C 88 % 1009,2 hPa 0,0 l/m 6,4 km/h (2 Bft) S-SW 202 0 min 0,0 UV-I 72 W/m 4,0 C 5,8 C 8,0 km/h (2 Bft)
02.05.2020 07:50 5,8 C 5,6 C 88 % 1009,1 hPa 0,0 l/m 6,4 km/h (2 Bft) SW 225 0 min 0,0 UV-I 67 W/m 4,0 C 5,8 C 9,7 km/h (2 Bft)
02.05.2020 07:51 5,8 C 5,6 C 88 % 1009,1 hPa 0,0 l/m 8,0 km/h (2 Bft) S-SW 202 0 min 0,0 UV-I 63 W/m 4,0 C 4,4 C 12,9 km/h (3 Bft)
02.05.2020 07:52 5,8 C 5,6 C 88 % 1009,1 hPa 0,0 l/m 4,8 km/h (1 Bft) SW 225 0 min 0,0 UV-I 71 W/m 4,0 C 5,8 C 6,4 km/h (2 Bft)
02.05.2020 07:53 5,8 C 5,6 C 88 % 1009,1 hPa 0,0 l/m 6,4 km/h (2 Bft) S-SW 202 0 min 0,0 UV-I 72 W/m 4,0 C 5,8 C 11,3 km/h (2 Bft)
02.05.2020 07:54 5,8 C 5,6 C 88 % 1009,1 hPa 0,0 l/m 6,4 km/h (2 Bft) SW 225 0 min 0,0 UV-I 72 W/m 4,0 C 5,8 C 9,7 km/h (2 Bft)
02.05.2020 07:55 5,8 C 5,6 C 88 % 1009,1 hPa 0,0 l/m 8,0 km/h (2 Bft) SW 225 0 min 0,0 UV-I 74 W/m 4,0 C 4,4 C 12,9 km/h (3 Bft)
02.05.2020 07:56 5,8 C 5,6 C 88 % 1009,1 hPa 0,0 l/m 11,3 km/h (2 Bft) S-SW 202 0 min 0,0 UV-I 83 W/m 4,0 C 2,1 C 14,5 km/h (3 Bft)
02.05.2020 07:57 5,8 C 5,6 C 88 % 1009,2 hPa 0,0 l/m 9,7 km/h (2 Bft) SW 225 0 min 0,0 UV-I 81 W/m 4,0 C 3,2 C 12,9 km/h (3 Bft)
02.05.2020 07:58 5,8 C 5,6 C 88 % 1009,1 hPa 0,0 l/m 8,0 km/h (2 Bft) SW 225 0 min 0,0 UV-I 90 W/m 4,0 C 4,4 C 11,3 km/h (2 Bft)
02.05.2020 07:59 5,8 C 6,1 C 88 % 1009,1 hPa 0,0 l/m 9,7 km/h (2 Bft) SW 225 0 min 0,0 UV-I 102 W/m 4,0 C 3,2 C 14,5 km/h (3 Bft)
02.05.2020 08:00 5,8 C 6,1 C 88 % 1009,1 hPa 0,0 l/m 11,3 km/h (2 Bft) SW 225 0 min 0,0 UV-I 97 W/m 4,0 C 2,1 C 17,7 km/h (3 Bft)
02.05.2020 08:01 5,8 C 6,1 C 88 % 1009,1 hPa 0,0 l/m 9,7 km/h (2 Bft) SW 225 0 min 0,0 UV-I 84 W/m 4,0 C 3,2 C 14,5 km/h (3 Bft)
02.05.2020 08:02 5,8 C 6,1 C 88 % 1009,1 hPa 0,0 l/m 6,4 km/h (2 Bft) SW 225 0 min 0,0 UV-I 93 W/m 4,0 C 5,8 C 8,0 km/h (2 Bft)
02.05.2020 08:03 5,9 C 6,1 C 88 % 1009,1 hPa 0,0 l/m 8,0 km/h (2 Bft) SW 225 0 min 0,0 UV-I 110 W/m 4,1 C 4,5 C 9,7 km/h (2 Bft)
02.05.2020 08:04 5,9 C 6,1 C 88 % 1009,1 hPa 0,0 l/m 6,4 km/h (2 Bft) S-SW 202 0 min 0,0 UV-I 107 W/m 4,1 C 5,9 C 8,0 km/h (2 Bft)
02.05.2020 08:05 5,9 C 6,1 C 88 % 1009,2 hPa 0,0 l/m 9,7 km/h (2 Bft) S-SW 202 0 min 0,0 UV-I 86 W/m 4,1 C 3,3 C 11,3 km/h (2 Bft)
02.05.2020 08:06 5,9 C 6,1 C 88 % 1009,1 hPa 0,0 l/m 8,0 km/h (2 Bft) S-SW 202 0 min 0,0 UV-I 65 W/m 4,1 C 4,5 C 9,7 km/h (2 Bft)
02.05.2020 08:07 5,9 C 6,1 C 88 % 1009,1 hPa 0,0 l/m 6,4 km/h (2 Bft) S-SW 202 0 min 0,0 UV-I 53 W/m 4,1 C 5,9 C 9,7 km/h (2 Bft)
02.05.2020 08:08 5,9 C 6,1 C 88 % 1009,1 hPa 0,0 l/m 6,4 km/h (2 Bft) S-SW 202 0 min 0,0 UV-I 42 W/m 4,1 C 5,9 C 8,0 km/h (2 Bft)
02.05.2020 08:09 5,9 C 6,1 C 88 % 1009,1 hPa 0,0 l/m 6,4 km/h (2 Bft) SW 225 0 min 0,0 UV-I 35 W/m 4,1 C 5,9 C 8,0 km/h (2 Bft)
02.05.2020 08:10 5,9 C 5,6 C 88 % 1009,1 hPa 0,0 l/m 8,0 km/h (2 Bft) S-SW 202 0 min 0,0 UV-I 37 W/m 4,1 C 4,5 C 9,7 km/h (2 Bft)
02.05.2020 08:11 5,8 C 5,6 C 88 % 1009,1 hPa 0,0 l/m 8,0 km/h (2 Bft) S-SW 202 0 min 0,0 UV-I 32 W/m 4,0 C 4,4 C 14,5 km/h (3 Bft)
02.05.2020 08:12 5,9 C 5,6 C 88 % 1009,1 hPa 0,0 l/m 9,7 km/h (2 Bft) SW 225 0 min 0,0 UV-I 26 W/m 4,1 C 3,3 C 14,5 km/h (3 Bft)
02.05.2020 08:13 5,8 C 5,6 C 88 % 1009,1 hPa 0,0 l/m 11,3 km/h (2 Bft) S-SW 202 0 min 0,0 UV-I 25 W/m 4,0 C 2,1 C 14,5 km/h (3 Bft)
02.05.2020 08:14 5,8 C 5,6 C 88 % 1009,1 hPa 0,0 l/m 11,3 km/h (2 Bft) SW 225 0 min 0,0 UV-I 21 W/m 4,0 C 2,1 C 14,5 km/h (3 Bft)
02.05.2020 08:15 5,8 C 5,6 C 89 % 1009,1 hPa 0,0 l/m 11,3 km/h (2 Bft) S-SW 202 0 min 0,0 UV-I 21 W/m 4,1 C 2,1 C 16,1 km/h (3 Bft)
02.05.2020 08:16 5,8 C 5,6 C 89 % 1009,0 hPa 0,0 l/m 6,4 km/h (2 Bft) SW 225 0 min 0,0 UV-I 26 W/m 4,1 C 5,8 C 11,3 km/h (2 Bft)
02.05.2020 08:17 5,8 C 5,6 C 89 % 1009,1 hPa 0,0 l/m 12,9 km/h (3 Bft) S-SW 202 0 min 0,0 UV-I 28 W/m 4,1 C 1,2 C 16,1 km/h (3 Bft)
02.05.2020 08:18 5,8 C 5,6 C 89 % 1009,1 hPa 0,0 l/m 11,3 km/h (2 Bft) S-SW 202 0 min 0,0 UV-I 26 W/m 4,1 C 2,1 C 16,1 km/h (3 Bft)
02.05.2020 08:19 5,7 C 5,6 C 89 % 1009,1 hPa 0,0 l/m 12,9 km/h (3 Bft) SW 225 0 min 0,0 UV-I 30 W/m 4,0 C 1,0 C 16,1 km/h (3 Bft)
02.05.2020 08:20 5,7 C 5,6 C 89 % 1009,2 hPa 0,0 l/m 9,7 km/h (2 Bft) S-SW 202 0 min 0,0 UV-I 33 W/m 4,0 C 3,1 C 12,9 km/h (3 Bft)
02.05.2020 08:21 5,7 C 5,0 C 89 % 1009,1 hPa 0,0 l/m 11,3 km/h (2 Bft) S-SW 202 0 min 0,0 UV-I 29 W/m 4,0 C 2,0 C 16,1 km/h (3 Bft)
02.05.2020 08:22 5,7 C 5,0 C 89 % 1009,2 hPa 0,0 l/m 9,7 km/h (2 Bft) SW 225 0 min 0,0 UV-I 26 W/m 4,0 C 3,1 C 14,5 km/h (3 Bft)
02.05.2020 08:23 5,7 C 5,0 C 89 % 1009,2 hPa 0,2 l/m 8,0 km/h (2 Bft) S-SW 202 0 min 0,0 UV-I 25 W/m 4,0 C 4,3 C 12,9 km/h (3 Bft)
02.05.2020 08:24 5,7 C 5,0 C 89 % 1009,2 hPa 0,0 l/m 9,7 km/h (2 Bft) SW 225 0 min 0,0 UV-I 25 W/m 4,0 C 3,1 C 14,5 km/h (3 Bft)
02.05.2020 08:25 5,7 C 5,0 C 90 % 1009,2 hPa 0,0 l/m 12,9 km/h (3 Bft) W 270 0 min 0,0 UV-I 32 W/m 4,2 C 1,0 C 17,7 km/h (3 Bft)
02.05.2020 08:26 5,6 C 5,0 C 90 % 1009,2 hPa 0,0 l/m 11,3 km/h (2 Bft) SW 225 0 min 0,0 UV-I 35 W/m 4,1 C 1,9 C 14,5 km/h (3 Bft)
02.05.2020 08:27 5,6 C 5,0 C 90 % 1009,3 hPa 0,2 l/m 11,3 km/h (2 Bft) SW 225 0 min 0,0 UV-I 32 W/m 4,1 C 1,9 C 14,5 km/h (3 Bft)
02.05.2020 08:28 5,6 C 5,0 C 90 % 1009,2 hPa 0,0 l/m 19,3 km/h (3 Bft) SW 225 0 min 0,0 UV-I 39 W/m 4,1 C -2,1 C 27,4 km/h (4 Bft)
02.05.2020 08:29 5,6 C 5,0 C 89 % 1009,3 hPa 0,0 l/m 14,5 km/h (3 Bft) SW 225 0 min 0,0 UV-I 39 W/m 3,9 C 0,1 C 24,1 km/h (4 Bft)
02.05.2020 08:30 5,5 C 5,0 C 89 % 1009,3 hPa 0,0 l/m 14,5 km/h (3 Bft) W-SW 247 0 min 0,0 UV-I 42 W/m 3,8 C -0,1 C 25,7 km/h (4 Bft)
02.05.2020 08:31 5,5 C 5,0 C 89 % 1009,3 hPa 0,2 l/m 12,9 km/h (3 Bft) SW 225 0 min 0,0 UV-I 47 W/m 3,8 C 0,8 C 20,9 km/h (4 Bft)
02.05.2020 08:32 5,4 C 5,0 C 89 % 1009,3 hPa 0,0 l/m 12,9 km/h (3 Bft) S-SW 202 0 min 0,0 UV-I 56 W/m 3,7 C 0,7 C 19,3 km/h (3 Bft)
02.05.2020 08:33 5,4 C 5,0 C 89 % 1009,3 hPa 0,0 l/m 9,7 km/h (2 Bft) W-SW 247 0 min 0,0 UV-I 50 W/m 3,7 C 2,7 C 12,9 km/h (3 Bft)
02.05.2020 08:34 5,3 C 5,0 C 90 % 1009,4 hPa 0,0 l/m 11,3 km/h (2 Bft) W-SW 247 0 min 0,0 UV-I 40 W/m 3,8 C 1,5 C 24,1 km/h (4 Bft)
02.05.2020 08:35 5,3 C 4,4 C 90 % 1009,4 hPa 0,2 l/m 16,1 km/h (3 Bft) SW 225 0 min 0,0 UV-I 39 W/m 3,8 C -1,1 C 27,4 km/h (4 Bft)
02.05.2020 08:36 5,3 C 4,4 C 90 % 1009,4 hPa 0,0 l/m 16,1 km/h (3 Bft) SW 225 0 min 0,0 UV-I 33 W/m 3,8 C -1,1 C 24,1 km/h (4 Bft)
02.05.2020 08:37 5,2 C 4,4 C 89 % 1009,5 hPa 0,0 l/m 12,9 km/h (3 Bft) W-SW 247 0 min 0,0 UV-I 35 W/m 3,5 C 0,5 C 19,3 km/h (3 Bft)
02.05.2020 08:38 5,2 C 4,4 C 89 % 1009,5 hPa 0,2 l/m 12,9 km/h (3 Bft) SW 225 0 min 0,0 UV-I 42 W/m 3,5 C 0,5 C 17,7 km/h (3 Bft)
02.05.2020 08:39 5,1 C 4,4 C 89 % 1009,5 hPa 0,0 l/m 16,1 km/h (3 Bft) SW 225 0 min 0,0 UV-I 52 W/m 3,4 C -1,3 C 24,1 km/h (4 Bft)
02.05.2020 08:40 5,0 C 4,4 C 89 % 1009,4 hPa 0,2 l/m 12,9 km/h (3 Bft) W-SW 247 0 min 0,0 UV-I 53 W/m 3,3 C 0,2 C 16,1 km/h (3 Bft)
02.05.2020 08:41 4,9 C 4,4 C 89 % 1009,5 hPa 0,0 l/m 12,9 km/h (3 Bft) SW 225 0 min 0,0 UV-I 51 W/m 3,2 C 0,1 C 22,5 km/h (4 Bft)
02.05.2020 08:42 4,9 C 4,4 C 90 % 1009,4 hPa 0,0 l/m 12,9 km/h (3 Bft) SW 225 0 min 0,0 UV-I 46 W/m 3,4 C 0,1 C 20,9 km/h (4 Bft)
02.05.2020 08:43 4,8 C 4,4 C 90 % 1009,4 hPa 0,0 l/m 9,7 km/h (2 Bft) W-SW 247 0 min 0,0 UV-I 40 W/m 3,3 C 2,1 C 16,1 km/h (3 Bft)
02.05.2020 08:44 4,8 C 4,4 C 90 % 1009,5 hPa 0,0 l/m 8,0 km/h (2 Bft) SW 225 0 min 0,0 UV-I 41 W/m 3,3 C 3,4 C 12,9 km/h (3 Bft)
02.05.2020 08:45 4,8 C 4,4 C 90 % 1009,4 hPa 0,0 l/m 6,4 km/h (2 Bft) W-SW 247 0 min 0,0 UV-I 63 W/m 3,3 C 4,8 C 9,7 km/h (2 Bft)
02.05.2020 08:46 4,8 C 4,4 C 90 % 1009,4 hPa 0,0 l/m 8,0 km/h (2 Bft) S-SW 202 0 min 0,0 UV-I 70 W/m 3,3 C 3,4 C 12,9 km/h (3 Bft)
02.05.2020 08:47 4,7 C 4,4 C 90 % 1009,6 hPa 0,0 l/m 8,0 km/h (2 Bft) S-SW 202 0 min 0,0 UV-I 77 W/m 3,2 C 3,3 C 12,9 km/h (3 Bft)
02.05.2020 08:48 4,7 C 4,4 C 90 % 1009,4 hPa 0,0 l/m 8,0 km/h (2 Bft) W-SW 247 0 min 0,0 UV-I 79 W/m 3,2 C 3,3 C 11,3 km/h (2 Bft)
02.05.2020 08:49 4,8 C 4,4 C 91 % 1009,4 hPa 0,0 l/m 6,4 km/h (2 Bft) S-SW 202 0 min 0,0 UV-I 74 W/m 3,5 C 4,8 C 9,7 km/h (2 Bft)
02.05.2020 08:50 4,8 C 4,4 C 91 % 1009,5 hPa 0,0 l/m 8,0 km/h (2 Bft) SW 225 0 min 0,0 UV-I 68 W/m 3,5 C 3,4 C 12,9 km/h (3 Bft)
02.05.2020 08:51 4,8 C 4,4 C 91 % 1009,5 hPa 0,0 l/m 8,0 km/h (2 Bft) S-SW 202 0 min 0,0 UV-I 72 W/m 3,5 C 3,4 C 12,9 km/h (3 Bft)
02.05.2020 08:52 4,8 C 4,4 C 91 % 1009,5 hPa 0,0 l/m 8,0 km/h (2 Bft) S-SW 202 0 min 0,5 UV-I 81 W/m 3,5 C 3,4 C 12,9 km/h (3 Bft)
02.05.2020 08:53 4,8 C 4,4 C 91 % 1009,4 hPa 0,0 l/m 6,4 km/h (2 Bft) W-SW 247 0 min 0,6 UV-I 95 W/m 3,5 C 4,8 C 9,7 km/h (2 Bft)
02.05.2020 08:54 4,8 C 4,4 C 91 % 1009,4 hPa 0,0 l/m 8,0 km/h (2 Bft) S-SW 202 0 min 0,6 UV-I 104 W/m 3,5 C 3,4 C 12,9 km/h (3 Bft)
02.05.2020 08:55 4,8 C 5,0 C 91 % 1009,3 hPa 0,0 l/m 8,0 km/h (2 Bft) S-SW 202 0 min 0,7 UV-I 113 W/m 3,5 C 3,4 C 11,3 km/h (2 Bft)
02.05.2020 08:56 4,8 C 5,0 C 91 % 1009,4 hPa 0,0 l/m 8,0 km/h (2 Bft) SW 225 0 min 0,8 UV-I 122 W/m 3,5 C 3,4 C 12,9 km/h (3 Bft)
02.05.2020 08:57 4,8 C 5,0 C 91 % 1009,4 hPa 0,0 l/m 6,4 km/h (2 Bft) SW 225 0 min 0,9 UV-I 135 W/m 3,5 C 4,8 C 9,7 km/h (2 Bft)
02.05.2020 08:58 4,9 C 5,0 C 91 % 1009,4 hPa 0,0 l/m 11,3 km/h (2 Bft) SW 225 0 min 1,0 UV-I 137 W/m 3,6 C 1,1 C 17,7 km/h (3 Bft)
02.05.2020 08:59 4,9 C 5,0 C 91 % 1009,4 hPa 0,0 l/m 9,7 km/h (2 Bft) S-SW 202 0 min 1,0 UV-I 144 W/m 3,6 C 2,2 C 12,9 km/h (3 Bft)
02.05.2020 09:00 4,9 C 5,0 C 91 % 1009,4 hPa 0,0 l/m 8,0 km/h (2 Bft) W-SW 247 0 min 1,0 UV-I 151 W/m 3,6 C 3,5 C 14,5 km/h (3 Bft)
02.05.2020 09:01 4,9 C 5,0 C 91 % 1009,3 hPa 0,0 l/m 11,3 km/h (2 Bft) SW 225 0 min 1,1 UV-I 165 W/m 3,6 C 1,1 C 17,7 km/h (3 Bft)
02.05.2020 09:02 5,0 C 5,6 C 91 % 1009,4 hPa 0,0 l/m 9,7 km/h (2 Bft) SW 225 0 min 1,1 UV-I 205 W/m 3,7 C 2,3 C 12,9 km/h (3 Bft)
02.05.2020 09:03 5,0 C 5,6 C 91 % 1009,4 hPa 0,0 l/m 4,8 km/h (1 Bft) W 270 0 min 1,0 UV-I 199 W/m 3,7 C 5,0 C 6,4 km/h (2 Bft)
02.05.2020 09:04 5,1 C 5,6 C 91 % 1009,5 hPa 0,0 l/m 6,4 km/h (2 Bft) SW 225 0 min 0,9 UV-I 185 W/m 3,8 C 5,1 C 9,7 km/h (2 Bft)
02.05.2020 09:05 5,2 C 5,6 C 92 % 1009,4 hPa 0,0 l/m 8,0 km/h (2 Bft) W-SW 247 0 min 0,9 UV-I 186 W/m 4,0 C 3,8 C 12,9 km/h (3 Bft)
02.05.2020 09:06 5,3 C 6,1 C 91 % 1009,4 hPa 0,0 l/m 8,0 km/h (2 Bft) SW 225 0 min 0,9 UV-I 183 W/m 4,0 C 3,9 C 16,1 km/h (3 Bft)
02.05.2020 09:07 5,3 C 6,1 C 91 % 1009,4 hPa 0,0 l/m 11,3 km/h (2 Bft) SW 225 0 min 1,0 UV-I 185 W/m 4,0 C 1,5 C 16,1 km/h (3 Bft)
02.05.2020 09:08 5,3 C 5,6 C 91 % 1009,5 hPa 0,0 l/m 11,3 km/h (2 Bft) W-SW 247 0 min 1,0 UV-I 194 W/m 4,0 C 1,5 C 16,1 km/h (3 Bft)
02.05.2020 09:09 5,3 C 5,6 C 90 % 1009,7 hPa 0,0 l/m 11,3 km/h (2 Bft) SW 225 0 min 1,1 UV-I 211 W/m 3,8 C 1,5 C 19,3 km/h (3 Bft)
02.05.2020 09:10 5,3 C 6,1 C 91 % 1009,4 hPa 0,0 l/m 6,4 km/h (2 Bft) SW 225 0 min 1,1 UV-I 211 W/m 4,0 C 5,3 C 12,9 km/h (3 Bft)
02.05.2020 09:11 5,4 C 6,1 C 91 % 1009,5 hPa 0,0 l/m 6,4 km/h (2 Bft) SW 225 0 min 1,0 UV-I 216 W/m 4,1 C 5,4 C 11,3 km/h (2 Bft)
02.05.2020 09:12 5,5 C 6,1 C 91 % 1009,5 hPa 0,0 l/m 9,7 km/h (2 Bft) SW 225 0 min 0,8 UV-I 186 W/m 4,2 C 2,8 C 14,5 km/h (3 Bft)
02.05.2020 09:13 5,6 C 6,1 C 91 % 1009,6 hPa 0,0 l/m 11,3 km/h (2 Bft) SW 225 0 min 0,8 UV-I 193 W/m 4,2 C 1,9 C 16,1 km/h (3 Bft)
02.05.2020 09:14 5,6 C 6,1 C 91 % 1009,7 hPa 0,0 l/m 8,0 km/h (2 Bft) SW 225 0 min 0,9 UV-I 211 W/m 4,2 C 4,2 C 14,5 km/h (3 Bft)
02.05.2020 09:15 5,7 C 6,1 C 91 % 1009,6 hPa 0,0 l/m 9,7 km/h (2 Bft) SW 225 0 min 0,8 UV-I 179 W/m 4,3 C 3,1 C 16,1 km/h (3 Bft)
02.05.2020 09:16 5,7 C 6,1 C 91 % 1009,6 hPa 0,0 l/m 9,7 km/h (2 Bft) W-SW 247 0 min 0,7 UV-I 144 W/m 4,3 C 3,1 C 12,9 km/h (3 Bft)
02.05.2020 09:17 5,7 C 6,1 C 91 % 1009,7 hPa 0,0 l/m 12,9 km/h (3 Bft) W 270 0 min 0,5 UV-I 113 W/m 4,3 C 1,0 C 22,5 km/h (4 Bft)
02.05.2020 09:18 5,7 C 6,1 C 91 % 1009,7 hPa 0,0 l/m 12,9 km/h (3 Bft) SW 225 0 min 0,5 UV-I 102 W/m 4,3 C 1,0 C 17,7 km/h (3 Bft)
02.05.2020 09:19 5,7 C 6,1 C 90 % 1009,6 hPa 0,0 l/m 12,9 km/h (3 Bft) W-SW 247 0 min 0,0 UV-I 90 W/m 4,2 C 1,0 C 17,7 km/h (3 Bft)
02.05.2020 09:20 5,6 C 5,6 C 90 % 1009,7 hPa 0,0 l/m 12,9 km/h (3 Bft) W-SW 247 0 min 0,0 UV-I 71 W/m 4,1 C 0,9 C 17,7 km/h (3 Bft)
02.05.2020 09:21 5,6 C 5,6 C 90 % 1009,7 hPa 0,0 l/m 16,1 km/h (3 Bft) W-SW 247 0 min 0,0 UV-I 51 W/m 4,1 C -0,7 C 20,9 km/h (4 Bft)
02.05.2020 09:22 5,4 C 5,0 C 90 % 1009,6 hPa 0,2 l/m 16,1 km/h (3 Bft) SW 225 0 min 0,0 UV-I 53 W/m 3,9 C -1,0 C 24,1 km/h (4 Bft)
02.05.2020 09:23 5,4 C 5,0 C 89 % 1009,6 hPa 0,0 l/m 14,5 km/h (3 Bft) W-SW 247 0 min 0,0 UV-I 53 W/m 3,7 C -0,2 C 19,3 km/h (3 Bft)
02.05.2020 09:24 5,3 C 4,4 C 89 % 1009,7 hPa 0,0 l/m 17,7 km/h (3 Bft) W-SW 247 0 min 0,0 UV-I 51 W/m 3,6 C -1,8 C 22,5 km/h (4 Bft)
02.05.2020 09:25 5,2 C 4,4 C 89 % 1009,7 hPa 0,0 l/m 11,3 km/h (2 Bft) SW 225 0 min 0,0 UV-I 40 W/m 3,5 C 1,4 C 19,3 km/h (3 Bft)
02.05.2020 09:26 5,2 C 4,4 C 89 % 1009,7 hPa 0,0 l/m 11,3 km/h (2 Bft) SW 225 0 min 0,0 UV-I 30 W/m 3,5 C 1,4 C 14,5 km/h (3 Bft)
02.05.2020 09:27 5,1 C 4,4 C 89 % 1009,7 hPa 0,0 l/m 11,3 km/h (2 Bft) SW 225 0 min 0,0 UV-I 32 W/m 3,4 C 1,3 C 17,7 km/h (3 Bft)
02.05.2020 09:28 5,1 C 4,4 C 89 % 1009,8 hPa 0,0 l/m 11,3 km/h (2 Bft) SW 225 0 min 0,0 UV-I 42 W/m 3,4 C 1,3 C 14,5 km/h (3 Bft)
02.05.2020 09:29 5,1 C 4,4 C 89 % 1009,7 hPa 0,0 l/m 8,0 km/h (2 Bft) SW 225 0 min 0,0 UV-I 53 W/m 3,4 C 3,7 C 14,5 km/h (3 Bft)
02.05.2020 09:30 5,1 C 4,4 C 90 % 1009,7 hPa 0,0 l/m 8,0 km/h (2 Bft) SW 225 0 min 0,5 UV-I 67 W/m 3,6 C 3,7 C 11,3 km/h (2 Bft)
02.05.2020 09:31 5,1 C 4,4 C 90 % 1009,8 hPa 0,0 l/m 6,4 km/h (2 Bft) SW 225 0 min 0,6 UV-I 104 W/m 3,6 C 5,1 C 9,7 km/h (2 Bft)
02.05.2020 09:32 5,1 C 5,0 C 90 % 1009,8 hPa 0,0 l/m 6,4 km/h (2 Bft) S-SW 202 0 min 0,8 UV-I 137 W/m 3,6 C 5,1 C 11,3 km/h (2 Bft)
02.05.2020 09:33 5,1 C 5,0 C 90 % 1009,8 hPa 0,0 l/m 12,9 km/h (3 Bft) SW 225 0 min 1,0 UV-I 165 W/m 3,6 C 0,3 C 17,7 km/h (3 Bft)
02.05.2020 09:34 5,1 C 5,0 C 90 % 1009,7 hPa 0,0 l/m 8,0 km/h (2 Bft) SW 225 0 min 1,2 UV-I 213 W/m 3,6 C 3,7 C 12,9 km/h (3 Bft)
02.05.2020 09:35 5,2 C 5,6 C 91 % 1009,8 hPa 0,0 l/m 9,7 km/h (2 Bft) W-SW 247 0 min 1,4 UV-I 265 W/m 3,9 C 2,5 C 12,9 km/h (3 Bft)
02.05.2020 09:36 5,2 C 5,6 C 90 % 1009,7 hPa 0,0 l/m 8,0 km/h (2 Bft) W-SW 247 0 min 1,5 UV-I 299 W/m 3,7 C 3,8 C 12,9 km/h (3 Bft)
02.05.2020 09:37 5,3 C 6,1 C 91 % 1009,7 hPa 0,0 l/m 11,3 km/h (2 Bft) SW 225 0 min 1,5 UV-I 304 W/m 4,0 C 1,5 C 16,1 km/h (3 Bft)
02.05.2020 09:38 5,5 C 6,1 C 91 % 1009,7 hPa 0,0 l/m 6,4 km/h (2 Bft) SW 225 0 min 1,4 UV-I 316 W/m 4,2 C 5,5 C 11,3 km/h (2 Bft)
02.05.2020 09:39 5,6 C 6,7 C 91 % 1009,8 hPa 0,0 l/m 11,3 km/h (2 Bft) W-SW 247 0 min 1,3 UV-I 299 W/m 4,2 C 1,9 C 19,3 km/h (3 Bft)
02.05.2020 09:40 5,7 C 6,7 C 91 % 1009,8 hPa 0,0 l/m 11,3 km/h (2 Bft) W-SW 247 0 min 1,1 UV-I 250 W/m 4,3 C 2,0 C 16,1 km/h (3 Bft)
02.05.2020 09:41 5,8 C 6,7 C 91 % 1009,8 hPa 0,0 l/m 9,7 km/h (2 Bft) W-SW 247 0 min 0,8 UV-I 250 W/m 4,4 C 3,2 C 12,9 km/h (3 Bft)
02.05.2020 09:42 5,8 C 6,7 C 91 % 1009,9 hPa 0,0 l/m 6,4 km/h (2 Bft) SW 225 0 min 0,5 UV-I 250 W/m 4,4 C 5,8 C 16,1 km/h (3 Bft)
02.05.2020 09:43 5,9 C 6,7 C 91 % 1009,9 hPa 0,0 l/m 8,0 km/h (2 Bft) SW 225 0 min 0,0 UV-I 69 W/m 4,5 C 4,5 C 12,9 km/h (3 Bft)
02.05.2020 09:44 5,8 C 6,1 C 91 % 1009,9 hPa 0,2 l/m 11,3 km/h (2 Bft) SW 225 0 min 0,0 UV-I 49 W/m 4,4 C 2,1 C 16,1 km/h (3 Bft)
02.05.2020 09:46 5,7 C 5,0 C 90 % 1009,9 hPa 0,2 l/m 12,1 km/h (2 Bft) SW 219 0 min 0,0 UV-I 53 W/m 4,2 C 1,5 C 16,1 km/h (3 Bft)
02.05.2020 09:48 5,5 C 5,0 C 90 % 1010,0 hPa 0,0 l/m 10,8 km/h (2 Bft) SW 232 0 min 0,0 UV-I 62 W/m 4,0 C 2,1 C 16,1 km/h (3 Bft)
02.05.2020 09:50 5,3 C 5,0 C 90 % 1010,0 hPa 0,2 l/m 10,1 km/h (2 Bft) S 177 0 min 0,0 UV-I 66 W/m 3,8 C 2,3 C 20,9 km/h (4 Bft)
02.05.2020 09:52 5,3 C 5,0 C 90 % 1010,0 hPa 0,0 l/m 12,3 km/h (3 Bft) S-SW 213 0 min 0,0 UV-I 71 W/m 3,8 C 0,9 C 20,9 km/h (4 Bft)
02.05.2020 09:54 5,1 C 4,4 C 90 % 1010,1 hPa 0,2 l/m 12,0 km/h (2 Bft) W-SW 242 0 min 0,0 UV-I 62 W/m 3,6 C 0,9 C 19,3 km/h (3 Bft)
02.05.2020 09:56 4,9 C 4,4 C 90 % 1010,2 hPa 0,2 l/m 17,2 km/h (3 Bft) SW 227 0 min 0,3 UV-I 70 W/m 3,4 C -2,1 C 25,7 km/h (4 Bft)
02.05.2020 09:58 4,9 C 4,4 C 90 % 1010,1 hPa 0,2 l/m 13,9 km/h (3 Bft) S-SW 198 0 min 0,7 UV-I 105 W/m 3,4 C -0,5 C 19,3 km/h (3 Bft)
02.05.2020 10:00 4,8 C 4,4 C 90 % 1010,1 hPa 0,0 l/m 12,7 km/h (3 Bft) SW 227 0 min 0,8 UV-I 131 W/m 3,3 C 0,1 C 20,9 km/h (4 Bft)
02.05.2020 10:02 4,9 C 5,0 C 91 % 1010,1 hPa 0,0 l/m 7,6 km/h (2 Bft) SW 234 0 min 0,9 UV-I 152 W/m 3,6 C 3,8 C 16,1 km/h (3 Bft)
02.05.2020 10:04 5,1 C 5,0 C 91 % 1010,2 hPa 0,0 l/m 6,2 km/h (2 Bft) W-SW 244 0 min 1,0 UV-I 169 W/m 3,8 C 5,1 C 14,5 km/h (3 Bft)
02.05.2020 10:06 5,2 C 5,6 C 91 % 1010,2 hPa 0,0 l/m 9,4 km/h (2 Bft) W-SW 248 0 min 1,1 UV-I 177 W/m 3,9 C 2,7 C 17,7 km/h (3 Bft)
02.05.2020 10:08 5,3 C 5,6 C 91 % 1010,2 hPa 0,0 l/m 15,6 km/h (3 Bft) W-SW 242 0 min 1,3 UV-I 222 W/m 4,0 C -0,9 C 24,1 km/h (4 Bft)
02.05.2020 10:10 5,4 C 5,6 C 90 % 1010,3 hPa 0,0 l/m 17,0 km/h (3 Bft) W 260 0 min 1,4 UV-I 238 W/m 3,9 C -1,4 C 27,4 km/h (4 Bft)
02.05.2020 10:12 5,6 C 6,1 C 91 % 1010,2 hPa 0,0 l/m 9,9 km/h (2 Bft) S 190 0 min 1,5 UV-I 248 W/m 4,2 C 2,8 C 16,1 km/h (3 Bft)
02.05.2020 10:14 5,7 C 6,1 C 90 % 1010,3 hPa 0,0 l/m 14,2 km/h (3 Bft) W 261 0 min 1,8 UV-I 264 W/m 4,2 C 0,3 C 22,5 km/h (4 Bft)
02.05.2020 10:16 5,9 C 6,7 C 91 % 1010,2 hPa 0,0 l/m 11,3 km/h (2 Bft) S-SW 206 0 min 1,9 UV-I 310 W/m 4,5 C 2,2 C 19,3 km/h (3 Bft)
02.05.2020 10:18 6,2 C 7,2 C 91 % 1010,3 hPa 0,0 l/m 13,5 km/h (3 Bft) SW 234 0 min 2,0 UV-I 320 W/m 4,8 C 1,3 C 29,0 km/h (5 Bft)
02.05.2020 10:20 6,2 C 7,2 C 89 % 1010,3 hPa 0,0 l/m 14,1 km/h (3 Bft) SW 227 0 min 2,1 UV-I 346 W/m 4,5 C 1,0 C 19,3 km/h (3 Bft)
02.05.2020 10:22 6,3 C 7,8 C 90 % 1010,2 hPa 0,0 l/m 9,3 km/h (2 Bft) S-SW 211 0 min 2,5 UV-I 441 W/m 4,8 C 4,0 C 16,1 km/h (3 Bft)
02.05.2020 10:24 6,5 C 7,8 C 90 % 1010,2 hPa 0,0 l/m 12,7 km/h (3 Bft) W-NW 295 0 min 2,3 UV-I 389 W/m 5,0 C 2,1 C 19,3 km/h (3 Bft)
02.05.2020 10:26 6,8 C 8,3 C 90 % 1010,2 hPa 0,0 l/m 10,7 km/h (2 Bft) SW 236 0 min 2,8 UV-I 360 W/m 5,3 C 3,6 C 19,3 km/h (3 Bft)
02.05.2020 10:28 6,9 C 8,9 C 90 % 1010,1 hPa 0,0 l/m 13,4 km/h (3 Bft) SW 231 0 min 2,6 UV-I 321 W/m 5,4 C 2,2 C 24,1 km/h (4 Bft)
02.05.2020 10:30 6,9 C 8,3 C 89 % 1010,2 hPa 0,0 l/m 16,2 km/h (3 Bft) S-SW 205 0 min 2,5 UV-I 392 W/m 5,2 C 0,8 C 27,4 km/h (4 Bft)
02.05.2020 10:32 7,0 C 8,3 C 89 % 1010,2 hPa 0,0 l/m 11,6 km/h (2 Bft) W-SW 245 0 min 2,6 UV-I 404 W/m 5,3 C 3,3 C 19,3 km/h (3 Bft)
02.05.2020 10:34 7,2 C 8,9 C 89 % 1010,1 hPa 0,0 l/m 12,8 km/h (3 Bft) S-SW 201 0 min 2,9 UV-I 338 W/m 5,5 C 2,8 C 29,0 km/h (5 Bft)
02.05.2020 10:36 7,2 C 8,9 C 88 % 1010,1 hPa 0,0 l/m 11,4 km/h (2 Bft) SW 221 0 min 2,5 UV-I 307 W/m 5,3 C 3,6 C 19,3 km/h (3 Bft)
02.05.2020 10:38 7,2 C 8,3 C 87 % 1010,2 hPa 0,0 l/m 14,1 km/h (3 Bft) SW 216 0 min 1,8 UV-I 280 W/m 5,2 C 2,2 C 24,1 km/h (4 Bft)
02.05.2020 10:40 7,2 C 8,9 C 88 % 1010,2 hPa 0,0 l/m 12,4 km/h (3 Bft) SW 219 0 min 2,3 UV-I 296 W/m 5,3 C 3,1 C 20,9 km/h (4 Bft)
02.05.2020 10:42 7,3 C 8,9 C 87 % 1010,3 hPa 0,0 l/m 14,1 km/h (3 Bft) W-SW 256 0 min 1,5 UV-I 262 W/m 5,3 C 2,3 C 27,4 km/h (4 Bft)
02.05.2020 10:44 7,2 C 8,3 C 87 % 1010,1 hPa 0,0 l/m 14,0 km/h (3 Bft) W-SW 238 0 min 1,1 UV-I 209 W/m 5,2 C 2,2 C 27,4 km/h (4 Bft)
02.05.2020 10:46 7,0 C 7,8 C 85 % 1010,2 hPa 0,0 l/m 20,1 km/h (4 Bft) W 279 0 min 1,3 UV-I 183 W/m 4,7 C -0,6 C 30,6 km/h (5 Bft)
02.05.2020 10:48 6,9 C 7,8 C 86 % 1010,3 hPa 0,0 l/m 10,5 km/h (2 Bft) W-SW 247 0 min 2,0 UV-I 288 W/m 4,7 C 3,8 C 19,3 km/h (3 Bft)
02.05.2020 10:50 7,1 C 8,9 C 87 % 1010,3 hPa 0,0 l/m 12,2 km/h (2 Bft) S-SW 199 0 min 3,1 UV-I 248 W/m 5,1 C 3,1 C 24,1 km/h (4 Bft)
02.05.2020 10:52 7,6 C 10,6 C 89 % 1010,2 hPa 0,0 l/m 11,7 km/h (2 Bft) W 264 0 min 3,7 UV-I 473 W/m 5,9 C 3,9 C 30,6 km/h (5 Bft)
02.05.2020 10:54 8,2 C 10,6 C 89 % 1010,3 hPa 0,0 l/m 16,4 km/h (3 Bft) W 262 2 min 3,8 UV-I 867 W/m 6,5 C 2,3 C 25,7 km/h (4 Bft)
02.05.2020 10:56 8,6 C 11,7 C 87 % 1010,2 hPa 0,0 l/m 16,2 km/h (3 Bft) W-SW 244 2 min 4,1 UV-I 878 W/m 6,6 C 2,9 C 33,8 km/h (5 Bft)
02.05.2020 10:58 8,7 C 11,1 C 85 % 1010,3 hPa 0,0 l/m 14,5 km/h (3 Bft) W-SW 237 2 min 3,8 UV-I 917 W/m 6,3 C 3,8 C 24,1 km/h (4 Bft)
02.05.2020 11:00 8,4 C 11,1 C 84 % 1010,3 hPa 0,0 l/m 18,3 km/h (3 Bft) W-SW 257 2 min 3,1 UV-I 906 W/m 5,9 C 1,8 C 30,6 km/h (5 Bft)
02.05.2020 11:02 8,1 C 10,0 C 83 % 1010,2 hPa 0,0 l/m 19,9 km/h (4 Bft) SW 219 2 min 2,8 UV-I 895 W/m 5,4 C 0,9 C 35,4 km/h (5 Bft)
02.05.2020 11:04 7,7 C 8,9 C 83 % 1010,4 hPa 0,0 l/m 19,3 km/h (3 Bft) S-SW 213 2 min 1,8 UV-I 628 W/m 5,0 C 0,6 C 30,6 km/h (5 Bft)
02.05.2020 11:06 7,2 C 7,8 C 83 % 1010,3 hPa 0,0 l/m 18,2 km/h (3 Bft) S-SW 202 0 min 1,5 UV-I 240 W/m 4,5 C 0,4 C 30,6 km/h (5 Bft)
02.05.2020 11:08 6,8 C 7,2 C 85 % 1010,4 hPa 0,0 l/m 18,3 km/h (3 Bft) SW 225 0 min 1,2 UV-I 204 W/m 4,5 C -0,2 C 29,0 km/h (5 Bft)
02.05.2020 11:10 6,6 C 6,7 C 85 % 1010,6 hPa 0,0 l/m 18,3 km/h (3 Bft) S-SW 207 0 min 1,0 UV-I 168 W/m 4,3 C -0,4 C 30,6 km/h (5 Bft)
02.05.2020 11:12 6,2 C 6,1 C 84 % 1010,6 hPa 0,0 l/m 19,9 km/h (4 Bft) W 261 0 min 1,0 UV-I 158 W/m 3,7 C -1,6 C 30,6 km/h (5 Bft)
02.05.2020 11:14 6,0 C 6,1 C 85 % 1010,6 hPa 0,0 l/m 19,8 km/h (3 Bft) W-NW 288 0 min 1,3 UV-I 202 W/m 3,7 C -1,8 C 32,2 km/h (5 Bft)
02.05.2020 11:16 5,9 C 5,6 C 86 % 1010,6 hPa 0,0 l/m 16,1 km/h (3 Bft) SW 228 0 min 1,4 UV-I 211 W/m 3,7 C -0,4 C 22,5 km/h (4 Bft)
02.05.2020 11:18 5,9 C 6,1 C 86 % 1010,5 hPa 0,0 l/m 16,0 km/h (3 Bft) W-SW 257 0 min 2,1 UV-I 288 W/m 3,7 C -0,3 C 29,0 km/h (5 Bft)
02.05.2020 11:20 6,2 C 7,8 C 88 % 1010,5 hPa 0,0 l/m 14,6 km/h (3 Bft) S-SW 209 0 min 3,5 UV-I 500 W/m 4,4 C 0,7 C 30,6 km/h (5 Bft)
02.05.2020 11:22 6,6 C 8,9 C 88 % 1010,4 hPa 0,0 l/m 13,7 km/h (3 Bft) W-SW 248 2 min 3,5 UV-I 772 W/m 4,8 C 1,7 C 20,9 km/h (4 Bft)
02.05.2020 11:24 7,0 C 10,0 C 89 % 1010,5 hPa 0,0 l/m 9,6 km/h (2 Bft) SW 227 2 min 3,6 UV-I 703 W/m 5,3 C 4,5 C 16,1 km/h (3 Bft)
02.05.2020 11:26 7,2 C 8,9 C 87 % 1010,5 hPa 0,0 l/m 11,0 km/h (2 Bft) W-SW 254 0 min 2,6 UV-I 333 W/m 5,2 C 3,9 C 20,9 km/h (4 Bft)
02.05.2020 11:28 7,2 C 9,4 C 87 % 1010,4 hPa 0,0 l/m 13,0 km/h (3 Bft) SW 219 0 min 3,0 UV-I 371 W/m 5,2 C 2,7 C 20,9 km/h (4 Bft)
02.05.2020 11:30 7,2 C 9,4 C 87 % 1010,3 hPa 0,0 l/m 17,6 km/h (3 Bft) S-SW 203 0 min 3,7 UV-I 440 W/m 5,2 C 0,6 C 25,7 km/h (4 Bft)
02.05.2020 11:32 7,1 C 9,4 C 86 % 1010,4 hPa 0,0 l/m 16,0 km/h (3 Bft) W-SW 246 0 min 2,9 UV-I 436 W/m 4,9 C 1,2 C 27,4 km/h (4 Bft)
02.05.2020 11:34 7,1 C 9,4 C 85 % 1010,3 hPa 0,0 l/m 15,5 km/h (3 Bft) S-SW 211 0 min 3,4 UV-I 367 W/m 4,8 C 1,4 C 24,1 km/h (4 Bft)
02.05.2020 11:36 6,9 C 8,9 C 84 % 1010,3 hPa 0,0 l/m 16,8 km/h (3 Bft) S-SW 213 0 min 3,0 UV-I 328 W/m 4,4 C 0,6 C 22,5 km/h (4 Bft)
02.05.2020 11:38 6,9 C 9,4 C 85 % 1010,3 hPa 0,0 l/m 15,4 km/h (3 Bft) S-SW 212 0 min 4,5 UV-I 527 W/m 4,6 C 1,2 C 25,7 km/h (4 Bft)
02.05.2020 11:40 7,2 C 11,1 C 86 % 1010,2 hPa 0,0 l/m 14,2 km/h (3 Bft) S-SW 203 2 min 4,6 UV-I 809 W/m 5,0 C 2,1 C 20,9 km/h (4 Bft)
02.05.2020 11:42 7,3 C 10,0 C 84 % 1010,3 hPa 0,0 l/m 14,0 km/h (3 Bft) S-SW 211 0 min 3,8 UV-I 546 W/m 4,8 C 2,3 C 24,1 km/h (4 Bft)
02.05.2020 11:44 7,4 C 11,1 C 83 % 1010,3 hPa 0,0 l/m 19,4 km/h (3 Bft) S-SW 207 2 min 4,7 UV-I 709 W/m 4,7 C 0,1 C 25,7 km/h (4 Bft)
02.05.2020 11:46 7,4 C 10,6 C 84 % 1010,3 hPa 0,0 l/m 19,1 km/h (3 Bft) S-SW 195 2 min 4,2 UV-I 835 W/m 4,9 C 0,3 C 29,0 km/h (5 Bft)
02.05.2020 11:48 7,4 C 10,6 C 83 % 1010,2 hPa 0,0 l/m 19,0 km/h (3 Bft) S-SW 201 2 min 4,1 UV-I 792 W/m 4,7 C 0,3 C 25,7 km/h (4 Bft)
02.05.2020 11:50 7,4 C 9,4 C 83 % 1010,4 hPa 0,0 l/m 19,1 km/h (3 Bft) S-SW 198 2 min 2,6 UV-I 615 W/m 4,7 C 0,3 C 25,7 km/h (4 Bft)
02.05.2020 11:52 7,3 C 9,4 C 83 % 1010,3 hPa 0,0 l/m 16,9 km/h (3 Bft) S-SW 210 2 min 2,9 UV-I 594 W/m 4,6 C 1,0 C 25,7 km/h (4 Bft)
02.05.2020 11:54 7,3 C 10,0 C 84 % 1010,4 hPa 0,0 l/m 18,3 km/h (3 Bft) SW 221 0 min 3,5 UV-I 367 W/m 4,8 C 0,4 C 25,7 km/h (4 Bft)
02.05.2020 11:56 7,4 C 10,0 C 84 % 1010,5 hPa 0,0 l/m 15,3 km/h (3 Bft) S-SW 210 0 min 2,6 UV-I 390 W/m 4,9 C 1,8 C 20,9 km/h (4 Bft)
02.05.2020 11:58 7,3 C 9,4 C 83 % 1010,5 hPa 0,0 l/m 14,9 km/h (3 Bft) SW 218 0 min 2,4 UV-I 304 W/m 4,6 C 1,9 C 27,4 km/h (4 Bft)
02.05.2020 12:00 7,4 C 10,6 C 84 % 1010,4 hPa 0,0 l/m 13,4 km/h (3 Bft) SW 221 0 min 4,7 UV-I 346 W/m 4,9 C 2,8 C 20,9 km/h (4 Bft)
02.05.2020 12:02 7,6 C 10,6 C 84 % 1010,5 hPa 0,0 l/m 18,0 km/h (3 Bft) SW 219 0 min 2,9 UV-I 346 W/m 5,1 C 0,9 C 27,4 km/h (4 Bft)
02.05.2020 12:04 7,6 C 11,1 C 85 % 1010,6 hPa 0,0 l/m 20,4 km/h (4 Bft) SW 214 0 min 4,1 UV-I 346 W/m 5,2 C 0,0 C 29,0 km/h (5 Bft)
02.05.2020 12:06 7,8 C 11,7 C 85 % 1010,6 hPa 0,0 l/m 19,4 km/h (3 Bft) SW 235 0 min 3,4 UV-I 346 W/m 5,4 C 0,7 C 27,4 km/h (4 Bft)
02.05.2020 12:08 7,6 C 10,0 C 84 % 1010,7 hPa 0,0 l/m 18,1 km/h (3 Bft) S-SW 211 0 min 2,5 UV-I 382 W/m 5,1 C 0,9 C 27,4 km/h (4 Bft)
02.05.2020 12:10 7,2 C 8,9 C 83 % 1010,5 hPa 0,0 l/m 23,4 km/h (4 Bft) SW 217 0 min 2,4 UV-I 385 W/m 4,5 C -1,5 C 33,8 km/h (5 Bft)
02.05.2020 12:12 7,0 C 8,3 C 84 % 1010,6 hPa 0,0 l/m 19,1 km/h (3 Bft) SW 228 0 min 2,5 UV-I 389 W/m 4,5 C -0,3 C 25,7 km/h (4 Bft)
02.05.2020 12:14 7,3 C 10,6 C 86 % 1010,7 hPa 0,0 l/m 17,3 km/h (3 Bft) S-SW 202 2 min 4,5 UV-I 701 W/m 5,1 C 0,8 C 29,0 km/h (5 Bft)
02.05.2020 12:16 7,5 C 10,0 C 85 % 1010,7 hPa 0,0 l/m 19,3 km/h (3 Bft) SW 215 2 min 4,2 UV-I 1085 W/m 5,1 C 0,3 C 29,0 km/h (5 Bft)
02.05.2020 12:18 7,3 C 10,0 C 84 % 1010,7 hPa 0,0 l/m 11,5 km/h (2 Bft) SW 221 0 min 3,5 UV-I 461 W/m 4,8 C 3,7 C 16,1 km/h (3 Bft)
02.05.2020 12:20 7,2 C 10,0 C 85 % 1010,7 hPa 0,0 l/m 15,9 km/h (3 Bft) SW 214 0 min 3,4 UV-I 460 W/m 4,9 C 1,3 C 22,5 km/h (4 Bft)
02.05.2020 12:22 6,9 C 9,4 C 85 % 1010,7 hPa 0,0 l/m 17,3 km/h (3 Bft) S-SW 205 0 min 3,1 UV-I 404 W/m 4,6 C 0,3 C 24,1 km/h (4 Bft)
02.05.2020 12:24 6,8 C 9,4 C 86 % 1010,8 hPa 0,0 l/m 15,6 km/h (3 Bft) SW 217 0 min 3,6 UV-I 422 W/m 4,6 C 1,0 C 25,7 km/h (4 Bft)
02.05.2020 12:26 6,8 C 10,6 C 85 % 1010,9 hPa 0,0 l/m 15,9 km/h (3 Bft) SW 215 2 min 5,2 UV-I 779 W/m 4,5 C 0,8 C 24,1 km/h (4 Bft)
02.05.2020 12:28 7,1 C 11,1 C 85 % 1010,9 hPa 0,0 l/m 16,1 km/h (3 Bft) SW 217 2 min 5,2 UV-I 856 W/m 4,8 C 1,1 C 22,5 km/h (4 Bft)
02.05.2020 12:30 7,2 C 11,7 C 84 % 1010,7 hPa 0,0 l/m 18,3 km/h (3 Bft) S 180 2 min 5,2 UV-I 860 W/m 4,7 C 0,3 C 25,7 km/h (4 Bft)
02.05.2020 12:32 7,5 C 11,7 C 85 % 1010,8 hPa 0,0 l/m 13,0 km/h (3 Bft) S-SW 199 2 min 5,5 UV-I 932 W/m 5,1 C 3,1 C 20,9 km/h (4 Bft)
02.05.2020 12:34 8,1 C 12,8 C 85 % 1010,7 hPa 0,0 l/m 18,5 km/h (3 Bft) SW 214 2 min 5,7 UV-I 969 W/m 5,7 C 1,4 C 29,0 km/h (5 Bft)
02.05.2020 12:36 8,1 C 12,2 C 82 % 1010,7 hPa 0,0 l/m 15,8 km/h (3 Bft) S 190 2 min 5,3 UV-I 959 W/m 5,2 C 2,5 C 27,4 km/h (4 Bft)
02.05.2020 12:38 8,2 C 13,3 C 84 % 1010,6 hPa 0,0 l/m 17,8 km/h (3 Bft) SW 222 2 min 5,7 UV-I 1029 W/m 5,7 C 1,8 C 25,7 km/h (4 Bft)
02.05.2020 12:40 8,2 C 12,8 C 82 % 1010,7 hPa 0,0 l/m 20,2 km/h (4 Bft) S-SW 210 2 min 4,1 UV-I 952 W/m 5,3 C 0,9 C 27,4 km/h (4 Bft)
02.05.2020 12:42 7,8 C 10,6 C 82 % 1010,7 hPa 0,0 l/m 14,9 km/h (3 Bft) SW 217 0 min 2,6 UV-I 335 W/m 4,9 C 2,5 C 22,5 km/h (4 Bft)
02.05.2020 12:44 7,7 C 9,4 C 83 % 1010,7 hPa 0,0 l/m 16,5 km/h (3 Bft) S-SW 208 0 min 1,8 UV-I 292 W/m 5,0 C 1,7 C 22,5 km/h (4 Bft)
02.05.2020 12:46 7,4 C 8,9 C 83 % 1010,7 hPa 0,0 l/m 14,2 km/h (3 Bft) S-SW 205 0 min 1,7 UV-I 284 W/m 4,7 C 2,4 C 20,9 km/h (4 Bft)
02.05.2020 12:48 7,6 C 10,0 C 85 % 1010,7 hPa 0,0 l/m 15,6 km/h (3 Bft) W 259 0 min 3,7 UV-I 330 W/m 5,2 C 2,0 C 27,4 km/h (4 Bft)
02.05.2020 12:50 7,9 C 11,7 C 85 % 1010,8 hPa 0,0 l/m 15,7 km/h (3 Bft) S-SW 206 2 min 5,2 UV-I 624 W/m 5,5 C 2,3 C 24,1 km/h (4 Bft)
02.05.2020 12:52 8,1 C 11,1 C 82 % 1010,8 hPa 0,0 l/m 22,5 km/h (4 Bft) S-SW 202 2 min 4,5 UV-I 993 W/m 5,2 C 0,0 C 35,4 km/h (5 Bft)
02.05.2020 12:54 7,9 C 11,1 C 82 % 1010,9 hPa 0,0 l/m 19,9 km/h (4 Bft) SW 215 2 min 5,2 UV-I 960 W/m 5,0 C 0,6 C 33,8 km/h (5 Bft)
02.05.2020 12:56 8,1 C 11,7 C 82 % 1010,8 hPa 0,0 l/m 16,9 km/h (3 Bft) S-SW 208 2 min 5,4 UV-I 869 W/m 5,2 C 2,0 C 27,4 km/h (4 Bft)
02.05.2020 12:58 8,4 C 12,8 C 81 % 1010,8 hPa 0,0 l/m 15,2 km/h (3 Bft) W 263 2 min 5,4 UV-I 856 W/m 5,3 C 3,1 C 20,9 km/h (4 Bft)
02.05.2020 13:00 8,6 C 13,3 C 80 % 1010,9 hPa 0,0 l/m 16,6 km/h (3 Bft) W-SW 242 2 min 5,4 UV-I 853 W/m 5,3 C 2,8 C 29,0 km/h (5 Bft)
02.05.2020 13:02 8,7 C 12,8 C 81 % 1010,7 hPa 0,0 l/m 15,7 km/h (3 Bft) S-SW 209 2 min 5,4 UV-I 858 W/m 5,6 C 3,3 C 20,9 km/h (4 Bft)
02.05.2020 13:04 9,0 C 13,3 C 81 % 1010,7 hPa 0,0 l/m 12,5 km/h (3 Bft) S-SW 208 2 min 5,4 UV-I 868 W/m 5,9 C 5,1 C 19,3 km/h (3 Bft)
02.05.2020 13:06 9,2 C 13,3 C 80 % 1010,7 hPa 0,0 l/m 14,1 km/h (3 Bft) W-NW 290 2 min 5,5 UV-I 874 W/m 5,9 C 4,6 C 24,1 km/h (4 Bft)
02.05.2020 13:08 9,3 C 13,9 C 79 % 1010,8 hPa 0,0 l/m 12,2 km/h (2 Bft) SW 219 2 min 4,8 UV-I 902 W/m 5,8 C 5,6 C 19,3 km/h (3 Bft)
02.05.2020 13:10 9,3 C 13,9 C 78 % 1010,7 hPa 0,0 l/m 17,2 km/h (3 Bft) SW 232 2 min 5,6 UV-I 942 W/m 5,7 C 3,4 C 24,1 km/h (4 Bft)
02.05.2020 13:12 9,7 C 15,0 C 80 % 1010,8 hPa 0,0 l/m 14,9 km/h (3 Bft) S-SW 209 2 min 5,9 UV-I 990 W/m 6,4 C 4,8 C 27,4 km/h (4 Bft)
02.05.2020 13:14 9,8 C 15,0 C 80 % 1010,7 hPa 0,0 l/m 14,2 km/h (3 Bft) S-SW 207 2 min 5,9 UV-I 1041 W/m 6,5 C 5,2 C 22,5 km/h (4 Bft)
02.05.2020 13:16 9,9 C 14,4 C 77 % 1010,8 hPa 0,0 l/m 20,1 km/h (4 Bft) SW 221 2 min 5,9 UV-I 1045 W/m 6,1 C 3,1 C 30,6 km/h (5 Bft)
02.05.2020 13:18 9,8 C 14,4 C 75 % 1010,8 hPa 0,0 l/m 17,9 km/h (3 Bft) W-SW 249 2 min 5,2 UV-I 1053 W/m 5,6 C 3,8 C 25,7 km/h (4 Bft)
02.05.2020 13:20 9,9 C 13,3 C 75 % 1010,8 hPa 0,0 l/m 17,4 km/h (3 Bft) S-SW 202 2 min 4,8 UV-I 1060 W/m 5,7 C 4,1 C 30,6 km/h (5 Bft)
02.05.2020 13:22 9,6 C 12,8 C 75 % 1010,8 hPa 0,0 l/m 15,2 km/h (3 Bft) W-SW 250 0 min 3,4 UV-I 511 W/m 5,4 C 4,6 C 19,3 km/h (3 Bft)
02.05.2020 13:24 9,4 C 12,2 C 75 % 1010,8 hPa 0,0 l/m 13,0 km/h (3 Bft) W 263 0 min 3,5 UV-I 378 W/m 5,2 C 5,3 C 22,5 km/h (4 Bft)
02.05.2020 13:26 9,7 C 13,3 C 78 % 1011,0 hPa 0,0 l/m 10,7 km/h (2 Bft) SW 235 0 min 5,5 UV-I 468 W/m 6,1 C 6,9 C 19,3 km/h (3 Bft)
02.05.2020 13:28 9,9 C 14,4 C 77 % 1011,0 hPa 0,0 l/m 5,9 km/h (2 Bft) SW 219 2 min 6,0 UV-I 826 W/m 6,1 C 9,9 C 12,9 km/h (3 Bft)
02.05.2020 13:30 10,1 C 13,9 C 75 % 1010,9 hPa 0,0 l/m 15,0 km/h (3 Bft) S-SW 213 2 min 3,7 UV-I 862 W/m 5,9 C 5,3 C 27,4 km/h (4 Bft)
02.05.2020 13:32 9,9 C 12,8 C 73 % 1010,9 hPa 0,0 l/m 11,8 km/h (2 Bft) W-SW 240 0 min 2,6 UV-I 307 W/m 5,3 C 6,5 C 17,7 km/h (3 Bft)
02.05.2020 13:34 9,7 C 12,2 C 73 % 1010,9 hPa 0,0 l/m 16,3 km/h (3 Bft) W-SW 251 0 min 2,3 UV-I 317 W/m 5,1 C 4,2 C 24,1 km/h (4 Bft)
02.05.2020 13:36 9,6 C 11,1 C 73 % 1010,9 hPa 0,0 l/m 14,1 km/h (3 Bft) W-SW 243 0 min 1,7 UV-I 230 W/m 5,0 C 5,0 C 19,3 km/h (3 Bft)
02.05.2020 13:38 9,4 C 10,6 C 73 % 1010,9 hPa 0,0 l/m 14,7 km/h (3 Bft) SW 231 0 min 1,4 UV-I 188 W/m 4,8 C 4,5 C 25,7 km/h (4 Bft)
02.05.2020 13:40 9,3 C 10,6 C 73 % 1010,9 hPa 0,0 l/m 14,1 km/h (3 Bft) W-SW 247 0 min 1,6 UV-I 210 W/m 4,7 C 4,7 C 32,2 km/h (5 Bft)
02.05.2020 13:42 9,2 C 10,6 C 76 % 1011,0 hPa 0,0 l/m 17,8 km/h (3 Bft) SW 229 0 min 2,2 UV-I 275 W/m 5,2 C 3,0 C 30,6 km/h (5 Bft)
02.05.2020 13:44 8,9 C 10,6 C 77 % 1011,0 hPa 0,0 l/m 13,3 km/h (3 Bft) SW 223 0 min 2,5 UV-I 305 W/m 5,1 C 4,6 C 17,7 km/h (3 Bft)
02.05.2020 13:46 8,9 C 10,6 C 79 % 1011,0 hPa 0,0 l/m 7,0 km/h (2 Bft) SW 220 0 min 3,1 UV-I 352 W/m 5,5 C 8,4 C 12,9 km/h (3 Bft)
02.05.2020 13:48 9,3 C 11,7 C 77 % 1011,0 hPa 0,0 l/m 14,6 km/h (3 Bft) SW 221 0 min 4,0 UV-I 362 W/m 5,5 C 4,5 C 19,3 km/h (3 Bft)
02.05.2020 13:50 9,9 C 13,9 C 78 % 1010,9 hPa 0,0 l/m 10,7 km/h (2 Bft) S-SW 200 2 min 5,9 UV-I 1123 W/m 6,2 C 7,1 C 16,1 km/h (3 Bft)
02.05.2020 13:52 10,3 C 13,9 C 72 % 1010,9 hPa 0,0 l/m 15,7 km/h (3 Bft) S-SW 204 2 min 3,4 UV-I 682 W/m 5,5 C 5,2 C 24,1 km/h (4 Bft)
02.05.2020 13:54 10,3 C 12,8 C 73 % 1011,0 hPa 0,0 l/m 13,3 km/h (3 Bft) W-NW 293 0 min 2,2 UV-I 341 W/m 5,7 C 6,2 C 25,7 km/h (4 Bft)
02.05.2020 13:56 10,1 C 11,7 C 68 % 1011,0 hPa 0,0 l/m 20,6 km/h (4 Bft) SW 235 0 min 2,0 UV-I 303 W/m 4,5 C 3,2 C 30,6 km/h (5 Bft)
02.05.2020 13:58 9,7 C 11,1 C 68 % 1011,0 hPa 0,0 l/m 18,6 km/h (3 Bft) W 263 0 min 2,1 UV-I 316 W/m 4,1 C 3,4 C 25,7 km/h (4 Bft)
02.05.2020 14:00 9,5 C 11,1 C 71 % 1011,3 hPa 0,0 l/m 9,7 km/h (2 Bft) W 266 0 min 2,0 UV-I 280 W/m 4,5 C 7,2 C 24,1 km/h (4 Bft)
02.05.2020 14:02 8,9 C 10,6 C 72 % 1011,3 hPa 0,0 l/m 9,9 km/h (2 Bft) W 261 0 min 1,5 UV-I 226 W/m 4,1 C 6,4 C 24,1 km/h (4 Bft)
02.05.2020 14:04 8,4 C 9,4 C 75 % 1011,4 hPa 0,0 l/m 15,9 km/h (3 Bft) W-NW 288 0 min 1,2 UV-I 182 W/m 4,2 C 2,8 C 24,1 km/h (4 Bft)
02.05.2020 14:06 7,9 C 8,9 C 76 % 1011,5 hPa 0,0 l/m 9,3 km/h (2 Bft) W-NW 302 0 min 0,8 UV-I 126 W/m 3,9 C 5,7 C 20,9 km/h (4 Bft)
02.05.2020 14:08 7,6 C 8,3 C 78 % 1011,5 hPa 0,0 l/m 6,9 km/h (2 Bft) SW 232 0 min 0,3 UV-I 74 W/m 4,0 C 7,2 C 16,1 km/h (3 Bft)
02.05.2020 14:10 7,3 C 7,8 C 79 % 1011,7 hPa 0,0 l/m 5,3 km/h (1 Bft) W 280 0 min 0,0 UV-I 44 W/m 3,9 C 7,3 C 17,7 km/h (3 Bft)
02.05.2020 14:12 6,9 C 5,6 C 80 % 1012,0 hPa 0,4 l/m 13,2 km/h (3 Bft) W 269 0 min 0,0 UV-I 34 W/m 3,7 C 2,3 C 20,9 km/h (4 Bft)
02.05.2020 14:14 6,3 C 5,0 C 81 % 1011,9 hPa 0,2 l/m 11,8 km/h (2 Bft) W 263 0 min 0,0 UV-I 41 W/m 3,3 C 2,4 C 24,1 km/h (4 Bft)
02.05.2020 14:16 5,6 C 4,4 C 82 % 1012,0 hPa 0,0 l/m 4,5 km/h (1 Bft) SW 235 0 min 0,1 UV-I 63 W/m 2,8 C 5,6 C 8,0 km/h (2 Bft)
02.05.2020 14:18 5,1 C 4,4 C 84 % 1011,9 hPa 0,2 l/m 3,6 km/h (1 Bft) W-SW 253 0 min 0,9 UV-I 139 W/m 2,6 C 5,1 C 11,3 km/h (2 Bft)
02.05.2020 14:20 4,9 C 5,0 C 86 % 1011,9 hPa 0,2 l/m 1,4 km/h (1 Bft) S-SW 205 0 min 1,4 UV-I 200 W/m 2,8 C 4,9 C 8,0 km/h (2 Bft)
02.05.2020 14:22 4,9 C 5,0 C 87 % 1012,0 hPa 0,0 l/m 5,6 km/h (1 Bft) W-SW 246 0 min 0,9 UV-I 125 W/m 2,9 C 4,9 C 11,3 km/h (2 Bft)
02.05.2020 14:24 4,9 C 5,0 C 88 % 1012,1 hPa 0,2 l/m 5,9 km/h (2 Bft) SW 229 0 min 0,6 UV-I 80 W/m 3,1 C 4,9 C 11,3 km/h (2 Bft)
02.05.2020 14:26 5,0 C 4,4 C 88 % 1012,1 hPa 0,0 l/m 4,4 km/h (1 Bft) W-SW 240 0 min 0,5 UV-I 71 W/m 3,2 C 5,0 C 9,7 km/h (2 Bft)
02.05.2020 14:28 5,1 C 5,0 C 88 % 1012,2 hPa 0,2 l/m 6,7 km/h (2 Bft) W-SW 249 0 min 0,5 UV-I 72 W/m 3,3 C 4,9 C 14,5 km/h (3 Bft)
02.05.2020 14:30 5,1 C 5,0 C 89 % 1012,3 hPa 0,2 l/m 6,4 km/h (2 Bft) S-SW 200 0 min 0,5 UV-I 74 W/m 3,4 C 5,1 C 14,5 km/h (3 Bft)
02.05.2020 14:32 5,1 C 5,0 C 89 % 1012,3 hPa 0,2 l/m 11,2 km/h (2 Bft) SW 233 0 min 0,5 UV-I 77 W/m 3,4 C 1,4 C 19,3 km/h (3 Bft)
02.05.2020 14:34 5,1 C 5,0 C 89 % 1012,4 hPa 0,0 l/m 11,2 km/h (2 Bft) W 269 0 min 0,4 UV-I 71 W/m 3,4 C 1,4 C 17,7 km/h (3 Bft)
02.05.2020 14:36 5,0 C 4,4 C 89 % 1012,4 hPa 0,2 l/m 11,9 km/h (2 Bft) W-SW 250 0 min 0,0 UV-I 65 W/m 3,3 C 0,8 C 19,3 km/h (3 Bft)
02.05.2020 14:38 5,0 C 4,4 C 89 % 1012,4 hPa 0,0 l/m 10,0 km/h (2 Bft) S-SW 194 0 min 0,5 UV-I 74 W/m 3,3 C 2,1 C 14,5 km/h (3 Bft)
02.05.2020 14:40 5,0 C 5,0 C 89 % 1012,5 hPa 0,0 l/m 13,9 km/h (3 Bft) W-SW 245 0 min 0,7 UV-I 103 W/m 3,3 C -0,3 C 20,9 km/h (4 Bft)
02.05.2020 14:42 5,0 C 5,0 C 89 % 1012,4 hPa 0,0 l/m 10,1 km/h (2 Bft) NW 315 0 min 1,1 UV-I 157 W/m 3,3 C 2,0 C 17,7 km/h (3 Bft)
02.05.2020 14:44 5,2 C 5,6 C 90 % 1012,4 hPa 0,0 l/m 6,6 km/h (2 Bft) SW 227 0 min 1,3 UV-I 170 W/m 3,7 C 5,0 C 12,9 km/h (3 Bft)
02.05.2020 14:46 5,3 C 5,6 C 90 % 1012,4 hPa 0,0 l/m 9,7 km/h (2 Bft) W 265 0 min 1,3 UV-I 167 W/m 3,8 C 2,6 C 12,9 km/h (3 Bft)
02.05.2020 14:48 5,3 C 5,6 C 90 % 1012,3 hPa 0,0 l/m 8,7 km/h (2 Bft) W-SW 253 0 min 1,4 UV-I 188 W/m 3,8 C 3,4 C 14,5 km/h (3 Bft)
02.05.2020 14:50 5,4 C 6,1 C 90 % 1012,4 hPa 0,0 l/m 7,4 km/h (2 Bft) W 267 0 min 1,9 UV-I 242 W/m 3,9 C 4,5 C 12,9 km/h (3 Bft)
02.05.2020 14:52 5,5 C 6,7 C 89 % 1012,3 hPa 0,0 l/m 10,3 km/h (2 Bft) W 259 0 min 2,4 UV-I 316 W/m 3,8 C 2,4 C 17,7 km/h (3 Bft)
02.05.2020 14:54 5,7 C 7,2 C 90 % 1012,3 hPa 0,0 l/m 6,1 km/h (2 Bft) W 261 0 min 2,6 UV-I 358 W/m 4,2 C 5,7 C 9,7 km/h (2 Bft)
02.05.2020 14:56 5,9 C 7,8 C 90 % 1012,4 hPa 0,0 l/m 11,1 km/h (2 Bft) W-SW 241 0 min 3,1 UV-I 441 W/m 4,4 C 2,3 C 17,7 km/h (3 Bft)
02.05.2020 14:58 6,1 C 8,3 C 90 % 1012,3 hPa 0,0 l/m 5,5 km/h (1 Bft) W-SW 250 0 min 3,1 UV-I 458 W/m 4,6 C 6,1 C 9,7 km/h (2 Bft)
02.05.2020 15:00 6,2 C 8,9 C 89 % 1012,4 hPa 0,0 l/m 12,8 km/h (3 Bft) W-SW 252 0 min 3,2 UV-I 437 W/m 4,5 C 1,7 C 19,3 km/h (3 Bft)
02.05.2020 15:02 6,3 C 10,0 C 88 % 1012,4 hPa 0,0 l/m 10,3 km/h (2 Bft) SW 227 0 min 4,1 UV-I 536 W/m 4,5 C 3,3 C 19,3 km/h (3 Bft)
02.05.2020 15:04 6,8 C 11,7 C 89 % 1012,4 hPa 0,0 l/m 10,0 km/h (2 Bft) S-SW 205 2 min 4,7 UV-I 760 W/m 5,1 C 4,1 C 16,1 km/h (3 Bft)
02.05.2020 15:06 7,2 C 11,7 C 89 % 1012,3 hPa 0,0 l/m 8,9 km/h (2 Bft) W 259 2 min 4,6 UV-I 771 W/m 5,5 C 5,2 C 19,3 km/h (3 Bft)
02.05.2020 15:08 7,2 C 11,7 C 87 % 1012,4 hPa 0,0 l/m 17,2 km/h (3 Bft) W 265 2 min 4,6 UV-I 760 W/m 5,2 C 0,8 C 22,5 km/h (4 Bft)
02.05.2020 15:10 7,6 C 12,2 C 88 % 1012,4 hPa 0,0 l/m 12,7 km/h (3 Bft) W 261 2 min 4,6 UV-I 756 W/m 5,7 C 3,4 C 20,9 km/h (4 Bft)
02.05.2020 15:12 7,7 C 12,8 C 87 % 1012,4 hPa 0,0 l/m 11,2 km/h (2 Bft) SW 225 2 min 4,6 UV-I 756 W/m 5,7 C 4,3 C 16,1 km/h (3 Bft)
02.05.2020 15:14 7,9 C 12,8 C 88 % 1012,5 hPa 0,0 l/m 10,9 km/h (2 Bft) SW 224 2 min 4,4 UV-I 760 W/m 6,0 C 4,7 C 16,1 km/h (3 Bft)
02.05.2020 15:16 8,2 C 12,8 C 85 % 1012,4 hPa 0,0 l/m 14,1 km/h (3 Bft) W 273 2 min 4,4 UV-I 763 W/m 5,8 C 3,4 C 27,4 km/h (4 Bft)
02.05.2020 15:18 8,2 C 12,8 C 86 % 1012,5 hPa 0,0 l/m 15,4 km/h (3 Bft) W-SW 241 2 min 4,7 UV-I 802 W/m 6,0 C 2,8 C 27,4 km/h (4 Bft)
02.05.2020 15:20 8,2 C 12,8 C 84 % 1012,5 hPa 0,0 l/m 18,6 km/h (3 Bft) W 278 2 min 4,5 UV-I 792 W/m 5,7 C 1,5 C 29,0 km/h (5 Bft)
02.05.2020 15:22 8,1 C 11,7 C 81 % 1012,5 hPa 0,0 l/m 20,9 km/h (4 Bft) W 262 2 min 4,2 UV-I 714 W/m 5,0 C 0,5 C 30,6 km/h (5 Bft)
02.05.2020 15:24 7,9 C 11,1 C 82 % 1012,4 hPa 0,0 l/m 16,1 km/h (3 Bft) W-SW 238 2 min 3,4 UV-I 714 W/m 5,0 C 2,1 C 25,7 km/h (4 Bft)
02.05.2020 15:26 7,8 C 11,7 C 84 % 1012,5 hPa 0,0 l/m 16,1 km/h (3 Bft) W-SW 244 2 min 4,0 UV-I 755 W/m 5,3 C 2,0 C 27,4 km/h (4 Bft)
02.05.2020 15:28 8,1 C 11,7 C 84 % 1012,4 hPa 0,0 l/m 13,2 km/h (3 Bft) W-SW 258 2 min 2,9 UV-I 844 W/m 5,6 C 3,7 C 25,7 km/h (4 Bft)
02.05.2020 15:30 8,4 C 12,8 C 84 % 1012,5 hPa 0,0 l/m 14,3 km/h (3 Bft) W 270 2 min 4,7 UV-I 845 W/m 5,9 C 3,5 C 19,3 km/h (3 Bft)
02.05.2020 15:32 8,8 C 13,3 C 83 % 1012,6 hPa 0,0 l/m 13,2 km/h (3 Bft) W 260 2 min 4,7 UV-I 853 W/m 6,1 C 4,5 C 25,7 km/h (4 Bft)
02.05.2020 15:34 8,9 C 13,3 C 80 % 1012,5 hPa 0,0 l/m 19,0 km/h (3 Bft) SW 216 2 min 4,6 UV-I 858 W/m 5,6 C 2,2 C 29,0 km/h (5 Bft)
02.05.2020 15:36 8,9 C 13,3 C 81 % 1012,5 hPa 0,0 l/m 16,5 km/h (3 Bft) SW 232 2 min 4,0 UV-I 904 W/m 5,8 C 3,2 C 27,4 km/h (4 Bft)
02.05.2020 15:38 8,9 C 13,3 C 81 % 1012,5 hPa 0,0 l/m 17,5 km/h (3 Bft) W-SW 246 2 min 4,3 UV-I 866 W/m 5,8 C 2,8 C 25,7 km/h (4 Bft)
02.05.2020 15:40 9,2 C 14,4 C 82 % 1012,6 hPa 0,0 l/m 12,9 km/h (3 Bft) SW 223 2 min 4,7 UV-I 802 W/m 6,3 C 5,1 C 19,3 km/h (3 Bft)
02.05.2020 15:42 9,2 C 14,4 C 81 % 1012,7 hPa 0,0 l/m 12,8 km/h (3 Bft) SW 223 2 min 4,1 UV-I 856 W/m 6,1 C 5,2 C 20,9 km/h (4 Bft)
02.05.2020 15:44 9,0 C 12,8 C 81 % 1012,6 hPa 0,0 l/m 13,8 km/h (3 Bft) W-SW 239 2 min 3,1 UV-I 856 W/m 5,9 C 4,5 C 27,4 km/h (4 Bft)
02.05.2020 15:46 8,8 C 12,2 C 80 % 1012,5 hPa 0,0 l/m 13,2 km/h (3 Bft) W-SW 248 2 min 3,7 UV-I 588 W/m 5,5 C 4,5 C 20,9 km/h (4 Bft)
02.05.2020 15:48 8,8 C 12,8 C 81 % 1012,5 hPa 0,0 l/m 12,1 km/h (2 Bft) SW 229 0 min 3,4 UV-I 297 W/m 5,7 C 5,1 C 19,3 km/h (3 Bft)
02.05.2020 15:50 8,8 C 13,3 C 82 % 1012,5 hPa 0,0 l/m 10,0 km/h (2 Bft) W 281 0 min 4,2 UV-I 297 W/m 5,9 C 6,3 C 14,5 km/h (3 Bft)
02.05.2020 15:52 9,0 C 13,9 C 80 % 1012,6 hPa 0,0 l/m 13,7 km/h (3 Bft) SW 221 0 min 3,3 UV-I 297 W/m 5,7 C 4,5 C 25,7 km/h (4 Bft)
02.05.2020 15:54 9,1 C 13,9 C 81 % 1012,5 hPa 0,0 l/m 13,3 km/h (3 Bft) S-SW 213 2 min 4,2 UV-I 661 W/m 6,0 C 4,8 C 24,1 km/h (4 Bft)
02.05.2020 15:56 9,2 C 13,3 C 79 % 1012,5 hPa 0,0 l/m 15,4 km/h (3 Bft) SW 236 2 min 3,5 UV-I 854 W/m 5,8 C 4,0 C 24,1 km/h (4 Bft)
02.05.2020 15:58 8,9 C 11,7 C 79 % 1012,5 hPa 0,0 l/m 17,8 km/h (3 Bft) W-SW 252 0 min 2,4 UV-I 541 W/m 5,5 C 2,7 C 24,1 km/h (4 Bft)
02.05.2020 16:00 8,6 C 10,6 C 77 % 1012,6 hPa 0,0 l/m 15,7 km/h (3 Bft) W-SW 250 0 min 1,9 UV-I 216 W/m 4,8 C 3,1 C 22,5 km/h (4 Bft)
02.05.2020 16:02 8,4 C 10,0 C 78 % 1012,5 hPa 0,0 l/m 16,1 km/h (3 Bft) W-SW 242 0 min 1,8 UV-I 216 W/m 4,8 C 2,7 C 29,0 km/h (5 Bft)
02.05.2020 16:04 8,4 C 10,0 C 80 % 1012,6 hPa 0,0 l/m 10,2 km/h (2 Bft) W-SW 242 0 min 2,1 UV-I 289 W/m 5,2 C 5,7 C 16,1 km/h (3 Bft)
02.05.2020 16:06 8,4 C 10,0 C 80 % 1012,5 hPa 0,0 l/m 12,1 km/h (2 Bft) SW 225 0 min 1,8 UV-I 242 W/m 5,2 C 4,6 C 19,3 km/h (3 Bft)
02.05.2020 16:08 8,4 C 9,4 C 80 % 1012,7 hPa 0,0 l/m 14,2 km/h (3 Bft) W-SW 255 0 min 1,5 UV-I 189 W/m 5,2 C 3,6 C 24,1 km/h (4 Bft)
02.05.2020 16:10 8,3 C 9,4 C 78 % 1012,6 hPa 0,0 l/m 10,4 km/h (2 Bft) W 269 0 min 1,5 UV-I 182 W/m 4,7 C 5,5 C 17,7 km/h (3 Bft)
02.05.2020 16:12 8,3 C 9,4 C 80 % 1012,7 hPa 0,0 l/m 12,9 km/h (3 Bft) W-SW 240 0 min 1,7 UV-I 204 W/m 5,1 C 4,1 C 20,9 km/h (4 Bft)
02.05.2020 16:14 8,4 C 10,6 C 81 % 1012,6 hPa 0,0 l/m 11,6 km/h (2 Bft) W-NW 288 0 min 2,7 UV-I 299 W/m 5,3 C 4,9 C 16,1 km/h (3 Bft)
02.05.2020 16:16 8,9 C 13,3 C 81 % 1012,6 hPa 0,0 l/m 12,2 km/h (2 Bft) W-SW 258 2 min 3,7 UV-I 819 W/m 5,8 C 5,1 C 20,9 km/h (4 Bft)
02.05.2020 16:18 9,2 C 13,3 C 78 % 1012,6 hPa 0,0 l/m 12,2 km/h (2 Bft) W 281 2 min 2,5 UV-I 877 W/m 5,6 C 5,5 C 22,5 km/h (4 Bft)
02.05.2020 16:20 9,2 C 12,8 C 79 % 1012,6 hPa 0,0 l/m 13,3 km/h (3 Bft) W-SW 242 2 min 2,7 UV-I 877 W/m 5,8 C 4,9 C 17,7 km/h (3 Bft)
02.05.2020 16:22 9,3 C 13,3 C 78 % 1012,7 hPa 0,0 l/m 13,1 km/h (3 Bft) W-NW 286 0 min 3,1 UV-I 375 W/m 5,7 C 5,2 C 22,5 km/h (4 Bft)
02.05.2020 16:24 9,8 C 15,6 C 79 % 1012,5 hPa 0,0 l/m 8,2 km/h (2 Bft) SW 223 2 min 4,2 UV-I 659 W/m 6,3 C 8,5 C 14,5 km/h (3 Bft)
02.05.2020 16:26 10,2 C 16,7 C 77 % 1012,6 hPa 0,0 l/m 9,4 km/h (2 Bft) SW 227 2 min 4,0 UV-I 862 W/m 6,4 C 8,2 C 16,1 km/h (3 Bft)
02.05.2020 16:28 10,3 C 16,7 C 74 % 1012,6 hPa 0,0 l/m 15,3 km/h (3 Bft) S-SW 207 2 min 3,8 UV-I 859 W/m 5,9 C 5,4 C 25,7 km/h (4 Bft)
02.05.2020 16:30 10,3 C 16,7 C 75 % 1012,5 hPa 0,0 l/m 17,3 km/h (3 Bft) W-SW 255 2 min 3,9 UV-I 648 W/m 6,1 C 4,6 C 25,7 km/h (4 Bft)
02.05.2020 16:32 10,4 C 16,7 C 73 % 1012,5 hPa 0,0 l/m 16,3 km/h (3 Bft) S-SW 209 2 min 3,3 UV-I 644 W/m 5,8 C 5,1 C 27,4 km/h (4 Bft)
02.05.2020 16:34 10,2 C 16,1 C 73 % 1012,5 hPa 0,0 l/m 17,5 km/h (3 Bft) SW 224 2 min 3,4 UV-I 640 W/m 5,6 C 4,4 C 29,0 km/h (5 Bft)
02.05.2020 16:36 9,8 C 12,8 C 73 % 1012,6 hPa 0,2 l/m 16,6 km/h (3 Bft) W 261 0 min 1,8 UV-I 459 W/m 5,2 C 4,2 C 25,7 km/h (4 Bft)
02.05.2020 16:38 9,6 C 11,7 C 72 % 1012,6 hPa 0,0 l/m 18,1 km/h (3 Bft) W-SW 243 0 min 2,2 UV-I 291 W/m 4,8 C 3,4 C 29,0 km/h (5 Bft)
02.05.2020 16:40 9,4 C 11,7 C 72 % 1012,6 hPa 0,0 l/m 15,7 km/h (3 Bft) W-SW 239 0 min 2,1 UV-I 287 W/m 4,6 C 4,1 C 24,1 km/h (4 Bft)
02.05.2020 16:42 9,3 C 11,1 C 74 % 1012,6 hPa 0,0 l/m 11,8 km/h (2 Bft) W 270 0 min 1,7 UV-I 250 W/m 4,9 C 5,8 C 17,7 km/h (3 Bft)
02.05.2020 16:44 9,2 C 10,6 C 72 % 1012,6 hPa 0,0 l/m 19,1 km/h (3 Bft) SW 225 0 min 1,4 UV-I 203 W/m 4,4 C 2,6 C 30,6 km/h (5 Bft)
02.05.2020 16:46 9,2 C 11,1 C 73 % 1012,6 hPa 0,0 l/m 15,9 km/h (3 Bft) S-SW 192 0 min 1,8 UV-I 280 W/m 4,6 C 3,8 C 27,4 km/h (4 Bft)
02.05.2020 16:48 9,3 C 12,2 C 74 % 1012,6 hPa 0,0 l/m 14,4 km/h (3 Bft) W 275 0 min 2,3 UV-I 462 W/m 4,9 C 4,6 C 22,5 km/h (4 Bft)
02.05.2020 16:50 9,4 C 11,7 C 74 % 1012,7 hPa 0,0 l/m 10,5 km/h (2 Bft) W 263 0 min 1,8 UV-I 340 W/m 5,0 C 6,6 C 17,7 km/h (3 Bft)
02.05.2020 16:52 9,3 C 10,6 C 73 % 1012,7 hPa 0,0 l/m 16,7 km/h (3 Bft) W-SW 251 0 min 1,2 UV-I 172 W/m 4,7 C 3,6 C 20,9 km/h (4 Bft)
02.05.2020 16:54 9,2 C 10,6 C 73 % 1012,7 hPa 0,0 l/m 11,3 km/h (2 Bft) W 265 0 min 1,0 UV-I 179 W/m 4,6 C 6,0 C 19,3 km/h (3 Bft)
02.05.2020 16:56 9,1 C 10,0 C 73 % 1012,7 hPa 0,0 l/m 10,7 km/h (2 Bft) W 267 0 min 1,1 UV-I 195 W/m 4,5 C 6,2 C 17,7 km/h (3 Bft)
02.05.2020 16:58 9,1 C 10,6 C 73 % 1012,8 hPa 0,0 l/m 15,8 km/h (3 Bft) W-SW 238 0 min 1,3 UV-I 240 W/m 4,5 C 3,7 C 30,6 km/h (5 Bft)
02.05.2020 17:00 9,1 C 10,6 C 72 % 1012,8 hPa 0,0 l/m 17,0 km/h (3 Bft) W-SW 251 0 min 1,7 UV-I 294 W/m 4,3 C 3,2 C 24,1 km/h (4 Bft)
02.05.2020 17:02 9,1 C 10,6 C 72 % 1012,8 hPa 0,0 l/m 13,9 km/h (3 Bft) W 263 0 min 1,8 UV-I 260 W/m 4,3 C 4,5 C 20,9 km/h (4 Bft)
02.05.2020 17:04 9,3 C 12,2 C 72 % 1012,8 hPa 0,0 l/m 17,8 km/h (3 Bft) W-SW 246 0 min 2,4 UV-I 216 W/m 4,5 C 3,2 C 27,4 km/h (4 Bft)
02.05.2020 17:06 9,5 C 13,9 C 71 % 1012,7 hPa 0,0 l/m 15,1 km/h (3 Bft) W 264 0 min 2,9 UV-I 544 W/m 4,5 C 4,5 C 20,9 km/h (4 Bft)
02.05.2020 17:08 9,7 C 13,9 C 73 % 1012,9 hPa 0,0 l/m 14,9 km/h (3 Bft) SW 232 0 min 1,8 UV-I 432 W/m 5,1 C 4,8 C 20,9 km/h (4 Bft)
02.05.2020 17:10 9,9 C 15,6 C 74 % 1012,9 hPa 0,0 l/m 16,8 km/h (3 Bft) S-SW 207 0 min 2,9 UV-I 556 W/m 5,5 C 4,3 C 25,7 km/h (4 Bft)
02.05.2020 17:12 10,3 C 15,6 C 72 % 1012,9 hPa 0,0 l/m 18,4 km/h (3 Bft) SW 228 2 min 2,9 UV-I 682 W/m 5,5 C 4,2 C 27,4 km/h (4 Bft)
02.05.2020 17:14 10,4 C 15,6 C 73 % 1012,9 hPa 0,0 l/m 17,7 km/h (3 Bft) W-SW 237 2 min 2,8 UV-I 619 W/m 5,8 C 4,6 C 25,7 km/h (4 Bft)
02.05.2020 17:16 10,2 C 15,6 C 70 % 1013,0 hPa 0,0 l/m 19,0 km/h (3 Bft) SW 227 2 min 2,8 UV-I 599 W/m 5,0 C 3,9 C 25,7 km/h (4 Bft)
02.05.2020 17:18 10,2 C 16,1 C 72 % 1013,0 hPa 0,0 l/m 15,3 km/h (3 Bft) W-SW 240 2 min 2,7 UV-I 606 W/m 5,4 C 5,3 C 24,1 km/h (4 Bft)
02.05.2020 17:20 10,2 C 16,1 C 71 % 1013,0 hPa 0,0 l/m 16,6 km/h (3 Bft) SW 223 2 min 2,6 UV-I 632 W/m 5,2 C 4,7 C 27,4 km/h (4 Bft)
02.05.2020 17:22 10,2 C 14,4 C 70 % 1013,0 hPa 0,0 l/m 14,9 km/h (3 Bft) SW 223 0 min 1,8 UV-I 546 W/m 5,0 C 5,4 C 20,9 km/h (4 Bft)
02.05.2020 17:24 9,9 C 13,3 C 70 % 1013,1 hPa 0,0 l/m 15,7 km/h (3 Bft) W-SW 248 0 min 1,9 UV-I 255 W/m 4,7 C 4,7 C 24,1 km/h (4 Bft)
02.05.2020 17:26 10,1 C 15,6 C 72 % 1013,1 hPa 0,0 l/m 10,0 km/h (2 Bft) S 188 2 min 2,8 UV-I 667 W/m 5,3 C 7,7 C 17,7 km/h (3 Bft)
02.05.2020 17:28 10,3 C 16,1 C 71 % 1013,1 hPa 0,0 l/m 13,3 km/h (3 Bft) W-NW 297 2 min 2,6 UV-I 645 W/m 5,3 C 6,2 C 20,9 km/h (4 Bft)
02.05.2020 17:30 10,5 C 16,7 C 71 % 1013,0 hPa 0,0 l/m 14,8 km/h (3 Bft) SW 229 2 min 2,5 UV-I 626 W/m 5,5 C 5,8 C 25,7 km/h (4 Bft)
02.05.2020 17:32 10,4 C 15,6 C 69 % 1013,0 hPa 0,0 l/m 17,4 km/h (3 Bft) SW 236 0 min 2,4 UV-I 560 W/m 5,0 C 4,7 C 22,5 km/h (4 Bft)
02.05.2020 17:34 10,2 C 15,0 C 70 % 1013,2 hPa 0,0 l/m 15,8 km/h (3 Bft) W-SW 239 0 min 1,6 UV-I 432 W/m 5,0 C 5,1 C 20,9 km/h (4 Bft)
02.05.2020 17:36 9,9 C 12,8 C 70 % 1013,1 hPa 0,0 l/m 10,8 km/h (2 Bft) W-SW 248 0 min 1,3 UV-I 104 W/m 4,7 C 7,0 C 22,5 km/h (4 Bft)
02.05.2020 17:38 9,6 C 11,1 C 71 % 1013,1 hPa 0,0 l/m 11,1 km/h (2 Bft) W-SW 240 0 min 1,3 UV-I 121 W/m 4,6 C 6,5 C 16,1 km/h (3 Bft)
02.05.2020 17:40 9,4 C 10,6 C 72 % 1013,2 hPa 0,0 l/m 14,1 km/h (3 Bft) W 261 0 min 1,2 UV-I 127 W/m 4,6 C 4,8 C 19,3 km/h (3 Bft)
02.05.2020 17:42 9,3 C 10,6 C 73 % 1013,2 hPa 0,0 l/m 11,8 km/h (2 Bft) SW 226 0 min 1,2 UV-I 142 W/m 4,7 C 5,8 C 17,7 km/h (3 Bft)
02.05.2020 17:44 9,2 C 10,0 C 73 % 1013,2 hPa 0,0 l/m 8,7 km/h (2 Bft) W-SW 244 0 min 1,2 UV-I 125 W/m 4,6 C 7,5 C 12,9 km/h (3 Bft)
02.05.2020 17:46 9,2 C 10,0 C 73 % 1013,2 hPa 0,0 l/m 7,4 km/h (2 Bft) SW 232 0 min 1,0 UV-I 118 W/m 4,6 C 8,4 C 12,9 km/h (3 Bft)
02.05.2020 17:48 9,2 C 10,0 C 74 % 1013,2 hPa 0,0 l/m 10,2 km/h (2 Bft) W-SW 258 0 min 1,0 UV-I 138 W/m 4,8 C 6,6 C 17,7 km/h (3 Bft)
02.05.2020 17:50 9,2 C 10,6 C 73 % 1013,5 hPa 0,0 l/m 14,2 km/h (3 Bft) W 280 0 min 1,2 UV-I 200 W/m 4,6 C 4,5 C 24,1 km/h (4 Bft)
02.05.2020 17:52 9,3 C 10,6 C 72 % 1013,2 hPa 0,0 l/m 13,1 km/h (3 Bft) W-SW 254 0 min 1,3 UV-I 208 W/m 4,5 C 5,2 C 22,5 km/h (4 Bft)
02.05.2020 17:54 9,3 C 10,6 C 72 % 1013,3 hPa 0,0 l/m 11,7 km/h (2 Bft) W-SW 240 0 min 1,3 UV-I 193 W/m 4,5 C 5,9 C 19,3 km/h (3 Bft)
02.05.2020 17:56 9,5 C 12,2 C 73 % 1013,4 hPa 0,0 l/m 14,0 km/h (3 Bft) SW 217 0 min 1,8 UV-I 254 W/m 4,9 C 5,0 C 20,9 km/h (4 Bft)
02.05.2020 17:58 9,8 C 14,4 C 72 % 1013,5 hPa 0,0 l/m 15,8 km/h (3 Bft) SW 224 0 min 2,0 UV-I 548 W/m 5,0 C 4,6 C 24,1 km/h (4 Bft)
02.05.2020 18:00 9,9 C 15,0 C 72 % 1013,5 hPa 0,0 l/m 15,7 km/h (3 Bft) W 272 0 min 1,9 UV-I 501 W/m 5,1 C 4,7 C 27,4 km/h (4 Bft)
02.05.2020 18:02 10,1 C 15,6 C 71 % 1013,5 hPa 0,0 l/m 15,1 km/h (3 Bft) S-SW 209 0 min 1,9 UV-I 476 W/m 5,1 C 5,2 C 25,7 km/h (4 Bft)
02.05.2020 18:04 10,1 C 15,6 C 71 % 1013,5 hPa 0,0 l/m 13,6 km/h (3 Bft) W 265 0 min 1,7 UV-I 456 W/m 5,1 C 5,9 C 22,5 km/h (4 Bft)
02.05.2020 18:06 9,9 C 13,3 C 71 % 1013,6 hPa 0,0 l/m 14,7 km/h (3 Bft) W-SW 252 0 min 1,3 UV-I 298 W/m 4,9 C 5,1 C 22,5 km/h (4 Bft)
02.05.2020 18:08 9,7 C 13,3 C 71 % 1013,6 hPa 0,0 l/m 18,6 km/h (3 Bft) W 260 0 min 1,8 UV-I 296 W/m 4,7 C 3,4 C 30,6 km/h (5 Bft)
02.05.2020 18:10 9,6 C 12,8 C 71 % 1013,6 hPa 0,0 l/m 13,2 km/h (3 Bft) W 266 0 min 1,4 UV-I 335 W/m 4,6 C 5,5 C 19,3 km/h (3 Bft)
02.05.2020 18:12 9,4 C 12,8 C 71 % 1013,7 hPa 0,0 l/m 14,4 km/h (3 Bft) W-SW 246 0 min 1,6 UV-I 145 W/m 4,4 C 4,7 C 22,5 km/h (4 Bft)
02.05.2020 18:14 9,4 C 13,3 C 68 % 1013,6 hPa 0,0 l/m 17,4 km/h (3 Bft) W-SW 241 0 min 1,7 UV-I 455 W/m 3,8 C 3,4 C 25,7 km/h (4 Bft)
02.05.2020 18:16 9,6 C 13,9 C 69 % 1013,7 hPa 0,0 l/m 14,2 km/h (3 Bft) W-SW 245 0 min 1,6 UV-I 460 W/m 4,2 C 5,0 C 24,1 km/h (4 Bft)
02.05.2020 18:18 9,8 C 14,4 C 71 % 1013,7 hPa 0,0 l/m 8,6 km/h (2 Bft) W-SW 251 0 min 1,5 UV-I 424 W/m 4,8 C 8,2 C 14,5 km/h (3 Bft)
02.05.2020 18:20 9,8 C 13,9 C 69 % 1013,6 hPa 0,0 l/m 8,8 km/h (2 Bft) W-SW 252 0 min 1,3 UV-I 383 W/m 4,4 C 8,1 C 14,5 km/h (3 Bft)
02.05.2020 18:22 9,8 C 14,4 C 70 % 1013,8 hPa 0,0 l/m 10,4 km/h (2 Bft) SW 226 0 min 1,4 UV-I 395 W/m 4,6 C 7,1 C 17,7 km/h (3 Bft)
02.05.2020 18:24 9,9 C 13,9 C 70 % 1013,7 hPa 0,0 l/m 14,3 km/h (3 Bft) S-SW 213 0 min 1,4 UV-I 433 W/m 4,7 C 5,3 C 22,5 km/h (4 Bft)
02.05.2020 18:26 9,8 C 12,8 C 70 % 1013,7 hPa 0,0 l/m 9,7 km/h (2 Bft) W 260 0 min 1,1 UV-I 312 W/m 4,6 C 7,6 C 17,7 km/h (3 Bft)
02.05.2020 18:28 9,8 C 12,2 C 71 % 1013,8 hPa 0,0 l/m 8,4 km/h (2 Bft) W-SW 257 0 min 1,0 UV-I 191 W/m 4,8 C 8,4 C 17,7 km/h (3 Bft)
02.05.2020 18:30 9,7 C 11,1 C 69 % 1013,8 hPa 0,0 l/m 12,6 km/h (3 Bft) W 276 0 min 0,9 UV-I 202 W/m 4,3 C 5,9 C 19,3 km/h (3 Bft)
02.05.2020 18:32 9,6 C 10,6 C 70 % 1013,8 hPa 0,0 l/m 11,6 km/h (2 Bft) SW 221 0 min 0,8 UV-I 168 W/m 4,4 C 6,3 C 20,9 km/h (4 Bft)
02.05.2020 18:34 9,6 C 10,0 C 70 % 1013,9 hPa 0,0 l/m 11,6 km/h (2 Bft) W-SW 249 0 min 0,6 UV-I 135 W/m 4,4 C 6,3 C 17,7 km/h (3 Bft)
02.05.2020 18:36 9,5 C 10,0 C 71 % 1013,9 hPa 0,0 l/m 6,6 km/h (2 Bft) W 260 0 min 0,5 UV-I 107 W/m 4,5 C 9,4 C 12,9 km/h (3 Bft)
02.05.2020 18:38 9,4 C 10,0 C 71 % 1013,9 hPa 0,0 l/m 12,0 km/h (2 Bft) W 260 0 min 0,1 UV-I 112 W/m 4,4 C 5,8 C 17,7 km/h (3 Bft)
02.05.2020 18:40 9,4 C 10,0 C 72 % 1014,1 hPa 0,0 l/m 9,7 km/h (2 Bft) W 261 0 min 0,5 UV-I 133 W/m 4,6 C 7,1 C 14,5 km/h (3 Bft)
02.05.2020 18:42 9,4 C 10,0 C 71 % 1014,1 hPa 0,0 l/m 13,1 km/h (3 Bft) W-SW 241 0 min 0,6 UV-I 163 W/m 4,4 C 5,3 C 20,9 km/h (4 Bft)
02.05.2020 18:44 9,6 C 11,1 C 71 % 1014,1 hPa 0,0 l/m 12,2 km/h (2 Bft) W 268 0 min 0,8 UV-I 173 W/m 4,6 C 6,0 C 19,3 km/h (3 Bft)
02.05.2020 18:46 9,6 C 11,1 C 70 % 1014,1 hPa 0,0 l/m 6,9 km/h (2 Bft) W-SW 247 0 min 0,9 UV-I 207 W/m 4,4 C 9,2 C 14,5 km/h (3 Bft)
02.05.2020 18:48 9,9 C 11,7 C 71 % 1014,1 hPa 0,0 l/m 6,7 km/h (2 Bft) W-NW 293 0 min 0,9 UV-I 376 W/m 4,9 C 9,7 C 14,5 km/h (3 Bft)
02.05.2020 18:50 9,8 C 11,1 C 69 % 1014,1 hPa 0,0 l/m 9,9 km/h (2 Bft) W 269 0 min 0,7 UV-I 202 W/m 4,4 C 7,4 C 19,3 km/h (3 Bft)
02.05.2020 18:52 9,7 C 10,0 C 70 % 1014,2 hPa 0,0 l/m 13,5 km/h (3 Bft) W 271 0 min 0,7 UV-I 86 W/m 4,5 C 5,4 C 24,1 km/h (4 Bft)
02.05.2020 18:54 9,4 C 9,4 C 69 % 1014,2 hPa 0,0 l/m 13,2 km/h (3 Bft) W 279 0 min 0,8 UV-I 140 W/m 4,0 C 5,2 C 20,9 km/h (4 Bft)
02.05.2020 18:56 9,4 C 10,0 C 71 % 1014,2 hPa 0,0 l/m 11,0 km/h (2 Bft) W 273 0 min 0,9 UV-I 268 W/m 4,4 C 6,4 C 14,5 km/h (3 Bft)
02.05.2020 18:58 9,5 C 10,0 C 72 % 1014,3 hPa 0,0 l/m 7,1 km/h (2 Bft) W 267 0 min 0,9 UV-I 302 W/m 4,7 C 9,0 C 12,9 km/h (3 Bft)
02.05.2020 19:00 9,6 C 10,0 C 72 % 1014,3 hPa 0,0 l/m 6,3 km/h (2 Bft) W-SW 246 0 min 0,8 UV-I 245 W/m 4,8 C 9,6 C 9,7 km/h (2 Bft)
02.05.2020 19:02 9,7 C 10,6 C 72 % 1014,2 hPa 0,0 l/m 4,8 km/h (1 Bft) W-NW 296 0 min 0,8 UV-I 272 W/m 4,9 C 9,7 C 9,7 km/h (2 Bft)
02.05.2020 19:04 9,7 C 10,6 C 71 % 1014,1 hPa 0,0 l/m 11,8 km/h (2 Bft) W 276 0 min 0,8 UV-I 271 W/m 4,7 C 6,3 C 20,9 km/h (4 Bft)
02.05.2020 19:06 9,6 C 10,6 C 71 % 1014,2 hPa 0,0 l/m 12,7 km/h (3 Bft) W-SW 244 0 min 0,8 UV-I 275 W/m 4,6 C 5,7 C 19,3 km/h (3 Bft)
02.05.2020 19:08 9,6 C 10,6 C 71 % 1014,1 hPa 0,0 l/m 10,6 km/h (2 Bft) W 276 0 min 0,7 UV-I 217 W/m 4,6 C 6,8 C 17,7 km/h (3 Bft)
02.05.2020 19:10 9,4 C 10,6 C 72 % 1014,2 hPa 0,0 l/m 9,8 km/h (2 Bft) W 275 0 min 0,7 UV-I 169 W/m 4,6 C 7,1 C 16,1 km/h (3 Bft)
02.05.2020 19:12 9,3 C 10,6 C 72 % 1014,2 hPa 0,0 l/m 9,0 km/h (2 Bft) W-SW 256 0 min 0,7 UV-I 218 W/m 4,5 C 7,4 C 16,1 km/h (3 Bft)
02.05.2020 19:14 9,3 C 10,6 C 72 % 1014,3 hPa 0,0 l/m 9,4 km/h (2 Bft) W 263 0 min 0,6 UV-I 153 W/m 4,5 C 7,2 C 14,5 km/h (3 Bft)
02.05.2020 19:16 9,3 C 11,1 C 72 % 1014,3 hPa 0,0 l/m 11,1 km/h (2 Bft) W-SW 242 0 min 0,6 UV-I 147 W/m 4,5 C 6,2 C 16,1 km/h (3 Bft)
02.05.2020 19:18 9,2 C 11,1 C 73 % 1014,3 hPa 0,0 l/m 5,2 km/h (1 Bft) W-NW 285 0 min 0,6 UV-I 229 W/m 4,6 C 9,2 C 11,3 km/h (2 Bft)
02.05.2020 19:20 9,3 C 11,7 C 73 % 1014,3 hPa 0,0 l/m 7,3 km/h (2 Bft) W-SW 257 0 min 0,7 UV-I 264 W/m 4,7 C 8,6 C 12,9 km/h (3 Bft)
02.05.2020 19:22 9,4 C 12,2 C 73 % 1014,3 hPa 0,0 l/m 13,2 km/h (3 Bft) SW 235 0 min 0,6 UV-I 234 W/m 4,8 C 5,2 C 19,3 km/h (3 Bft)
02.05.2020 19:24 9,4 C 12,2 C 72 % 1014,3 hPa 0,0 l/m 11,5 km/h (2 Bft) W-SW 238 0 min 0,6 UV-I 205 W/m 4,6 C 6,1 C 16,1 km/h (3 Bft)
02.05.2020 19:26 9,3 C 12,2 C 73 % 1014,4 hPa 0,0 l/m 8,7 km/h (2 Bft) W-SW 250 0 min 0,6 UV-I 194 W/m 4,7 C 7,6 C 14,5 km/h (3 Bft)
02.05.2020 19:28 9,3 C 11,7 C 72 % 1014,2 hPa 0,0 l/m 8,1 km/h (2 Bft) W-SW 253 0 min 0,6 UV-I 186 W/m 4,5 C 8,0 C 14,5 km/h (3 Bft)
02.05.2020 19:30 9,3 C 11,1 C 71 % 1014,4 hPa 0,0 l/m 10,3 km/h (2 Bft) W 272 0 min 0,5 UV-I 173 W/m 4,3 C 6,6 C 16,1 km/h (3 Bft)
02.05.2020 19:32 9,2 C 10,6 C 71 % 1014,4 hPa 0,0 l/m 12,9 km/h (3 Bft) W 266 0 min 0,5 UV-I 165 W/m 4,2 C 5,1 C 19,3 km/h (3 Bft)
02.05.2020 19:34 9,2 C 10,0 C 71 % 1014,4 hPa 0,0 l/m 10,0 km/h (2 Bft) SW 228 0 min 0,5 UV-I 156 W/m 4,2 C 6,7 C 16,1 km/h (3 Bft)
02.05.2020 19:36 9,1 C 9,4 C 71 % 1014,5 hPa 0,0 l/m 16,8 km/h (3 Bft) W-SW 254 0 min 0,5 UV-I 147 W/m 4,1 C 3,3 C 24,1 km/h (4 Bft)
02.05.2020 19:38 8,9 C 8,9 C 72 % 1014,4 hPa 0,0 l/m 11,9 km/h (2 Bft) W 276 0 min 0,4 UV-I 141 W/m 4,1 C 5,3 C 20,9 km/h (4 Bft)
02.05.2020 19:40 8,9 C 8,9 C 72 % 1014,4 hPa 0,0 l/m 9,7 km/h (2 Bft) W 261 0 min 0,0 UV-I 135 W/m 4,1 C 6,6 C 14,5 km/h (3 Bft)
02.05.2020 19:42 8,9 C 8,9 C 73 % 1014,3 hPa 0,0 l/m 9,0 km/h (2 Bft) W-SW 246 0 min 0,0 UV-I 130 W/m 4,3 C 7,0 C 14,5 km/h (3 Bft)
02.05.2020 19:44 8,9 C 8,3 C 73 % 1014,3 hPa 0,0 l/m 9,6 km/h (2 Bft) W-SW 238 0 min 0,0 UV-I 94 W/m 4,3 C 6,6 C 14,5 km/h (3 Bft)
02.05.2020 19:46 8,8 C 8,3 C 73 % 1014,3 hPa 0,0 l/m 8,4 km/h (2 Bft) W 265 0 min 0,0 UV-I 37 W/m 4,2 C 7,3 C 14,5 km/h (3 Bft)
02.05.2020 19:48 8,7 C 7,8 C 73 % 1014,4 hPa 0,0 l/m 9,8 km/h (2 Bft) W-SW 241 0 min 0,0 UV-I 47 W/m 4,1 C 6,3 C 16,1 km/h (3 Bft)
02.05.2020 19:50 8,6 C 7,8 C 73 % 1014,4 hPa 0,0 l/m 7,1 km/h (2 Bft) W-SW 245 0 min 0,0 UV-I 94 W/m 4,0 C 8,1 C 11,3 km/h (2 Bft)
02.05.2020 19:52 8,4 C 7,8 C 74 % 1014,5 hPa 0,0 l/m 6,1 km/h (2 Bft) W-SW 250 0 min 0,0 UV-I 56 W/m 4,0 C 8,4 C 11,3 km/h (2 Bft)
02.05.2020 19:54 8,4 C 7,2 C 75 % 1014,5 hPa 0,0 l/m 6,7 km/h (2 Bft) W-SW 255 0 min 0,0 UV-I 72 W/m 4,2 C 8,2 C 9,7 km/h (2 Bft)
02.05.2020 19:56 8,3 C 7,2 C 75 % 1014,5 hPa 0,0 l/m 4,9 km/h (1 Bft) W-SW 250 0 min 0,0 UV-I 48 W/m 4,1 C 8,3 C 8,0 km/h (2 Bft)
02.05.2020 19:58 8,2 C 7,2 C 76 % 1014,5 hPa 0,0 l/m 4,9 km/h (1 Bft) W-SW 248 0 min 0,0 UV-I 31 W/m 4,2 C 8,2 C 8,0 km/h (2 Bft)
02.05.2020 20:00 8,2 C 7,2 C 76 % 1014,5 hPa 0,0 l/m 2,8 km/h (1 Bft) W-SW 248 0 min 0,0 UV-I 30 W/m 4,2 C 8,2 C 4,8 km/h (1 Bft)
02.05.2020 20:02 8,1 C 6,7 C 76 % 1014,5 hPa 0,0 l/m 3,3 km/h (1 Bft) W-SW 240 0 min 0,0 UV-I 27 W/m 4,1 C 8,1 C 6,4 km/h (2 Bft)
02.05.2020 20:04 8,1 C 6,7 C 76 % 1014,6 hPa 0,0 l/m 3,5 km/h (1 Bft) W-SW 240 0 min 0,0 UV-I 26 W/m 4,1 C 8,1 C 4,8 km/h (1 Bft)
02.05.2020 20:06 7,9 C 6,1 C 77 % 1014,6 hPa 0,0 l/m 2,5 km/h (1 Bft) W-SW 240 0 min 0,0 UV-I 25 W/m 4,1 C 7,9 C 3,2 km/h (1 Bft)
02.05.2020 20:08 7,8 C 6,1 C 77 % 1014,6 hPa 0,0 l/m 4,1 km/h (1 Bft) W-SW 257 0 min 0,0 UV-I 22 W/m 4,0 C 7,8 C 6,4 km/h (2 Bft)
02.05.2020 20:10 7,8 C 6,1 C 77 % 1014,7 hPa 0,0 l/m 2,9 km/h (1 Bft) W-SW 257 0 min 0,0 UV-I 20 W/m 4,0 C 7,8 C 4,8 km/h (1 Bft)
02.05.2020 20:12 7,7 C 5,6 C 77 % 1014,7 hPa 0,0 l/m 4,5 km/h (1 Bft) W-SW 256 0 min 0,0 UV-I 19 W/m 3,9 C 7,7 C 6,4 km/h (2 Bft)
02.05.2020 20:14 7,7 C 5,6 C 77 % 1014,8 hPa 0,0 l/m 4,3 km/h (1 Bft) W-SW 256 0 min 0,0 UV-I 19 W/m 3,9 C 7,7 C 6,4 km/h (2 Bft)
02.05.2020 20:16 7,7 C 5,6 C 77 % 1014,8 hPa 0,0 l/m 3,6 km/h (1 Bft) W-SW 256 0 min 0,0 UV-I 18 W/m 3,9 C 7,7 C 4,8 km/h (1 Bft)
02.05.2020 20:18 7,6 C 5,6 C 77 % 1014,8 hPa 0,0 l/m 3,8 km/h (1 Bft) W-SW 256 0 min 0,0 UV-I 18 W/m 3,8 C 7,6 C 4,8 km/h (1 Bft)
02.05.2020 20:20 7,6 C 5,6 C 77 % 1014,8 hPa 0,0 l/m 4,6 km/h (1 Bft) W 272 0 min 0,0 UV-I 16 W/m 3,8 C 7,6 C 8,0 km/h (2 Bft)
02.05.2020 20:22 7,5 C 5,6 C 77 % 1014,9 hPa 0,0 l/m 5,7 km/h (1 Bft) W-SW 253 0 min 0,0 UV-I 16 W/m 3,7 C 7,5 C 9,7 km/h (2 Bft)
02.05.2020 20:24 7,4 C 5,6 C 78 % 1014,9 hPa 0,0 l/m 6,7 km/h (2 Bft) SW 235 0 min 0,0 UV-I 14 W/m 3,8 C 7,2 C 11,3 km/h (2 Bft)
02.05.2020 20:26 7,4 C 5,6 C 77 % 1014,9 hPa 0,0 l/m 5,0 km/h (1 Bft) W-SW 250 0 min 0,0 UV-I 14 W/m 3,6 C 7,4 C 8,0 km/h (2 Bft)
02.05.2020 20:28 7,4 C 5,6 C 78 % 1014,9 hPa 0,0 l/m 3,5 km/h (1 Bft) W-SW 254 0 min 0,0 UV-I 13 W/m 3,8 C 7,4 C 6,4 km/h (2 Bft)
02.05.2020 20:30 7,4 C 5,6 C 78 % 1014,9 hPa 0,0 l/m 3,8 km/h (1 Bft) W 261 0 min 0,0 UV-I 12 W/m 3,8 C 7,4 C 9,7 km/h (2 Bft)
02.05.2020 20:32 7,4 C 5,6 C 78 % 1014,9 hPa 0,0 l/m 2,5 km/h (1 Bft) W 261 0 min 0,0 UV-I 12 W/m 3,8 C 7,4 C 4,8 km/h (1 Bft)
02.05.2020 20:34 7,3 C 5,0 C 78 % 1014,9 hPa 0,0 l/m 2,9 km/h (1 Bft) W 261 0 min 0,0 UV-I 12 W/m 3,7 C 7,3 C 6,4 km/h (2 Bft)
02.05.2020 20:36 7,2 C 5,0 C 78 % 1014,9 hPa 0,0 l/m 4,4 km/h (1 Bft) W 259 0 min 0,0 UV-I 11 W/m 3,6 C 7,2 C 6,4 km/h (2 Bft)
02.05.2020 20:38 7,2 C 5,0 C 78 % 1015,1 hPa 0,0 l/m 3,6 km/h (1 Bft) W 265 0 min 0,0 UV-I 11 W/m 3,6 C 7,2 C 6,4 km/h (2 Bft)
02.05.2020 20:40 7,2 C 5,0 C 78 % 1015,1 hPa 0,0 l/m 3,3 km/h (1 Bft) W 265 0 min 0,0 UV-I 11 W/m 3,6 C 7,2 C 6,4 km/h (2 Bft)
02.05.2020 20:42 7,1 C 5,0 C 79 % 1015,2 hPa 0,0 l/m 2,7 km/h (1 Bft) W 265 0 min 0,0 UV-I 9 W/m 3,7 C 7,1 C 4,8 km/h (1 Bft)
02.05.2020 20:44 7,1 C 4,4 C 79 % 1015,1 hPa 0,0 l/m 3,8 km/h (1 Bft) W-SW 243 0 min 0,0 UV-I 9 W/m 3,7 C 7,1 C 6,4 km/h (2 Bft)
02.05.2020 20:46 6,9 C 5,0 C 79 % 1015,2 hPa 0,0 l/m 3,6 km/h (1 Bft) W-SW 244 0 min 0,0 UV-I 8 W/m 3,5 C 6,9 C 6,4 km/h (2 Bft)
02.05.2020 20:48 6,8 C 5,0 C 79 % 1015,2 hPa 0,0 l/m 3,2 km/h (1 Bft) W-SW 244 0 min 0,0 UV-I 7 W/m 3,4 C 6,8 C 6,4 km/h (2 Bft)
02.05.2020 20:50 6,8 C 5,0 C 80 % 1015,2 hPa 0,0 l/m 3,7 km/h (1 Bft) W-SW 244 0 min 0,0 UV-I 5 W/m 3,6 C 6,8 C 4,8 km/h (1 Bft)
02.05.2020 20:52 6,8 C 5,0 C 80 % 1015,3 hPa 0,0 l/m 1,7 km/h (1 Bft) W-SW 244 0 min 0,0 UV-I 5 W/m 3,6 C 6,8 C 3,2 km/h (1 Bft)
02.05.2020 20:54 6,7 C 4,4 C 80 % 1015,3 hPa 0,0 l/m 0,8 km/h (0 Bft) W-SW 244 0 min 0,0 UV-I 5 W/m 3,5 C 6,7 C 1,6 km/h (1 Bft)
02.05.2020 20:56 6,6 C 4,4 C 81 % 1015,3 hPa 0,0 l/m 1,5 km/h (1 Bft) W-SW 244 0 min 0,0 UV-I 1 W/m 3,6 C 6,6 C 3,2 km/h (1 Bft)
02.05.2020 20:58 6,6 C 4,4 C 81 % 1015,4 hPa 0,0 l/m 1,8 km/h (1 Bft) W-SW 244 0 min 0,0 UV-I 0 W/m 3,6 C 6,6 C 3,2 km/h (1 Bft)
02.05.2020 21:00 6,4 C 3,9 C 82 % 1015,4 hPa 0,0 l/m 1,2 km/h (1 Bft) W-SW 244 0 min 0,0 UV-I 0 W/m 3,6 C 6,4 C 3,2 km/h (1 Bft)
02.05.2020 21:02 6,2 C 3,9 C 82 % 1015,4 hPa 0,0 l/m 1,2 km/h (1 Bft) W-SW 244 0 min 0,0 UV-I 0 W/m 3,4 C 6,2 C 3,2 km/h (1 Bft)
02.05.2020 21:04 6,1 C 3,9 C 83 % 1015,4 hPa 0,0 l/m 2,5 km/h (1 Bft) W-SW 244 0 min 0,0 UV-I 0 W/m 3,4 C 6,1 C 3,2 km/h (1 Bft)
02.05.2020 21:06 6,0 C 3,9 C 84 % 1015,5 hPa 0,0 l/m 1,9 km/h (1 Bft) W-SW 244 0 min 0,0 UV-I 0 W/m 3,5 C 6,0 C 3,2 km/h (1 Bft)
02.05.2020 21:08 6,0 C 3,9 C 84 % 1015,5 hPa 0,0 l/m 2,5 km/h (1 Bft) W-SW 244 0 min 0,0 UV-I 0 W/m 3,5 C 6,0 C 4,8 km/h (1 Bft)
02.05.2020 21:10 6,1 C 3,3 C 84 % 1015,5 hPa 0,0 l/m 1,7 km/h (1 Bft) W-SW 244 0 min 0,0 UV-I 0 W/m 3,6 C 6,1 C 3,2 km/h (1 Bft)
02.05.2020 21:12 6,1 C 3,9 C 84 % 1015,4 hPa 0,0 l/m 2,0 km/h (1 Bft) W-SW 244 0 min 0,0 UV-I 0 W/m 3,6 C 6,1 C 3,2 km/h (1 Bft)
02.05.2020 21:14 6,1 C 3,9 C 84 % 1015,6 hPa 0,0 l/m 2,1 km/h (1 Bft) W-SW 244 0 min 0,0 UV-I 0 W/m 3,6 C 6,1 C 3,2 km/h (1 Bft)
02.05.2020 21:16 6,2 C 3,9 C 83 % 1015,6 hPa 0,0 l/m 1,5 km/h (1 Bft) W-SW 244 0 min 0,0 UV-I 0 W/m 3,5 C 6,2 C 3,2 km/h (1 Bft)
02.05.2020 21:18 6,2 C 3,9 C 83 % 1015,6 hPa 0,0 l/m 0,9 km/h (0 Bft) W-SW 244 0 min 0,0 UV-I 0 W/m 3,5 C 6,2 C 1,6 km/h (1 Bft)
02.05.2020 21:20 6,2 C 3,9 C 83 % 1015,6 hPa 0,0 l/m 0,4 km/h (0 Bft) W-SW 244 0 min 0,0 UV-I 0 W/m 3,5 C 6,2 C 1,6 km/h (1 Bft)
02.05.2020 21:22 6,2 C 3,9 C 83 % 1015,6 hPa 0,0 l/m 1,2 km/h (1 Bft) W-SW 244 0 min 0,0 UV-I 0 W/m 3,5 C 6,2 C 3,2 km/h (1 Bft)
02.05.2020 21:24 6,1 C 3,9 C 84 % 1015,8 hPa 0,0 l/m 0,0 km/h (0 Bft) W-SW 244 0 min 0,0 UV-I 0 W/m 3,6 C 6,1 C 1,6 km/h (1 Bft)
02.05.2020 21:26 5,9 C 3,9 C 84 % 1015,9 hPa 0,0 l/m 0,0 km/h (0 Bft) W-SW 244 0 min 0,0 UV-I 0 W/m 3,4 C 5,9 C 1,6 km/h (1 Bft)
02.05.2020 21:28 5,9 C 3,9 C 85 % 1015,8 hPa 0,0 l/m 0,7 km/h (0 Bft) W-SW 244 0 min 0,0 UV-I 0 W/m 3,6 C 5,9 C 1,6 km/h (1 Bft)
02.05.2020 21:30 5,8 C 3,3 C 85 % 1015,9 hPa 0,0 l/m 0,7 km/h (0 Bft) W-SW 244 0 min 0,0 UV-I 0 W/m 3,5 C 5,8 C 1,6 km/h (1 Bft)
02.05.2020 21:32 5,8 C 3,3 C 85 % 1015,9 hPa 0,0 l/m 1,2 km/h (1 Bft) W-SW 244 0 min 0,0 UV-I 0 W/m 3,5 C 5,8 C 3,2 km/h (1 Bft)
02.05.2020 21:34 5,8 C 2,8 C 85 % 1015,9 hPa 0,0 l/m 1,7 km/h (1 Bft) W-SW 244 0 min 0,0 UV-I 0 W/m 3,5 C 5,8 C 3,2 km/h (1 Bft)
02.05.2020 21:36 5,7 C 2,8 C 85 % 1016,0 hPa 0,0 l/m 1,5 km/h (1 Bft) W-SW 244 0 min 0,0 UV-I 0 W/m 3,4 C 5,7 C 3,2 km/h (1 Bft)
02.05.2020 21:38 5,7 C 2,8 C 86 % 1016,1 hPa 0,0 l/m 1,6 km/h (1 Bft) W-SW 244 0 min 0,0 UV-I 0 W/m 3,5 C 5,7 C 3,2 km/h (1 Bft)
02.05.2020 21:40 5,7 C 2,8 C 86 % 1016,0 hPa 0,0 l/m 1,9 km/h (1 Bft) W-SW 244 0 min 0,0 UV-I 0 W/m 3,5 C 5,7 C 3,2 km/h (1 Bft)
02.05.2020 21:42 5,6 C 2,2 C 86 % 1016,2 hPa 0,0 l/m 2,5 km/h (1 Bft) W-SW 244 0 min 0,0 UV-I 0 W/m 3,4 C 5,6 C 3,2 km/h (1 Bft)
02.05.2020 21:44 5,7 C 2,2 C 86 % 1016,2 hPa 0,0 l/m 1,2 km/h (1 Bft) W-SW 244 0 min 0,0 UV-I 0 W/m 3,5 C 5,7 C 3,2 km/h (1 Bft)
02.05.2020 21:46 5,7 C 2,2 C 86 % 1016,2 hPa 0,0 l/m 0,5 km/h (0 Bft) W-SW 244 0 min 0,0 UV-I 0 W/m 3,5 C 5,7 C 1,6 km/h (1 Bft)
02.05.2020 21:48 5,6 C 2,2 C 85 % 1016,2 hPa 0,0 l/m 0,1 km/h (0 Bft) W-SW 244 0 min 0,0 UV-I 0 W/m 3,3 C 5,6 C 1,6 km/h (1 Bft)
02.05.2020 21:50 5,6 C 2,2 C 86 % 1016,3 hPa 0,0 l/m 0,1 km/h (0 Bft) W-SW 244 0 min 0,0 UV-I 0 W/m 3,4 C 5,6 C 1,6 km/h (1 Bft)
02.05.2020 21:52 5,4 C 2,2 C 86 % 1016,2 hPa 0,0 l/m 0,0 km/h (0 Bft) W-SW 244 0 min 0,0 UV-I 0 W/m 3,3 C 5,4 C 0,0 km/h (0 Bft)
02.05.2020 21:54 5,3 C 1,7 C 86 % 1016,2 hPa 0,0 l/m 0,1 km/h (0 Bft) W-SW 244 0 min 0,0 UV-I 0 W/m 3,2 C 5,3 C 1,6 km/h (1 Bft)
02.05.2020 21:56 5,0 C 1,7 C 87 % 1016,3 hPa 0,0 l/m 0,4 km/h (0 Bft) W-SW 244 0 min 0,0 UV-I 0 W/m 3,0 C 5,0 C 1,6 km/h (1 Bft)
02.05.2020 21:58 4,9 C 1,7 C 87 % 1016,4 hPa 0,0 l/m 1,3 km/h (1 Bft) W-SW 244 0 min 0,0 UV-I 0 W/m 2,9 C 4,9 C 1,6 km/h (1 Bft)
02.05.2020 22:00 4,9 C 1,7 C 88 % 1016,4 hPa 0,0 l/m 0,2 km/h (0 Bft) W-SW 244 0 min 0,0 UV-I 0 W/m 3,1 C 4,9 C 1,6 km/h (1 Bft)
02.05.2020 22:02 4,9 C 1,7 C 88 % 1016,5 hPa 0,0 l/m 0,0 km/h (0 Bft) W-SW 244 0 min 0,0 UV-I 0 W/m 3,1 C 4,9 C 0,0 km/h (0 Bft)
02.05.2020 22:04 4,9 C 1,7 C 88 % 1016,5 hPa 0,0 l/m 0,0 km/h (0 Bft) W-SW 244 0 min 0,0 UV-I 0 W/m 3,1 C 4,9 C 0,0 km/h (0 Bft)
02.05.2020 22:06 4,8 C 1,7 C 88 % 1016,5 hPa 0,0 l/m 0,0 km/h (0 Bft) W-SW 244 0 min 0,0 UV-I 0 W/m 3,0 C 4,8 C 0,0 km/h (0 Bft)
02.05.2020 22:08 4,8 C 1,7 C 88 % 1016,6 hPa 0,0 l/m 0,0 km/h (0 Bft) W-SW 244 0 min 0,0 UV-I 0 W/m 3,0 C 4,8 C 0,0 km/h (0 Bft)
02.05.2020 22:10 4,7 C 1,7 C 89 % 1016,6 hPa 0,0 l/m 0,0 km/h (0 Bft) W-SW 244 0 min 0,0 UV-I 0 W/m 3,0 C 4,7 C 1,6 km/h (1 Bft)
02.05.2020 22:12 4,7 C 1,7 C 89 % 1016,6 hPa 0,0 l/m 1,0 km/h (0 Bft) W-SW 244 0 min 0,0 UV-I 0 W/m 3,0 C 4,7 C 1,6 km/h (1 Bft)
02.05.2020 22:14 4,7 C 1,7 C 89 % 1016,6 hPa 0,0 l/m 2,5 km/h (1 Bft) W-SW 244 0 min 0,0 UV-I 0 W/m 3,0 C 4,7 C 3,2 km/h (1 Bft)
02.05.2020 22:16 4,6 C 1,7 C 88 % 1016,7 hPa 0,0 l/m 2,1 km/h (1 Bft) W-SW 244 0 min 0,0 UV-I 0 W/m 2,8 C 4,6 C 3,2 km/h (1 Bft)
02.05.2020 22:18 4,5 C 1,1 C 89 % 1016,7 hPa 0,0 l/m 0,7 km/h (0 Bft) W-SW 244 0 min 0,0 UV-I 0 W/m 2,8 C 4,5 C 3,2 km/h (1 Bft)
02.05.2020 22:20 4,4 C 1,1 C 89 % 1016,7 hPa 0,0 l/m 1,4 km/h (1 Bft) W-SW 244 0 min 0,0 UV-I 0 W/m 2,7 C 4,4 C 3,2 km/h (1 Bft)
02.05.2020 22:22 4,4 C 1,1 C 89 % 1016,7 hPa 0,0 l/m 0,7 km/h (0 Bft) W-SW 244 0 min 0,0 UV-I 0 W/m 2,7 C 4,4 C 1,6 km/h (1 Bft)
02.05.2020 22:24 4,4 C 1,1 C 89 % 1016,7 hPa 0,0 l/m 0,4 km/h (0 Bft) W-SW 244 0 min 0,0 UV-I 0 W/m 2,7 C 4,4 C 1,6 km/h (1 Bft)
02.05.2020 22:26 4,3 C 1,1 C 89 % 1016,8 hPa 0,0 l/m 0,3 km/h (0 Bft) W-SW 244 0 min 0,0 UV-I 0 W/m 2,7 C 4,3 C 1,6 km/h (1 Bft)
02.05.2020 22:28 4,3 C 1,1 C 90 % 1016,8 hPa 0,0 l/m 2,0 km/h (1 Bft) W-SW 244 0 min 0,0 UV-I 0 W/m 2,8 C 4,3 C 3,2 km/h (1 Bft)
02.05.2020 22:30 4,3 C 1,1 C 90 % 1016,8 hPa 0,0 l/m 1,9 km/h (1 Bft) W-SW 244 0 min 0,0 UV-I 0 W/m 2,8 C 4,3 C 3,2 km/h (1 Bft)
02.05.2020 22:32 4,2 C 1,7 C 90 % 1016,8 hPa 0,0 l/m 1,6 km/h (1 Bft) W-SW 244 0 min 0,0 UV-I 0 W/m 2,7 C 4,2 C 3,2 km/h (1 Bft)
02.05.2020 22:34 4,3 C 1,1 C 90 % 1016,9 hPa 0,0 l/m 1,8 km/h (1 Bft) W-SW 244 0 min 0,0 UV-I 0 W/m 2,8 C 4,3 C 3,2 km/h (1 Bft)
02.05.2020 22:36 4,2 C 1,1 C 90 % 1016,9 hPa 0,0 l/m 1,8 km/h (1 Bft) W-SW 244 0 min 0,0 UV-I 0 W/m 2,7 C 4,2 C 3,2 km/h (1 Bft)
02.05.2020 22:38 4,2 C 1,1 C 90 % 1016,9 hPa 0,0 l/m 2,0 km/h (1 Bft) W-SW 244 0 min 0,0 UV-I 0 W/m 2,7 C 4,2 C 3,2 km/h (1 Bft)
02.05.2020 22:40 4,2 C 1,1 C 90 % 1016,8 hPa 0,0 l/m 2,0 km/h (1 Bft) W-SW 244 0 min 0,0 UV-I 0 W/m 2,7 C 4,2 C 3,2 km/h (1 Bft)
02.05.2020 22:42 4,3 C 1,1 C 90 % 1016,8 hPa 0,0 l/m 1,5 km/h (1 Bft) W-SW 244 0 min 0,0 UV-I 0 W/m 2,8 C 4,3 C 3,2 km/h (1 Bft)
02.05.2020 22:44 4,3 C 1,1 C 90 % 1016,9 hPa 0,0 l/m 0,4 km/h (0 Bft) W-SW 244 0 min 0,0 UV-I 0 W/m 2,8 C 4,3 C 1,6 km/h (1 Bft)
02.05.2020 22:46 4,4 C 1,1 C 90 % 1017,0 hPa 0,0 l/m 0,4 km/h (0 Bft) W-SW 244 0 min 0,0 UV-I 0 W/m 2,9 C 4,4 C 1,6 km/h (1 Bft)
02.05.2020 22:48 4,3 C 1,1 C 90 % 1017,0 hPa 0,0 l/m 0,3 km/h (0 Bft) W-SW 244 0 min 0,0 UV-I 0 W/m 2,8 C 4,3 C 1,6 km/h (1 Bft)
02.05.2020 22:50 4,3 C 1,1 C 90 % 1017,0 hPa 0,0 l/m 0,1 km/h (0 Bft) W-SW 244 0 min 0,0 UV-I 0 W/m 2,8 C 4,3 C 1,6 km/h (1 Bft)
02.05.2020 22:52 4,1 C 0,6 C 89 % 1017,0 hPa 0,0 l/m 0,3 km/h (0 Bft) W-SW 244 0 min 0,0 UV-I 0 W/m 2,5 C 4,1 C 1,6 km/h (1 Bft)
02.05.2020 22:54 3,9 C 0,6 C 90 % 1017,0 hPa 0,0 l/m 1,2 km/h (1 Bft) W-SW 244 0 min 0,0 UV-I 0 W/m 2,4 C 3,9 C 3,2 km/h (1 Bft)
02.05.2020 22:56 3,7 C 0,6 C 89 % 1017,1 hPa 0,0 l/m 0,3 km/h (0 Bft) W-SW 244 0 min 0,0 UV-I 0 W/m 2,1 C 3,7 C 1,6 km/h (1 Bft)
02.05.2020 22:58 3,5 C 0,6 C 90 % 1017,2 hPa 0,0 l/m 0,3 km/h (0 Bft) W-SW 244 0 min 0,0 UV-I 0 W/m 2,0 C 3,5 C 1,6 km/h (1 Bft)
02.05.2020 23:00 3,4 C 0,6 C 90 % 1017,1 hPa 0,0 l/m 0,1 km/h (0 Bft) W-SW 244 0 min 0,0 UV-I 0 W/m 1,9 C 3,4 C 1,6 km/h (1 Bft)
02.05.2020 23:02 3,5 C 0,6 C 91 % 1017,1 hPa 0,0 l/m 0,4 km/h (0 Bft) W-SW 244 0 min 0,0 UV-I 0 W/m 2,2 C 3,5 C 1,6 km/h (1 Bft)
02.05.2020 23:04 3,7 C 0,6 C 92 % 1017,1 hPa 0,0 l/m 2,0 km/h (1 Bft) W-SW 244 0 min 0,0 UV-I 0 W/m 2,5 C 3,7 C 4,8 km/h (1 Bft)
02.05.2020 23:06 3,8 C 0,6 C 91 % 1017,1 hPa 0,0 l/m 1,2 km/h (1 Bft) W-SW 244 0 min 0,0 UV-I 0 W/m 2,5 C 3,8 C 3,2 km/h (1 Bft)
02.05.2020 23:08 3,8 C 0,6 C 91 % 1017,1 hPa 0,0 l/m 0,3 km/h (0 Bft) W-SW 244 0 min 0,0 UV-I 0 W/m 2,5 C 3,8 C 1,6 km/h (1 Bft)
02.05.2020 23:10 3,8 C 0,6 C 91 % 1017,1 hPa 0,0 l/m 0,1 km/h (0 Bft) W-SW 244 0 min 0,0 UV-I 0 W/m 2,5 C 3,8 C 1,6 km/h (1 Bft)
02.05.2020 23:12 3,8 C 1,1 C 91 % 1017,1 hPa 0,0 l/m 0,0 km/h (0 Bft) W-SW 244 0 min 0,0 UV-I 0 W/m 2,5 C 3,8 C 0,0 km/h (0 Bft)
02.05.2020 23:14 3,8 C 1,1 C 91 % 1017,1 hPa 0,0 l/m 1,0 km/h (0 Bft) W-SW 244 0 min 0,0 UV-I 0 W/m 2,5 C 3,8 C 4,8 km/h (1 Bft)
02.05.2020 23:16 3,8 C 0,6 C 91 % 1017,0 hPa 0,0 l/m 1,3 km/h (1 Bft) W-SW 244 0 min 0,0 UV-I 0 W/m 2,5 C 3,8 C 4,8 km/h (1 Bft)
02.05.2020 23:18 3,9 C 1,1 C 91 % 1017,0 hPa 0,0 l/m 2,1 km/h (1 Bft) W-SW 244 0 min 0,0 UV-I 0 W/m 2,6 C 3,9 C 3,2 km/h (1 Bft)
02.05.2020 23:20 3,9 C 1,1 C 91 % 1017,0 hPa 0,0 l/m 2,3 km/h (1 Bft) W-SW 244 0 min 0,0 UV-I 0 W/m 2,6 C 3,9 C 4,8 km/h (1 Bft)
02.05.2020 23:22 3,8 C 1,1 C 91 % 1017,0 hPa 0,0 l/m 1,6 km/h (1 Bft) W-SW 244 0 min 0,0 UV-I 0 W/m 2,5 C 3,8 C 3,2 km/h (1 Bft)
02.05.2020 23:24 3,7 C 1,1 C 90 % 1017,0 hPa 0,0 l/m 2,1 km/h (1 Bft) W-SW 244 0 min 0,0 UV-I 0 W/m 2,2 C 3,7 C 3,2 km/h (1 Bft)
02.05.2020 23:26 3,6 C 0,6 C 91 % 1016,9 hPa 0,0 l/m 3,0 km/h (1 Bft) W-SW 244 0 min 0,0 UV-I 0 W/m 2,3 C 3,6 C 4,8 km/h (1 Bft)
02.05.2020 23:28 3,3 C 0,6 C 90 % 1017,0 hPa 0,0 l/m 1,9 km/h (1 Bft) W-SW 244 0 min 0,0 UV-I 0 W/m 1,8 C 3,3 C 3,2 km/h (1 Bft)
02.05.2020 23:30 3,2 C 0,6 C 90 % 1017,0 hPa 0,0 l/m 2,1 km/h (1 Bft) W-SW 244 0 min 0,0 UV-I 0 W/m 1,7 C 3,2 C 4,8 km/h (1 Bft)
02.05.2020 23:32 3,1 C 0,0 C 91 % 1016,9 hPa 0,0 l/m 2,5 km/h (1 Bft) W-SW 244 0 min 0,0 UV-I 0 W/m 1,8 C 3,1 C 4,8 km/h (1 Bft)
02.05.2020 23:34 3,1 C 0,6 C 91 % 1016,9 hPa 0,0 l/m 2,7 km/h (1 Bft) W-SW 244 0 min 0,0 UV-I 0 W/m 1,8 C 3,1 C 3,2 km/h (1 Bft)
02.05.2020 23:36 3,1 C 0,6 C 91 % 1017,0 hPa 0,0 l/m 2,2 km/h (1 Bft) W-SW 244 0 min 0,0 UV-I 0 W/m 1,8 C 3,1 C 4,8 km/h (1 Bft)
02.05.2020 23:38 3,2 C 0,6 C 91 % 1017,0 hPa 0,0 l/m 0,4 km/h (0 Bft) W-SW 244 0 min 0,0 UV-I 0 W/m 1,9 C 3,2 C 1,6 km/h (1 Bft)
02.05.2020 23:40 3,2 C 0,6 C 91 % 1017,1 hPa 0,0 l/m 1,0 km/h (0 Bft) W-SW 244 0 min 0,0 UV-I 0 W/m 1,9 C 3,2 C 3,2 km/h (1 Bft)
02.05.2020 23:42 3,1 C 0,0 C 91 % 1017,2 hPa 0,0 l/m 0,0 km/h (0 Bft) W-SW 244 0 min 0,0 UV-I 0 W/m 1,8 C 3,1 C 1,6 km/h (1 Bft)
02.05.2020 23:44 2,9 C 0,0 C 91 % 1017,1 hPa 0,0 l/m 0,0 km/h (0 Bft) W-SW 244 0 min 0,0 UV-I 0 W/m 1,6 C 2,9 C 0,0 km/h (0 Bft)
02.05.2020 23:46 2,9 C 0,0 C 92 % 1017,2 hPa 0,0 l/m 0,1 km/h (0 Bft) W-SW 244 0 min 0,0 UV-I 0 W/m 1,7 C 2,9 C 1,6 km/h (1 Bft)
02.05.2020 23:48 2,9 C 0,0 C 92 % 1017,2 hPa 0,0 l/m 1,2 km/h (1 Bft) W-SW 244 0 min 0,0 UV-I 0 W/m 1,7 C 2,9 C 3,2 km/h (1 Bft)
02.05.2020 23:50 2,9 C 0,0 C 92 % 1017,3 hPa 0,0 l/m 0,6 km/h (0 Bft) W-SW 244 0 min 0,0 UV-I 0 W/m 1,7 C 2,9 C 3,2 km/h (1 Bft)
02.05.2020 23:52 2,8 C 0,0 C 91 % 1017,2 hPa 0,0 l/m 0,0 km/h (0 Bft) W-SW 244 0 min 0,0 UV-I 0 W/m 1,5 C 2,8 C 1,6 km/h (1 Bft)
02.05.2020 23:54 2,6 C 0,0 C 91 % 1017,3 hPa 0,0 l/m 0,0 km/h (0 Bft) W-SW 244 0 min 0,0 UV-I 0 W/m 1,3 C 2,6 C 0,0 km/h (0 Bft)
02.05.2020 23:56 2,6 C 0,0 C 92 % 1017,2 hPa 0,0 l/m 0,0 km/h (0 Bft) W-SW 244 0 min 0,0 UV-I 0 W/m 1,4 C 2,6 C 0,0 km/h (0 Bft)
02.05.2020 23:58 2,7 C 0,0 C 92 % 1017,3 hPa 0,0 l/m 0,7 km/h (0 Bft) W-SW 244 0 min 0,0 UV-I 0 W/m 1,5 C 2,7 C 1,6 km/h (1 Bft)
02.05.2020 23:59 2,8 C 0,0 C 92 % 1017,3 hPa 0,0 l/m 0,0 km/h (0 Bft) W-SW 247 0 min 0,0 UV-I 0 W/m 1,6 C 2,8 C 1,6 km/h (1 Bft)
_ Min-Zeit 23:54 23:32 13:56 00:00 - 21:24 - - - - - 23:54 08:28 21:52
Minimum _ 2,6 C 0,0 C 68 % 1006,3 hPa - 0,0 km/h (0 Bft) - - - - - 1,3 C -2,1 C 0,0 km/h (0 Bft)
_ Max-Zeit 17:30 16:26 00:11 23:50 01:51 12:10 - - 10:54 13:28 13:50 10:56 13:28 11:02
Maximum _ 10,5 C 16,7 C 92 % 1017,3 hPa 0,4 l/m 23,4 km/h
SW (4 Bft)
- - 2 min 6,0 UV-I 1123 W/m 6,6 C 9,9 C 35,4 km/h
SW (5 Bft)
Durchschnitt _ 6,7 C 7,1 C 85 % 1011,1 hPa #7,6 l/m 10,1 km/h (2 Bft) SW - #2:50 h 2,4 UV-I 308 W/m 4,3 C 3,7 C 16,2 km/h (3 Bft)